[[{"header":{"parameterUnit":"m.s-1","parameterCategory":1,"la1":31.0,"la2":29.5877,"lo1":-88.7671,"lo2":-86.6584,"dy":0.0162,"dx":0.0185,"nx":115,"ny":88,"refTime":"2023-07-30T18:00:00:Z","depth":0,"parameterNumber":2,"parameterNumberName":"U-component_of_WINDS"},"data":[0.0,0.0,0.0,0.0,0.0,0.0,0.0,0.0,0.0,0.0,0.0,0.0,0.0,0.0,0.0,0.0,0.0,0.0,0.0,0.0,0.0,0.0,0.0,0.0,0.0,0.0,0.0,0.0,0.0,0.0,0.0,0.0,0.0,0.0,0.0,0.0,0.0,0.0,0.0,0.0,0.0,0.0,0.0,0.0,0.0,0.0,0.0,0.0,0.0,0.0,0.0,0.0,0.0,0.0,0.0,0.0,0.0,0.0,0.0,0.0,0.0,0.0,0.0,0.0,0.0,0.0,0.0,0.0,0.0,0.0,0.0,0.0,0.0,0.0,0.0,0.0,0.0,0.0,0.0,0.0,0.0,0.0,0.0,0.0,0.0,0.0,0.0,0.0,0.0,0.0,0.0,0.0,0.0,0.0,0.0,0.0,0.0,0.0,0.0,0.0,0.0,0.0,0.0,0.0,0.0,0.0,0.0,0.0,0.0,0.0,0.0,0.0,0.0,0.0,0.0,0.0,0.0,0.0,0.0,0.0,0.0,0.0,0.0,0.0,0.0,0.0,0.0,0.0,0.0,0.0,0.0,0.0,0.0,0.0,0.0,0.0,0.0,0.0,0.0,0.0,0.0,0.0,0.0,0.0,0.0,0.0,0.0,0.0,0.0,0.0,0.0,0.0,0.0,0.0,0.0,0.0,0.0,0.0,0.0,0.0,0.0,0.0,0.0,0.0,0.0,0.0,0.0,0.0,0.0,0.0,0.0,0.0,0.0,0.0,0.0,0.0,0.0,0.0,0.0,0.0,0.0,0.0,0.0,0.0,0.0,0.0,0.0,0.0,0.0,0.0,0.0,0.0,0.0,0.0,0.0,0.0,0.0,0.0,0.0,0.0,0.0,0.0,0.0,0.0,0.0,0.0,0.0,0.0,0.0,0.0,0.0,0.0,0.0,0.0,0.0,0.0,0.0,0.0,0.0,0.0,0.0,0.0,0.0,0.0,0.0,0.0,0.0,0.0,0.0,0.0,0.0,0.0,0.0,0.0,0.0,0.0,0.0,0.0,0.0,0.0,0.0,0.0,0.0,0.0,0.0,0.0,0.0,0.0,0.0,0.0,0.0,0.0,0.0,0.0,0.0,0.0,0.0,0.0,0.0,0.0,0.0,0.0,0.0,0.0,0.0,0.0,0.0,0.0,0.0,0.0,0.0,0.0,0.0,0.0,0.0,0.0,0.0,0.0,0.0,0.0,0.0,0.0,0.0,0.0,0.0,0.0,0.0,0.0,0.0,0.0,0.0,0.0,0.0,0.0,0.0,0.0,0.0,0.0,0.0,0.0,0.0,0.0,0.0,0.0,0.0,0.0,0.0,0.0,0.0,0.0,0.0,0.0,0.0,0.0,0.0,0.0,0.0,0.0,0.0,0.0,0.0,0.0,0.0,0.0,0.0,0.0,0.0,0.0,0.0,0.0,0.0,0.0,0.0,0.0,0.0,0.0,0.0,0.0,0.0,0.0,0.0,0.0,0.0,0.0,0.0,0.0,0.0,0.0,0.0,0.0,0.0,0.0,0.0,0.0,0.0,0.0,0.0,0.0,0.0,0.0,0.0,0.0,0.0,0.0,0.0,0.0,0.0,0.0,0.0,0.0,0.0,0.0,0.0,0.0,0.0,0.0,0.0,0.0,0.0,0.0,0.0,0.0,0.0,0.0,0.0,0.0,0.0,0.0,0.0,0.0,0.0,0.0,0.0,0.0,0.0,0.0,0.0,0.0,0.0,0.0,0.0,0.0,0.0,0.0,0.0,0.0,0.0,0.0,0.0,0.0,0.0,0.0,0.0,0.0,0.0,0.0,0.0,0.0,0.0,0.0,0.0,0.0,0.0,0.0,0.0,0.0,0.0,0.0,0.0,0.0,0.0,0.0,0.0,0.0,0.0,0.0,0.0,0.0,0.0,0.0,0.0,0.0,0.0,0.0,0.0,0.0,0.0,0.0,0.0,0.0,0.0,0.0,0.0,0.0,0.0,0.0,0.0,0.0,0.0,0.0,0.0,0.0,0.0,0.0,0.0,0.0,0.0,0.0,0.0,0.0,0.0,0.0,0.0,0.0,0.0,0.0,0.0,0.0,0.0,0.0,0.0,0.0,0.0,0.0,0.0,0.0,0.0,0.0,0.0,0.0,0.0,0.0,0.0,0.0,0.0,0.0,0.0,0.0,0.0,0.0,0.0,0.0,0.0,0.0,0.0,0.0,0.0,0.0,0.0,0.0,0.0,0.0,0.0,0.0,0.0,0.0,0.0,0.0,0.0,0.0,0.0,0.0,0.0,0.0,0.0,0.0,0.0,0.0,0.0,0.0,0.0,0.0,0.0,0.0,0.0,0.0,0.0,0.0,0.0,0.0,0.0,0.0,0.0,0.0,0.0,0.0,0.0,0.0,0.0,0.0,0.0,0.0,0.0,0.0,0.0,0.0,0.0,0.0,0.0,0.0,0.0,0.0,0.0,0.0,0.0,0.0,0.0,0.0,0.0,0.0,0.0,0.0,0.0,0.0,0.0,0.0,0.0,0.0,0.0,0.0,0.0,0.0,0.0,0.0,0.0,0.0,0.0,0.0,0.0,0.0,0.0,0.0,0.0,0.0,0.0,0.0,0.0,0.0,0.0,0.0,0.0,0.0,0.0,0.0,0.0,0.0,0.0,0.0,0.0,0.0,0.0,0.0,0.0,0.0,0.0,0.0,0.0,0.0,0.0,0.0,0.0,0.0,0.0,0.0,0.0,0.0,0.0,0.0,0.0,0.0,0.0,0.0,0.0,0.0,0.0,0.0,0.0,0.0,0.0,0.0,0.0,0.0,0.0,0.0,0.0,0.0,0.0,0.0,0.0,0.0,0.0,0.0,0.0,0.0,0.0,0.0,0.0,0.0,0.0,0.0,0.0,0.0,0.0,0.0,0.0,0.0,0.0,0.0,0.0,0.0,0.0,0.0,0.0,0.0,0.0,0.0,0.0,0.0,0.0,0.0,0.0,0.0,0.0,0.0,0.0,0.0,0.0,0.0,0.0,0.0,0.0,0.0,0.0,0.0,0.0,0.0,0.0,0.0,0.0,0.0,0.0,0.0,0.0,0.0,0.0,0.0,0.0,0.0,0.0,0.0,0.0,0.0,0.0,0.0,0.0,0.0,0.0,0.0,0.0,0.0,0.0,0.0,0.0,0.0,0.0,0.0,0.0,0.0,0.0,0.0,0.0,0.0,0.0,0.0,0.0,0.0,0.0,0.0,0.0,0.0,0.0,0.0,0.0,0.0,0.0,0.0,0.0,0.0,0.0,0.0,0.0,0.0,0.0,0.0,0.0,0.0,0.0,0.0,0.0,0.0,0.0,0.0,0.0,0.0,0.0,0.0,0.0,0.0,0.0,0.0,0.0,0.0,0.0,0.0,0.0,0.0,0.0,0.0,0.0,0.0,0.0,0.0,0.0,0.0,0.0,0.0,0.0,0.0,0.0,0.0,0.0,0.0,0.0,0.0,0.0,0.0,0.0,0.0,0.0,0.0,0.0,0.0,0.0,0.0,0.0,0.0,0.0,0.0,0.0,0.0,0.0,0.0,0.0,0.0,0.0,0.0,0.0,0.0,0.0,0.0,0.0,0.0,0.0,0.0,0.0,0.0,0.0,0.0,0.0,0.0,0.0,0.0,0.0,0.0,0.0,0.0,0.0,0.0,0.0,0.0,0.0,0.0,0.0,0.0,0.0,0.0,0.0,0.0,0.0,0.0,0.0,0.0,0.0,0.0,0.0,0.0,0.0,0.0,0.0,0.0,0.0,0.0,0.0,0.0,0.0,0.0,0.0,0.0,0.0,0.0,0.0,0.0,0.0,0.0,0.0,0.0,0.0,0.0,0.0,0.0,0.0,0.0,0.0,0.0,0.0,0.0,0.0,0.0,0.0,0.0,0.0,0.0,0.0,0.0,0.0,0.0,0.0,0.0,0.0,0.0,0.0,0.0,0.0,0.0,0.0,0.0,0.0,0.0,0.0,0.0,0.0,0.0,0.0,0.0,0.0,0.0,0.0,0.0,0.0,0.0,0.0,0.0,0.0,0.0,0.0,0.0,0.0,0.0,0.0,0.0,0.0,0.0,0.0,0.0,0.0,0.0,0.0,0.0,0.0,0.0,0.0,0.0,0.0,0.0,0.0,0.0,0.0,0.0,0.0,0.0,0.0,0.0,0.0,0.0,0.0,0.0,0.0,0.0,0.0,0.0,0.0,0.0,0.0,0.0,0.0,0.0,-3.4926,0.0,0.0,0.0,0.0,0.0,0.0,0.0,0.0,0.0,0.0,0.0,0.0,0.0,0.0,0.0,0.0,0.0,0.0,0.0,0.0,0.0,0.0,0.0,0.0,0.0,0.0,0.0,0.0,0.0,0.0,0.0,0.0,0.0,0.0,0.0,0.0,0.0,0.0,0.0,0.0,0.0,0.0,0.0,0.0,0.0,0.0,0.0,0.0,0.0,0.0,0.0,0.0,0.0,0.0,0.0,0.0,0.0,0.0,0.0,0.0,0.0,0.0,0.0,0.0,0.0,0.0,0.0,0.0,0.0,0.0,0.0,0.0,0.0,0.0,0.0,0.0,0.0,0.0,0.0,0.0,0.0,0.0,0.0,0.0,0.0,0.0,0.0,0.0,0.0,0.0,0.0,0.0,0.0,0.0,0.0,0.0,0.0,0.0,0.0,0.0,0.0,0.0,0.0,0.0,0.0,0.0,0.0,0.0,0.0,0.0,-3.5615,-3.5073,-3.5035,-3.4982,-3.4791,0.0,0.0,0.0,0.0,0.0,0.0,0.0,0.0,0.0,0.0,0.0,0.0,0.0,0.0,0.0,0.0,0.0,0.0,0.0,0.0,0.0,0.0,0.0,0.0,0.0,0.0,0.0,0.0,0.0,0.0,0.0,0.0,0.0,0.0,0.0,0.0,0.0,0.0,0.0,0.0,0.0,0.0,0.0,0.0,0.0,0.0,0.0,0.0,0.0,0.0,0.0,0.0,0.0,0.0,0.0,0.0,0.0,0.0,0.0,0.0,0.0,0.0,0.0,0.0,0.0,0.0,0.0,0.0,0.0,0.0,0.0,0.0,0.0,0.0,0.0,0.0,0.0,0.0,0.0,0.0,0.0,0.0,0.0,0.0,0.0,0.0,0.0,0.0,0.0,0.0,0.0,0.0,0.0,0.0,0.0,0.0,0.0,0.0,0.0,0.0,0.0,0.0,0.0,0.0,0.0,0.0,0.0,0.0,0.0,0.0,0.0,0.0,-3.4742,-3.4751,-3.4427,0.0,0.0,0.0,0.0,0.0,0.0,0.0,0.0,0.0,0.0,0.0,0.0,0.0,0.0,0.0,0.0,0.0,0.0,0.0,0.0,0.0,0.0,0.0,0.0,0.0,0.0,0.0,0.0,0.0,0.0,0.0,0.0,0.0,0.0,0.0,0.0,0.0,0.0,0.0,0.0,0.0,0.0,0.0,0.0,0.0,0.0,0.0,0.0,0.0,0.0,0.0,0.0,0.0,0.0,0.0,0.0,0.0,0.0,0.0,0.0,0.0,0.0,0.0,0.0,0.0,0.0,0.0,0.0,0.0,0.0,0.0,0.0,0.0,0.0,0.0,0.0,0.0,0.0,0.0,0.0,0.0,0.0,0.0,0.0,0.0,0.0,0.0,0.0,0.0,0.0,0.0,0.0,0.0,0.0,0.0,0.0,0.0,0.0,0.0,0.0,0.0,0.0,0.0,0.0,0.0,0.0,0.0,0.0,0.0,0.0,-3.4423,-3.3133,-3.3689,0.0,-3.3677,0.0,0.0,0.0,0.0,0.0,0.0,0.0,0.0,0.0,0.0,0.0,0.0,0.0,0.0,0.0,0.0,0.0,0.0,0.0,0.0,0.0,0.0,0.0,0.0,0.0,0.0,0.0,0.0,0.0,0.0,0.0,0.0,0.0,0.0,0.0,0.0,0.0,0.0,0.0,0.0,0.0,0.0,0.0,0.0,0.0,0.0,0.0,0.0,0.0,0.0,0.0,0.0,0.0,0.0,0.0,0.0,0.0,0.0,0.0,0.0,0.0,0.0,0.0,0.0,0.0,0.0,0.0,0.0,0.0,0.0,0.0,0.0,0.0,0.0,0.0,0.0,0.0,0.0,0.0,0.0,0.0,0.0,0.0,0.0,0.0,0.0,0.0,0.0,0.0,0.0,0.0,0.0,0.0,0.0,0.0,0.0,0.0,0.0,0.0,0.0,0.0,0.0,0.0,0.0,0.0,0.0,0.0,0.0,0.0,0.0,-3.4218,-3.3459,-3.308,-3.2826,0.0,0.0,0.0,0.0,0.0,0.0,0.0,0.0,0.0,0.0,0.0,0.0,0.0,0.0,0.0,0.0,0.0,0.0,0.0,0.0,0.0,0.0,0.0,0.0,0.0,0.0,0.0,0.0,0.0,0.0,0.0,0.0,0.0,0.0,0.0,0.0,0.0,0.0,0.0,0.0,0.0,0.0,0.0,0.0,0.0,0.0,0.0,0.0,0.0,0.0,0.0,0.0,0.0,0.0,0.0,0.0,0.0,0.0,0.0,0.0,0.0,0.0,0.0,0.0,0.0,0.0,0.0,0.0,0.0,0.0,0.0,0.0,0.0,0.0,0.0,0.0,0.0,0.0,0.0,0.0,0.0,0.0,0.0,0.0,0.0,0.0,0.0,0.0,0.0,0.0,0.0,0.0,0.0,0.0,0.0,0.0,0.0,0.0,0.0,0.0,0.0,0.0,0.0,0.0,0.0,0.0,0.0,0.0,0.0,0.0,-3.4125,-3.3724,-3.323,-3.221,-3.1731,-3.1883,0.0,0.0,0.0,0.0,0.0,0.0,0.0,0.0,0.0,0.0,0.0,0.0,0.0,0.0,0.0,0.0,0.0,0.0,0.0,0.0,0.0,0.0,0.0,0.0,0.0,0.0,0.0,0.0,0.0,0.0,0.0,0.0,0.0,0.0,0.0,0.0,0.0,0.0,0.0,0.0,0.0,0.0,0.0,0.0,0.0,0.0,0.0,0.0,0.0,0.0,0.0,0.0,0.0,0.0,0.0,0.0,0.0,0.0,0.0,0.0,0.0,0.0,0.0,0.0,0.0,0.0,0.0,0.0,0.0,0.0,0.0,0.0,0.0,0.0,0.0,0.0,0.0,0.0,0.0,0.0,0.0,0.0,0.0,0.0,0.0,0.0,0.0,0.0,0.0,0.0,0.0,0.0,0.0,0.0,0.0,0.0,0.0,0.0,0.0,0.0,0.0,0.0,0.0,0.0,0.0,0.0,0.0,0.0,-3.2094,-3.2564,-3.2545,-3.1904,-3.0855,-3.0562,0.0,0.0,0.0,0.0,0.0,0.0,0.0,0.0,0.0,0.0,0.0,0.0,0.0,0.0,0.0,0.0,0.0,0.0,0.0,0.0,0.0,0.0,0.0,0.0,0.0,0.0,0.0,0.0,0.0,0.0,0.0,0.0,0.0,0.0,0.0,0.0,0.0,0.0,0.0,0.0,0.0,0.0,0.0,0.0,0.0,0.0,0.0,0.0,0.0,0.0,0.0,0.0,0.0,0.0,0.0,0.0,0.0,0.0,0.0,0.0,0.0,0.0,0.0,0.0,0.0,0.0,0.0,0.0,0.0,0.0,0.0,0.0,0.0,0.0,0.0,0.0,0.0,0.0,0.0,0.0,0.0,0.0,0.0,0.0,0.0,0.0,0.0,0.0,0.0,0.0,0.0,0.0,0.0,0.0,0.0,0.0,0.0,0.0,0.0,0.0,0.0,0.0,0.0,0.0,0.0,0.0,0.0,0.0,0.0,-3.2574,-3.2254,-3.1691,-3.0929,-3.042,-3.02,0.0,0.0,0.0,0.0,0.0,0.0,0.0,0.0,0.0,0.0,0.0,0.0,0.0,0.0,0.0,0.0,0.0,0.0,0.0,0.0,0.0,0.0,0.0,0.0,0.0,0.0,0.0,0.0,0.0,0.0,0.0,0.0,0.0,0.0,0.0,0.0,0.0,0.0,0.0,0.0,0.0,0.0,0.0,0.0,0.0,0.0,0.0,0.0,0.0,0.0,0.0,0.0,0.0,0.0,0.0,0.0,0.0,0.0,0.0,0.0,0.0,0.0,0.0,0.0,0.0,0.0,0.0,0.0,0.0,0.0,0.0,0.0,0.0,0.0,0.0,0.0,0.0,0.0,0.0,0.0,0.0,0.0,0.0,0.0,0.0,0.0,0.0,0.0,0.0,0.0,0.0,0.0,0.0,0.0,0.0,0.0,0.0,0.0,0.0,0.0,0.0,0.0,0.0,0.0,0.0,0.0,0.0,0.0,0.0,-3.2154,0.0,-3.0991,-3.0433,-3.0209,-3.0037,0.0,0.0,0.0,0.0,0.0,0.0,0.0,0.0,0.0,0.0,0.0,0.0,0.0,0.0,0.0,0.0,0.0,0.0,0.0,0.0,0.0,0.0,0.0,0.0,0.0,0.0,0.0,0.0,0.0,0.0,0.0,0.0,0.0,0.0,0.0,0.0,0.0,0.0,0.0,0.0,0.0,0.0,0.0,0.0,0.0,0.0,0.0,0.0,0.0,0.0,0.0,0.0,0.0,0.0,0.0,0.0,0.0,0.0,0.0,0.0,0.0,0.0,0.0,0.0,0.0,0.0,0.0,0.0,0.0,0.0,0.0,0.0,0.0,0.0,0.0,0.0,0.0,0.0,0.0,0.0,0.0,0.0,0.0,0.0,0.0,0.0,0.0,0.0,0.0,0.0,0.0,0.0,0.0,0.0,0.0,0.0,0.0,0.0,0.0,0.0,0.0,0.0,0.0,0.0,0.0,0.0,0.0,0.0,-3.1291,-3.0467,-3.0436,-3.0429,-3.0398,-3.0228,-3.0003,0.0,0.0,0.0,0.0,0.0,0.0,0.0,0.0,0.0,0.0,0.0,0.0,0.0,0.0,0.0,0.0,0.0,0.0,0.0,0.0,0.0,0.0,0.0,0.0,0.0,0.0,0.0,0.0,0.0,0.0,0.0,0.0,0.0,0.0,0.0,0.0,0.0,0.0,0.0,0.0,0.0,0.0,0.0,0.0,0.0,0.0,0.0,0.0,0.0,0.0,0.0,0.0,0.0,0.0,0.0,0.0,0.0,0.0,0.0,0.0,0.0,0.0,0.0,0.0,0.0,0.0,0.0,0.0,0.0,0.0,0.0,0.0,0.0,0.0,0.0,0.0,0.0,0.0,0.0,0.0,0.0,0.0,0.0,0.0,0.0,0.0,0.0,0.0,0.0,0.0,0.0,0.0,0.0,0.0,0.0,0.0,0.0,0.0,0.0,0.0,0.0,0.0,0.0,0.0,0.0,0.0,0.0,0.0,0.0,-3.0417,-3.0398,-3.0398,-3.0398,-3.0323,-3.0174,0.0,0.0,0.0,0.0,0.0,0.0,0.0,0.0,0.0,0.0,0.0,0.0,0.0,0.0,0.0,0.0,0.0,0.0,0.0,0.0,0.0,0.0,0.0,0.0,0.0,0.0,0.0,0.0,0.0,0.0,0.0,0.0,0.0,0.0,0.0,0.0,0.0,0.0,0.0,0.0,0.0,0.0,0.0,0.0,0.0,0.0,0.0,0.0,0.0,0.0,0.0,0.0,0.0,0.0,0.0,0.0,0.0,0.0,0.0,0.0,0.0,0.0,0.0,0.0,0.0,0.0,0.0,0.0,0.0,0.0,0.0,0.0,0.0,0.0,0.0,0.0,0.0,0.0,0.0,0.0,0.0,0.0,0.0,0.0,0.0,0.0,0.0,0.0,0.0,0.0,0.0,0.0,0.0,0.0,0.0,0.0,0.0,0.0,0.0,0.0,0.0,0.0,0.0,0.0,0.0,0.0,0.0,0.0,0.0,-3.1333,-3.1333,-3.1333,-3.1333,-3.134,-3.0852,-2.9872,0.0,0.0,0.0,0.0,0.0,0.0,0.0,0.0,0.0,0.0,0.0,0.0,0.0,0.0,0.0,0.0,0.0,0.0,0.0,0.0,0.0,0.0,0.0,0.0,0.0,0.0,0.0,0.0,0.0,0.0,0.0,0.0,0.0,0.0,0.0,0.0,0.0,0.0,0.0,0.0,0.0,0.0,0.0,0.0,0.0,0.0,0.0,0.0,0.0,0.0,0.0,0.0,0.0,0.0,0.0,0.0,0.0,0.0,0.0,0.0,0.0,0.0,0.0,0.0,0.0,0.0,0.0,0.0,0.0,0.0,0.0,0.0,0.0,0.0,0.0,0.0,0.0,0.0,0.0,0.0,0.0,0.0,0.0,0.0,0.0,0.0,0.0,0.0,0.0,0.0,0.0,0.0,0.0,0.0,0.0,0.0,0.0,0.0,0.0,0.0,0.0,0.0,0.0,0.0,0.0,0.0,0.0,0.0,-3.3045,-3.3141,-3.3141,-3.3045,-3.2929,-3.1938,0.0,0.0,0.0,0.0,0.0,0.0,0.0,0.0,0.0,0.0,0.0,0.0,0.0,0.0,0.0,0.0,0.0,0.0,0.0,0.0,0.0,0.0,0.0,0.0,0.0,0.0,0.0,0.0,0.0,0.0,0.0,0.0,0.0,0.0,0.0,0.0,0.0,0.0,0.0,0.0,0.0,0.0,0.0,0.0,0.0,0.0,0.0,0.0,0.0,0.0,0.0,0.0,0.0,0.0,0.0,0.0,0.0,0.0,0.0,0.0,0.0,0.0,0.0,0.0,0.0,0.0,0.0,0.0,0.0,0.0,0.0,0.0,0.0,0.0,0.0,0.0,0.0,0.0,0.0,0.0,0.0,0.0,0.0,0.0,0.0,0.0,0.0,0.0,0.0,0.0,0.0,0.0,0.0,0.0,0.0,0.0,0.0,0.0,0.0,0.0,0.0,0.0,0.0,0.0,0.0,0.0,0.0,0.0,0.0,-3.4814,-3.6026,-3.6051,-3.4793,-3.3538,-3.2503,0.0,0.0,0.0,0.0,0.0,0.0,0.0,0.0,0.0,0.0,0.0,0.0,0.0,0.0,0.0,0.0,0.0,0.0,0.0,0.0,0.0,0.0,0.0,0.0,0.0,0.0,0.0,0.0,0.0,0.0,0.0,0.0,0.0,0.0,0.0,0.0,0.0,0.0,0.0,0.0,0.0,0.0,0.0,0.0,0.0,0.0,0.0,0.0,0.0,0.0,0.0,0.0,0.0,0.0,0.0,0.0,0.0,0.0,0.0,0.0,0.0,0.0,0.0,0.0,0.0,0.0,0.0,0.0,0.0,0.0,0.0,0.0,0.0,0.0,0.0,0.0,0.0,0.0,0.0,0.0,0.0,0.0,0.0,0.0,0.0,0.0,0.0,0.0,0.0,0.0,0.0,0.0,0.0,0.0,0.0,0.0,0.0,0.0,0.0,0.0,0.0,0.0,0.0,0.0,0.0,0.0,0.0,0.0,-3.4661,-3.6007,-3.7993,-3.8558,-3.7533,-3.5124,-3.3325,0.0,0.0,0.0,0.0,0.0,0.0,0.0,0.0,0.0,0.0,0.0,0.0,0.0,0.0,0.0,0.0,0.0,0.0,0.0,0.0,0.0,0.0,0.0,0.0,0.0,0.0,0.0,0.0,0.0,0.0,0.0,0.0,0.0,0.0,0.0,0.0,0.0,0.0,0.0,0.0,0.0,0.0,0.0,0.0,0.0,0.0,0.0,0.0,0.0,0.0,0.0,0.0,0.0,0.0,0.0,0.0,0.0,0.0,0.0,0.0,0.0,0.0,0.0,0.0,0.0,0.0,0.0,0.0,0.0,0.0,0.0,0.0,0.0,0.0,0.0,0.0,0.0,0.0,0.0,0.0,0.0,0.0,0.0,0.0,0.0,0.0,0.0,0.0,0.0,0.0,0.0,0.0,0.0,0.0,0.0,0.0,0.0,0.0,0.0,0.0,0.0,0.0,0.0,0.0,0.0,0.0,0.0,0.0,-3.6012,-3.682,-3.9231,-4.0468,-4.0302,-3.6948,-3.426,0.0,0.0,0.0,0.0,0.0,0.0,0.0,0.0,0.0,0.0,0.0,0.0,0.0,0.0,0.0,0.0,0.0,0.0,0.0,0.0,0.0,0.0,0.0,0.0,0.0,0.0,0.0,0.0,0.0,0.0,0.0,0.0,0.0,0.0,0.0,0.0,0.0,0.0,0.0,0.0,0.0,0.0,0.0,0.0,0.0,0.0,0.0,0.0,0.0,0.0,0.0,0.0,0.0,0.0,0.0,0.0,0.0,0.0,0.0,0.0,0.0,0.0,0.0,0.0,0.0,0.0,0.0,0.0,0.0,0.0,0.0,0.0,0.0,0.0,0.0,0.0,0.0,0.0,0.0,0.0,0.0,0.0,0.0,0.0,0.0,0.0,0.0,0.0,0.0,0.0,0.0,0.0,0.0,0.0,0.0,0.0,0.0,0.0,0.0,0.0,0.0,0.0,0.0,0.0,0.0,0.0,0.0,0.0,-3.6799,-3.764,-3.9471,-4.0398,-4.0306,-3.6875,-3.4736,0.0,0.0,0.0,0.0,0.0,0.0,0.0,0.0,0.0,0.0,0.0,0.0,0.0,0.0,0.0,0.0,0.0,0.0,0.0,0.0,0.0,0.0,0.0,0.0,0.0,0.0,0.0,0.0,0.0,0.0,0.0,0.0,0.0,0.0,0.0,0.0,0.0,0.0,0.0,0.0,0.0,0.0,0.0,0.0,0.0,0.0,0.0,0.0,-3.4096,0.0,0.0,0.0,0.0,0.0,0.0,0.0,0.0,0.0,0.0,0.0,0.0,0.0,0.0,0.0,0.0,0.0,0.0,0.0,0.0,0.0,0.0,0.0,0.0,0.0,0.0,0.0,0.0,0.0,0.0,0.0,0.0,0.0,0.0,0.0,0.0,0.0,0.0,0.0,0.0,0.0,0.0,0.0,0.0,0.0,0.0,0.0,0.0,0.0,0.0,0.0,0.0,0.0,0.0,0.0,0.0,0.0,0.0,0.0,-3.7437,-3.9013,-3.9774,-4.0349,-4.0577,-3.754,-3.5445,0.0,0.0,0.0,0.0,0.0,0.0,0.0,0.0,0.0,0.0,0.0,0.0,0.0,0.0,0.0,0.0,0.0,0.0,0.0,0.0,0.0,0.0,0.0,0.0,0.0,0.0,0.0,0.0,0.0,0.0,0.0,0.0,0.0,0.0,0.0,0.0,0.0,0.0,0.0,0.0,0.0,0.0,0.0,0.0,0.0,0.0,0.0,0.0,0.0,0.0,0.0,0.0,0.0,0.0,0.0,0.0,0.0,0.0,0.0,0.0,0.0,0.0,0.0,0.0,0.0,0.0,0.0,0.0,0.0,0.0,0.0,0.0,0.0,0.0,0.0,0.0,0.0,0.0,0.0,0.0,0.0,0.0,0.0,0.0,0.0,0.0,0.0,0.0,0.0,0.0,0.0,0.0,0.0,0.0,0.0,0.0,0.0,0.0,0.0,0.0,0.0,0.0,0.0,0.0,0.0,0.0,0.0,-3.5859,-3.7939,-4.0436,-4.0177,-4.0359,-4.1114,-3.8319,-3.6048,-3.4564,0.0,0.0,0.0,0.0,0.0,0.0,0.0,0.0,0.0,0.0,0.0,0.0,0.0,0.0,0.0,0.0,0.0,0.0,0.0,0.0,0.0,0.0,0.0,0.0,0.0,0.0,0.0,0.0,0.0,0.0,0.0,0.0,0.0,0.0,0.0,0.0,0.0,0.0,-3.1162,-3.0231,0.0,0.0,0.0,0.0,0.0,0.0,0.0,0.0,-3.4099,0.0,0.0,0.0,0.0,0.0,0.0,0.0,0.0,0.0,0.0,0.0,0.0,0.0,0.0,0.0,0.0,0.0,0.0,0.0,0.0,0.0,0.0,0.0,0.0,0.0,0.0,0.0,0.0,0.0,0.0,0.0,0.0,0.0,0.0,0.0,0.0,0.0,0.0,0.0,0.0,0.0,0.0,0.0,0.0,0.0,0.0,0.0,0.0,0.0,0.0,0.0,0.0,0.0,0.0,0.0,0.0,-3.5149,-3.6086,-3.8104,-4.1283,-4.0635,-4.0519,-4.1013,-3.8422,-3.611,-3.4298,0.0,0.0,0.0,0.0,0.0,0.0,0.0,0.0,0.0,0.0,0.0,0.0,0.0,0.0,0.0,0.0,0.0,0.0,0.0,0.0,0.0,0.0,0.0,0.0,0.0,0.0,0.0,0.0,0.0,0.0,0.0,0.0,0.0,0.0,0.0,0.0,0.0,0.0,0.0,-3.1015,-3.0507,0.0,0.0,0.0,0.0,0.0,0.0,0.0,0.0,-3.5445,0.0,0.0,0.0,0.0,0.0,0.0,0.0,0.0,0.0,0.0,0.0,0.0,0.0,0.0,0.0,0.0,0.0,0.0,0.0,0.0,0.0,0.0,0.0,0.0,0.0,0.0,0.0,0.0,0.0,0.0,0.0,0.0,0.0,0.0,0.0,0.0,0.0,0.0,0.0,0.0,0.0,0.0,0.0,0.0,0.0,0.0,0.0,0.0,0.0,0.0,0.0,0.0,0.0,0.0,0.0,-3.5315,-3.6854,-3.9128,-4.2049,-4.0805,-4.0583,-4.1453,-3.8501,-3.5957,0.0,0.0,0.0,0.0,0.0,0.0,0.0,0.0,0.0,0.0,0.0,0.0,0.0,0.0,0.0,0.0,0.0,0.0,0.0,0.0,0.0,0.0,0.0,0.0,0.0,0.0,0.0,0.0,0.0,0.0,0.0,0.0,0.0,0.0,0.0,0.0,0.0,0.0,0.0,0.0,-3.1949,-3.1835,-3.4392,0.0,0.0,0.0,0.0,0.0,0.0,-3.4711,-3.469,0.0,0.0,0.0,0.0,0.0,0.0,0.0,0.0,0.0,0.0,0.0,0.0,0.0,0.0,0.0,0.0,0.0,0.0,0.0,0.0,0.0,0.0,0.0,0.0,0.0,0.0,0.0,0.0,0.0,0.0,0.0,0.0,0.0,0.0,0.0,0.0,0.0,0.0,0.0,0.0,0.0,0.0,0.0,0.0,0.0,0.0,0.0,0.0,0.0,0.0,0.0,0.0,0.0,0.0,0.0,-3.5245,-3.73,-3.9652,-4.2155,-4.0713,-4.041,-4.1541,-3.8107,-3.5432,0.0,0.0,0.0,0.0,0.0,0.0,0.0,0.0,0.0,0.0,0.0,0.0,0.0,0.0,0.0,0.0,0.0,0.0,0.0,0.0,0.0,0.0,0.0,0.0,0.0,0.0,0.0,0.0,0.0,0.0,0.0,0.0,0.0,0.0,0.0,0.0,0.0,0.0,0.0,0.0,0.0,-3.3042,-3.5601,-3.3763,0.0,0.0,0.0,0.0,-3.3784,-3.4004,0.0,0.0,0.0,0.0,0.0,0.0,0.0,0.0,0.0,0.0,0.0,0.0,0.0,0.0,0.0,0.0,0.0,0.0,0.0,0.0,0.0,0.0,0.0,0.0,0.0,0.0,0.0,0.0,0.0,0.0,0.0,0.0,0.0,0.0,0.0,0.0,0.0,0.0,0.0,0.0,0.0,0.0,0.0,0.0,0.0,0.0,0.0,0.0,0.0,0.0,0.0,0.0,0.0,0.0,0.0,0.0,-3.4926,-3.6432,-3.8413,-4.0747,-4.0045,-3.9858,-4.0412,-3.6614,-3.429,0.0,0.0,0.0,0.0,0.0,0.0,0.0,0.0,0.0,0.0,0.0,0.0,0.0,0.0,0.0,0.0,0.0,0.0,0.0,0.0,0.0,0.0,0.0,0.0,0.0,0.0,0.0,0.0,0.0,0.0,0.0,0.0,0.0,0.0,0.0,0.0,0.0,0.0,0.0,0.0,0.0,-3.3045,-3.5634,-3.3758,-3.2393,0.0,0.0,-3.5429,-3.5422,-3.6609,0.0,0.0,0.0,0.0,0.0,0.0,0.0,0.0,0.0,0.0,0.0,0.0,0.0,0.0,0.0,0.0,0.0,0.0,0.0,0.0,0.0,0.0,0.0,0.0,0.0,0.0,0.0,0.0,0.0,0.0,0.0,0.0,0.0,0.0,0.0,0.0,0.0,0.0,0.0,0.0,0.0,0.0,0.0,0.0,0.0,0.0,0.0,0.0,0.0,0.0,0.0,0.0,0.0,0.0,0.0,-3.3918,-3.4927,-3.7075,-3.8995,-4.0591,-3.9921,-3.975,-4.0262,-3.6347,-3.4068,0.0,0.0,0.0,0.0,0.0,0.0,0.0,0.0,0.0,0.0,0.0,0.0,0.0,0.0,0.0,0.0,0.0,0.0,0.0,0.0,0.0,0.0,0.0,0.0,0.0,0.0,0.0,0.0,0.0,0.0,0.0,0.0,0.0,0.0,0.0,0.0,0.0,0.0,0.0,0.0,0.0,0.0,-3.5789,-3.4967,0.0,0.0,0.0,-3.5546,-3.5084,0.0,0.0,0.0,0.0,0.0,0.0,0.0,0.0,0.0,0.0,0.0,0.0,0.0,0.0,0.0,0.0,0.0,0.0,0.0,0.0,0.0,0.0,0.0,0.0,0.0,0.0,0.0,0.0,0.0,0.0,0.0,0.0,0.0,0.0,0.0,0.0,0.0,0.0,0.0,0.0,0.0,0.0,0.0,0.0,0.0,0.0,0.0,0.0,0.0,0.0,0.0,0.0,0.0,0.0,0.0,0.0,0.0,-3.473,-3.7541,-3.938,-4.0139,-3.9597,-3.9471,-3.9814,-3.6533,0.0,0.0,0.0,0.0,0.0,0.0,0.0,0.0,0.0,0.0,0.0,0.0,0.0,0.0,0.0,0.0,0.0,0.0,0.0,0.0,0.0,0.0,0.0,0.0,0.0,0.0,0.0,-3.5565,0.0,0.0,0.0,0.0,0.0,0.0,0.0,0.0,0.0,0.0,0.0,0.0,0.0,0.0,-3.5882,-3.588,-3.609,-3.6592,0.0,0.0,-3.6251,-3.6056,-3.7834,-3.807,0.0,0.0,0.0,0.0,0.0,0.0,0.0,0.0,0.0,0.0,0.0,0.0,0.0,0.0,0.0,0.0,0.0,0.0,0.0,0.0,0.0,0.0,0.0,0.0,0.0,0.0,0.0,0.0,0.0,0.0,0.0,0.0,0.0,0.0,0.0,0.0,0.0,0.0,0.0,0.0,0.0,0.0,0.0,0.0,0.0,0.0,0.0,0.0,0.0,0.0,0.0,0.0,0.0,0.0,-3.4288,-3.4271,-3.7192,-3.8787,-3.8842,-3.8787,-3.8787,-3.8775,-3.7085,-3.5413,0.0,0.0,0.0,0.0,0.0,0.0,0.0,0.0,0.0,0.0,0.0,0.0,0.0,0.0,0.0,0.0,0.0,0.0,0.0,0.0,0.0,0.0,0.0,0.0,0.0,0.0,0.0,0.0,0.0,0.0,0.0,0.0,0.0,0.0,0.0,0.0,0.0,0.0,0.0,0.0,0.0,-3.5892,-3.5899,-3.6596,-3.7669,0.0,-3.8646,-3.8523,-3.9953,-4.16,-4.1316,-3.7123,0.0,0.0,0.0,0.0,0.0,0.0,0.0,0.0,0.0,0.0,0.0,0.0,0.0,0.0,0.0,0.0,0.0,0.0,0.0,0.0,0.0,0.0,0.0,0.0,0.0,0.0,0.0,0.0,0.0,0.0,0.0,0.0,0.0,0.0,0.0,0.0,0.0,0.0,0.0,0.0,0.0,0.0,0.0,0.0,0.0,0.0,0.0,0.0,0.0,0.0,0.0,0.0,0.0,-3.4062,-3.4124,-3.7135,-3.8707,-3.8707,-3.8707,-3.8707,-3.8707,-3.7147,-3.5428,0.0,0.0,0.0,0.0,0.0,0.0,0.0,0.0,0.0,0.0,0.0,0.0,0.0,0.0,0.0,0.0,0.0,0.0,0.0,0.0,0.0,0.0,0.0,0.0,0.0,0.0,0.0,0.0,-3.7203,-3.7151,-3.647,0.0,0.0,0.0,0.0,0.0,0.0,0.0,0.0,0.0,0.0,-3.7024,-3.8098,-3.8463,0.0,0.0,-4.0285,-3.9656,-3.9778,-4.0308,-3.9423,-3.571,-3.4699,0.0,0.0,0.0,0.0,0.0,0.0,0.0,0.0,0.0,0.0,0.0,0.0,0.0,0.0,0.0,0.0,0.0,0.0,0.0,0.0,0.0,0.0,0.0,0.0,0.0,0.0,0.0,0.0,0.0,0.0,0.0,0.0,0.0,0.0,0.0,0.0,0.0,0.0,0.0,0.0,0.0,0.0,0.0,0.0,0.0,0.0,0.0,0.0,0.0,0.0,0.0,0.0,-3.3947,-3.4023,-3.7106,-3.8707,-3.8707,-3.8707,-3.8707,-3.867,-3.7606,-3.6095,0.0,0.0,0.0,0.0,0.0,0.0,0.0,0.0,0.0,0.0,0.0,0.0,0.0,0.0,0.0,0.0,0.0,0.0,0.0,0.0,0.0,0.0,0.0,0.0,0.0,0.0,0.0,0.0,-3.7309,-3.7224,-3.6466,0.0,0.0,0.0,0.0,0.0,0.0,0.0,0.0,0.0,0.0,-3.8201,-3.9163,-3.9228,-3.9664,-4.1108,-4.0031,-3.9003,-3.8926,-3.9069,-3.8278,-3.5686,0.0,0.0,0.0,0.0,0.0,0.0,0.0,0.0,0.0,0.0,0.0,0.0,0.0,0.0,0.0,0.0,0.0,0.0,0.0,0.0,0.0,0.0,0.0,0.0,0.0,0.0,0.0,-3.0884,0.0,0.0,-3.1733,0.0,0.0,0.0,0.0,0.0,0.0,0.0,0.0,0.0,0.0,0.0,0.0,0.0,0.0,0.0,0.0,0.0,0.0,0.0,0.0,0.0,0.0,-3.3986,-3.3825,-3.7037,-3.8707,-3.8707,-3.8707,-3.8707,-3.8707,-3.8652,-3.7692,-3.5643,0.0,0.0,0.0,0.0,0.0,0.0,0.0,0.0,0.0,0.0,0.0,0.0,0.0,0.0,0.0,0.0,0.0,0.0,0.0,0.0,0.0,0.0,0.0,0.0,0.0,0.0,-3.5365,-3.6121,-3.6349,0.0,0.0,0.0,0.0,0.0,0.0,0.0,0.0,0.0,-3.4583,-3.7469,-3.9334,-3.8596,-3.846,-3.886,-3.9594,-3.751,-3.6337,-3.7891,-3.8689,-3.8879,0.0,0.0,0.0,0.0,0.0,0.0,0.0,0.0,0.0,0.0,0.0,0.0,0.0,0.0,0.0,0.0,0.0,0.0,0.0,0.0,0.0,0.0,0.0,0.0,0.0,0.0,0.0,-3.2713,-3.152,0.0,0.0,0.0,0.0,0.0,0.0,0.0,0.0,0.0,0.0,0.0,-3.5101,-3.5441,0.0,0.0,0.0,0.0,0.0,0.0,0.0,0.0,0.0,0.0,0.0,0.0,-3.3868,-3.3954,-3.7037,-3.8707,-3.8707,-3.8707,-3.8707,-3.8707,-3.8433,-3.7359,-3.5357,0.0,0.0,0.0,0.0,0.0,0.0,0.0,0.0,0.0,0.0,0.0,0.0,0.0,0.0,0.0,0.0,0.0,0.0,0.0,0.0,0.0,0.0,0.0,0.0,0.0,-3.5856,0.0,0.0,0.0,0.0,0.0,0.0,0.0,0.0,0.0,0.0,0.0,-3.5352,-3.7664,-3.789,-3.8567,-4.0516,-4.0688,-4.106,0.0,0.0,0.0,0.0,0.0,0.0,0.0,0.0,0.0,0.0,0.0,0.0,0.0,0.0,-3.5379,-3.345,-3.4143,-3.5078,-3.5146,0.0,0.0,0.0,0.0,0.0,0.0,0.0,0.0,0.0,0.0,0.0,0.0,0.0,0.0,-3.3636,0.0,-3.2495,0.0,0.0,0.0,0.0,0.0,0.0,0.0,0.0,-3.5096,-3.5831,-3.6707,-3.6707,-3.6707,0.0,-3.5569,-3.442,0.0,0.0,0.0,0.0,0.0,0.0,0.0,0.0,-3.3807,-3.3935,-3.7037,-3.8707,-3.8707,-3.8707,-3.8627,-3.8483,-3.7948,-3.7059,-3.5757,-3.3694,-3.2239,0.0,0.0,0.0,0.0,0.0,0.0,0.0,0.0,0.0,0.0,0.0,0.0,0.0,0.0,0.0,0.0,0.0,0.0,0.0,0.0,0.0,0.0,0.0,-3.5496,0.0,0.0,0.0,0.0,0.0,0.0,0.0,0.0,0.0,-3.6066,-3.6104,-3.6895,-3.9158,-3.9155,-3.956,-4.1137,0.0,0.0,0.0,0.0,0.0,0.0,0.0,-3.616,-3.6179,-3.5334,-3.527,-3.7165,-3.7964,-3.8173,-3.7721,0.0,0.0,-3.5777,-3.6415,-3.7395,-3.7452,-3.8129,-3.8546,-3.7974,-3.789,-3.7674,0.0,0.0,0.0,0.0,0.0,0.0,0.0,0.0,-3.5627,-3.4418,0.0,-3.3982,0.0,0.0,0.0,0.0,-3.1782,-3.3561,0.0,0.0,-3.7235,-3.7849,-3.7558,-3.7503,-3.7484,-3.7429,-3.5926,-3.554,-3.6211,-3.4724,0.0,0.0,0.0,0.0,0.0,0.0,-3.3862,-3.4009,-3.7074,-3.8707,-3.8676,-3.8707,-3.8515,-3.8068,-3.7321,-3.69,-3.679,-3.5127,-3.4128,-3.4007,-3.1265,0.0,0.0,0.0,0.0,0.0,0.0,0.0,0.0,0.0,0.0,0.0,0.0,0.0,0.0,0.0,0.0,0.0,0.0,0.0,0.0,-3.5055,0.0,0.0,0.0,0.0,0.0,0.0,0.0,0.0,0.0,0.0,-3.6762,-3.7978,-3.8961,-3.9054,0.0,0.0,0.0,0.0,-3.9884,-3.8351,-3.6646,-3.5637,-3.558,-3.6747,-3.8228,-3.989,0.0,0.0,-4.1667,-3.9414,-3.8077,-3.8762,-4.0056,-4.0059,-3.7389,-3.7441,-3.7749,-3.779,-3.8156,-3.8104,-3.8065,-3.841,-3.8003,-4.0272,0.0,0.0,0.0,0.0,-3.7991,-3.7728,-3.7661,-3.7562,-3.6377,-3.4488,-3.486,0.0,0.0,0.0,0.0,0.0,0.0,-3.4807,-3.6111,-3.6594,-3.7327,-3.8258,-3.7754,-3.779,-3.824,-3.7558,-3.7326,-3.7576,-3.7394,-3.5587,-3.2302,0.0,0.0,0.0,0.0,-3.4963,-3.5661,-3.7643,-3.8564,-3.8303,-3.8564,-3.835,-3.7685,-3.7152,-3.6741,-3.6492,-3.597,-3.518,-3.4128,-3.3248,0.0,0.0,0.0,0.0,0.0,0.0,0.0,0.0,0.0,0.0,0.0,0.0,0.0,0.0,0.0,0.0,0.0,0.0,0.0,-3.5493,-3.5473,-3.4943,0.0,0.0,0.0,0.0,0.0,0.0,0.0,0.0,0.0,-3.7946,-3.7553,-3.7951,0.0,0.0,-3.9353,-4.0213,-4.0654,-4.0745,-4.0307,-3.9414,0.0,-3.8709,-3.8153,-3.8056,-3.9202,-4.1285,-4.2507,-4.1667,-4.2153,-4.2688,-4.2725,-4.295,-4.2728,-4.1846,-4.1987,-4.2232,-4.2192,-4.2486,-4.2791,-4.2756,-4.2085,-4.1264,-4.2193,-4.1278,-3.9855,-3.9466,-3.9802,-3.9658,-3.9549,-3.942,-3.9355,-3.8117,-3.6078,-3.6274,-3.5066,-3.2861,-3.2929,0.0,0.0,0.0,-3.5473,-3.7033,-3.6996,-3.7747,-3.8946,-3.8289,-3.8164,-3.8556,-3.808,-3.7879,-3.7879,-3.7794,-3.6336,-3.3669,0.0,0.0,-3.2228,-3.4055,-3.5302,-3.5877,-3.7402,-3.8101,-3.7879,-3.7948,-3.7756,-3.7283,-3.686,-3.6557,-3.6284,-3.6284,-3.5887,-3.5007,-3.4404,-3.3248,0.0,0.0,0.0,0.0,0.0,0.0,0.0,0.0,0.0,0.0,0.0,-3.323,-3.3037,0.0,0.0,0.0,-3.4856,-3.4982,-3.5795,-3.5318,0.0,0.0,0.0,0.0,0.0,0.0,0.0,-3.5512,-3.7071,-3.8346,-3.8912,-3.8265,-3.8575,-4.0864,-4.0363,-4.0125,-4.092,0.0,-4.143,-4.115,-4.0501,-4.0015,-4.0015,-3.9527,-3.9395,-4.0214,-4.1483,-4.2427,-4.231,-4.3331,-4.407,-4.395,-4.3793,-4.3483,-4.2857,-4.3025,-4.3445,-4.3881,-4.4083,-4.4178,-4.4302,-4.3403,-4.2581,-4.4221,-4.3745,-4.0754,-3.9955,-4.0661,-4.0651,-4.0775,-4.1013,-4.0792,-3.9446,-3.74,-3.7905,-3.6347,-3.3339,-3.3609,0.0,-3.4323,-3.5349,-3.6646,-3.807,-3.807,-3.8619,-3.9651,-3.8815,-3.8442,-3.8478,-3.7806,-3.7451,-3.7433,-3.6774,-3.6007,-3.5241,-3.5544,-3.4966,-3.3581,-3.4625,-3.5224,-3.5295,-3.6792,-3.7505,-3.7505,-3.7094,-3.686,-3.69,-3.6516,-3.6301,-3.6284,-3.6284,-3.6284,-3.6249,-3.499,-3.4214,-3.4007,0.0,0.0,0.0,0.0,0.0,0.0,0.0,0.0,0.0,0.0,0.0,0.0,0.0,0.0,0.0,-3.5779,0.0,-3.6204,-3.5055,0.0,0.0,0.0,-3.4046,-3.551,-3.6541,-3.7399,-3.8022,0.0,0.0,-3.9577,-3.9602,-4.0196,-4.1792,-4.26,-4.2712,-4.195,-4.1902,-4.182,-4.0933,-4.0367,-3.9962,-3.9883,-4.0485,-4.1209,-4.1954,-4.214,-4.2239,-4.284,-4.2994,-4.3069,-4.3042,-4.3042,-4.2745,-4.1657,-4.156,-4.1932,-4.3404,-4.3341,-4.3149,-4.3359,-4.2768,-4.2085,-4.4048,-4.3931,-4.315,-4.2946,-4.3101,-4.2811,-4.2203,-4.1343,-4.0894,-3.984,-3.845,-3.8452,-3.7681,-3.6387,-3.6471,-3.6246,-3.5801,-3.6661,-3.7282,-3.7629,-3.7646,-3.8087,-3.8799,-3.7478,-3.7172,-3.7694,-3.7286,-3.7055,-3.7038,-3.718,-3.6827,-3.6114,-3.59,-3.5403,-3.472,-3.5578,-3.6346,-3.6898,-3.7309,-3.7505,-3.7505,-3.6821,-3.6597,-3.69,-3.6533,-3.6284,-3.6284,-3.6284,-3.6284,-3.6284,-3.5973,-3.5249,-3.4128,-3.2283,0.0,0.0,0.0,0.0,0.0,0.0,0.0,0.0,0.0,-3.2845,-3.2211,0.0,-3.3538,0.0,-3.5996,-3.6893,-3.7216,-3.74,0.0,0.0,-3.733,-3.7673,-3.7776,-3.8746,-3.9036,-3.8055,-3.8734,-3.9354,-3.9577,-3.962,-4.0178,-4.1755,-4.1116,-4.0465,-4.0413,-4.082,-4.0848,-4.0152,-4.0203,-4.0221,-3.9695,-4.0178,-4.0973,-4.1863,-4.1924,-4.2036,-4.2232,-4.2062,-4.1921,-4.1893,-4.1723,-4.1483,-4.1217,-4.1204,-4.1296,-4.1701,-4.1853,-4.2006,-4.2239,-4.1725,-4.1268,-4.4005,-4.4005,-4.4005,-4.4005,-4.3974,-4.3741,-4.3067,-4.2027,-4.1551,-4.0637,-3.9346,-3.8476,-3.787,-3.7517,-3.7111,-3.6715,-3.6335,-3.6749,-3.7146,-3.7473,-3.7491,-3.7887,-3.8525,-3.737,-3.706,-3.7482,-3.6915,-3.6638,-3.6638,-3.686,-3.6767,-3.6344,-3.6129,-3.5863,-3.5636,-3.5428,-3.5275,-3.5119,-3.568,-3.6292,-3.6904,-3.6533,-3.6098,-3.568,-3.5423,-3.499,-3.4318,-3.43,-3.4283,-3.43,-3.43,-3.3921,-3.3093,-3.1901,-3.0848,0.0,0.0,0.0,0.0,0.0,0.0,0.0,0.0,0.0,0.0,0.0,-3.4318,-3.569,-3.717,-3.8016,-3.7918,-3.8222,-3.8373,-3.83,-3.8872,-3.9276,-3.9389,-4.0052,-4.0179,-3.9335,-3.9767,-4.0048,-3.9852,-3.9805,-4.001,-4.0542,-3.9852,-3.9649,-4.0472,-4.0619,-4.0308,-3.9917,-3.9825,-3.9713,-3.9264,-3.9472,-3.9834,-4.0375,-4.043,-4.0455,-4.0855,-4.0829,-4.0757,-4.0726,-4.0638,-4.0432,-4.012,-3.9997,-3.9928,-3.996,-4.0037,-4.0355,-4.0952,-4.0528,-4.0121,-4.3689,-4.3689,-4.3708,-4.3708,-4.3677,-4.3704,-4.3286,-4.2627,-4.205,-4.1112,-3.9807,-3.8286,-3.7577,-3.7439,-3.6766,-3.6404,-3.6318,-3.6422,-3.6818,-3.7473,-3.7491,-3.7818,-3.8422,-3.768,-3.7335,-3.7301,-3.6628,-3.6284,-3.6284,-3.6284,-3.6249,-3.6163,-3.6146,-3.6101,-3.5901,-3.472,-3.3644,-3.2738,-3.3627,-3.4731,-3.5973,-3.5818,-3.5111,-3.3869,-3.3783,-3.3162,-3.1886,-3.18,-3.18,-3.18,-3.18,-3.1869,-3.2059,-3.1173,-3.0722,0.0,-3.0016,0.0,0.0,0.0,0.0,0.0,0.0,0.0,0.0,-3.3992,-3.5598,-3.7257,-3.8622,-3.9186,-3.8637,-3.8606,-3.8916,-3.9604,-3.9786,-4.0093,-4.0727,-4.0937,-4.0998,-4.0921,-4.1025,-4.0794,-4.0011,-3.9956,-3.966,-3.9161,-3.8947,-3.9375,-4.0773,-4.0426,-3.9893,-3.9937,-3.9353,-3.8929,-3.8847,-3.8707,-3.867,-3.8725,-3.8695,-3.8638,-3.9396,-3.9557,-3.9644,-3.9626,-3.9671,-3.9483,-3.8786,-3.8614,-3.8546,-3.8638,-3.8624,-3.8865,-3.963,-3.9441,-3.9082,-4.2054,-4.2054,-4.2054,-4.2054,-4.2062,-4.2124,-4.205,-4.1795,-4.0265,-3.9329,-3.8874,-3.8535,-3.8043,-3.7491,-3.7335,-3.6904,-3.6335,-3.6973,-3.7353,-3.7491,-3.7491,-3.756,-3.7629,-3.6887,-3.6508,-3.6525,-3.637,-3.6284,-3.6284,-3.6284,-3.599,-3.5421,-3.5404,-3.4943,-3.3992,0.0,0.0,0.0,-3.4599,-3.4214,-3.4438,-3.3283,-3.2524,-3.2248,-3.2231,0.0,-3.1817,-3.18,-3.18,-3.18,-3.18,0.0,0.0,0.0,0.0,0.0,0.0,0.0,0.0,0.0,0.0,0.0,-3.341,-3.3362,-3.3258,-3.4906,-3.6649,-3.8168,-3.8995,-3.9586,-4.0039,-4.0673,-4.1107,-4.127,-4.1832,-4.2303,-4.2411,-4.1887,-4.1378,-4.0964,-4.0372,-3.9785,-3.9239,-3.9113,-3.9076,-3.8899,-3.8713,-3.8713,-3.9087,-3.919,-3.915,-3.9113,-3.8805,-3.851,-3.8368,-3.8322,-3.8322,-3.8354,-3.8354,-3.8427,-3.862,-3.8656,-3.867,-3.8688,-3.8652,-3.8666,-3.8483,-3.8433,-3.8415,-3.8415,-3.8415,-3.8515,-3.8944,-3.8859,-3.8789,-4.159,-4.159,-4.159,-4.1464,0.0,-4.0732,-4.0437,-4.0182,-3.9065,-3.8547,-3.856,-3.8198,-3.7836,-3.7473,-3.7077,-3.668,-3.6318,-3.6732,-3.6887,-3.6887,-3.6887,-3.6904,-3.6887,-3.649,-3.6284,-3.6284,-3.6284,-3.6284,-3.6284,-3.6284,-3.6094,-3.5732,-3.5732,-3.5434,-3.4849,-3.5054,-3.537,-3.5749,-3.4663,-3.4456,-3.5111,-3.4421,-3.3662,-3.2972,-3.2921,0.0,0.0,0.0,0.0,0.0,0.0,0.0,0.0,-3.2312,0.0,-3.3008,-3.2621,-3.2717,-3.3471,-3.3539,-3.382,-3.4524,-3.4592,-3.4506,-3.4297,-3.6435,-3.8093,-3.8872,-4.0215,-4.1197,-4.1315,-4.1919,-4.2285,-4.2303,-4.2303,-4.2303,-4.2194,-4.127,-4.0473,-4.0159,-3.9465,-3.8857,-3.8601,-3.8564,-3.8546,-3.8546,-3.8433,-3.8354,-3.8336,-3.8451,-3.8546,-3.8546,-3.8451,-3.8322,-3.8225,-3.8192,-3.8225,-3.8259,-3.8241,-3.8274,-3.8289,-3.8303,-3.8336,-3.8354,-3.8368,-3.8382,-3.8382,-3.8368,-3.8354,-3.8336,-3.8322,-3.8336,-3.8478,-3.8478,-3.8554,-4.1163,-4.1144,-4.1086,-4.0898,-4.0487,-3.9418,-3.8762,-3.8389,0.0,0.0,0.0,-3.7542,-3.7284,-3.7232,-3.6594,-3.6284,-3.6284,-3.6284,-3.6284,-3.6284,-3.6284,-3.6284,-3.6284,-3.6284,-3.6284,-3.6284,-3.6284,-3.6284,-3.6284,-3.6284,-3.6284,-3.6284,-3.6284,-3.6284,-3.6284,-3.6284,-3.599,-3.537,-3.4525,-3.4663,-3.5852,-3.5645,-3.4921,-3.3714,-3.368,-3.3076,-3.1852,-3.18,-3.18,-3.18,-3.18,-3.1829,-3.1974,-3.2496,-3.2855,-3.2988,-3.3499,-3.4049,-3.4658,-3.4692,-3.4962,-3.5588,-3.5639,-3.5535,-3.5452,-3.7648,-3.901,-3.9098,-4.11,-4.2145,-4.1747,-4.2163,-4.2428,-4.2278,-4.1812,-4.1469,-4.1305,-4.0221,-3.946,-3.9315,-3.8751,-3.821,-3.8244,-3.8225,-3.8192,-3.8192,-3.8225,-3.8192,-3.8192,-3.8225,-3.8259,-3.8259,-3.8259,-3.8225,-3.8192,-3.8192,-3.8192,-3.8192,-3.8192,-3.8192,-3.8225,-3.8241,-3.8292,-3.8274,-3.8322,-3.8336,-3.8368,-3.8322,-3.8274,-3.8292,-3.8241,-3.8192,-3.8192,-3.8132,-3.8132,-3.9454,-3.9407,-3.9128,-3.8989,-3.8878,-3.8093,-3.7479,-3.7003,-3.6934,-3.6804,-3.6611,-3.6508,-3.6456,-3.6456,-3.6353,-3.6284,-3.6284,-3.6284,-3.6284,-3.6284,-3.6284,-3.6284,-3.6284,-3.6284,-3.6284,-3.6284,-3.6284,-3.6284,-3.6284,-3.6284,-3.6284,-3.6284,-3.6284,-3.6284,-3.6284,-3.6284,-3.6249,-3.6128,-3.4783,-3.418,-3.4369,-3.3093,-3.2334,-3.2127,-3.2179,-3.2041,-3.1817,-3.1834,-3.18,-3.18,-3.18,-3.2294,-3.3351,-3.3458,-3.4006,-3.5074,-3.525,-3.5351,-3.5408,-3.5453,-3.5504,-3.5605,-3.5639,-3.5887,-3.6554,-3.7274,-3.8027,-3.8633,-3.9752,-4.016,-3.9799,-4.0426,-4.0632,-4.0055,-4.0359,-4.0528,-4.0231,-3.9698,-3.9333,-3.9315,-3.8681,-3.8192,-3.8192,-3.8192,-3.8192,-3.8192,-3.8192,-3.8192,-3.8192,-3.8192,-3.8192,-3.8192,-3.8192,-3.8192,-3.8192,-3.8192,-3.8192,-3.8192,-3.8192,-3.8192,-3.8192,-3.8225,-3.8225,-3.8225,-3.8241,-3.8241,-3.8241,-3.8207,-3.8225,-3.8225,-3.8192,-3.8192,-3.8119,-3.7609,-3.7235,-3.9101,-3.9073,-3.8748,-3.8486,-3.8263,-3.7559,-3.7031,-3.6766,-3.6702,-3.6544,-3.6284,-3.6284,-3.6284,-3.6284,-3.6284,-3.6284,-3.6284,-3.6284,-3.6284,-3.6284,-3.6284,-3.6284,-3.6284,-3.6284,-3.6284,-3.6284,-3.6284,-3.6284,-3.6284,-3.6284,-3.6284,-3.6284,-3.6284,-3.6284,-3.6284,-3.6284,-3.6284,-3.6284,-3.5628,-3.5283,-3.5283,-3.4611,-3.4249,-3.4249,-3.4231,-3.4231,-3.4249,-3.399,-3.385,-3.385,-3.3525,-3.357,-3.4029,-3.4018,-3.4334,-3.5111,-3.5178,-3.527,-3.5577,-3.5639,-3.5639,-3.5639,-3.5639,-3.5757,-3.6129,-3.6997,-3.7533,-3.7689,-3.8804,-3.9382,-3.8981,-3.9464,-3.9722,-3.9341,-3.9483,-3.9442,-3.924,-3.8706,-3.8491,-3.863,-3.822,-3.7933,-3.8174,-3.8192,-3.8192,-3.8192,-3.8192,-3.8192,-3.8192,-3.8192,-3.8192,-3.8192,-3.8192,-3.8192,-3.8192,-3.8192,-3.8192,-3.8192,-3.8192,-3.8192,-3.8192,-3.8192,-3.8192,-3.8192,-3.8192,-3.8192,-3.8192,-3.8192,-3.8192,-3.8192,-3.8192,-3.8083,-3.7594,-3.658,-3.5779,-3.9101,-3.9073,-3.864,-3.8249,-3.7827,-3.7261,-3.693,-3.6788,-3.6725,-3.6585,-3.6343,-3.6301,-3.6284,-3.6284,-3.6284,-3.6284,-3.6284,-3.6284,-3.6284,-3.6284,-3.6284,-3.6284,-3.6284,-3.6284,-3.6284,-3.6284,-3.6284,-3.6284,-3.6284,-3.6284,-3.6284,-3.6284,-3.6284,-3.6284,-3.6284,-3.6284,-3.6241,-3.6174,-3.6114,-3.6216,-3.6284,-3.6284,-3.6259,-3.6156,-3.6139,-3.6054,-3.5941,-3.5616,-3.5436,-3.5374,-3.4878,-3.4592,-3.4529,-3.4447,-3.4544,-3.4927,-3.4975,-3.5178,-3.5577,-3.5639,-3.5639,-3.5639,-3.5639,-3.5639,-3.5673,-3.6505,-3.6918,-3.6752,-3.775,-3.838,-3.8,-3.8405,-3.8666,-3.8507,-3.8364,-3.8244,-3.8135,-3.7658,-3.7487,-3.781,-3.7632,-3.7667,-3.7933,-3.8054,-3.802,-3.802,-3.8054,-3.8054,-3.8158,-3.8192,-3.8192,-3.8192,-3.8192,-3.8192,-3.8192,-3.8192,-3.8192,-3.8192,-3.8192,-3.8192,-3.8192,-3.8192,-3.8192,-3.8192,-3.8192,-3.8192,-3.8174,-3.7975,-3.7902,-3.783,-3.7649,-3.7305,-3.649,-3.5566,-3.4697,-3.9101,-3.8998,-3.8392,-3.7739,-3.7164,-3.7009,-3.6948,-3.6811,-3.6771,-3.665,-3.6444,-3.6343,-3.6284,-3.6284,-3.6284,-3.6284,-3.6284,-3.6284,-3.6284,-3.6284,-3.6284,-3.6284,-3.6284,-3.6284,-3.6284,-3.6284,-3.6284,-3.6284,-3.6284,-3.6284,-3.6284,-3.6284,-3.6284,-3.6284,-3.6284,-3.6284,-3.6114,-3.5677,-3.5661,-3.5854,-3.6241,-3.6284,-3.6114,-3.5677,-3.5677,-3.5436,-3.5052,-3.4911,-3.4816,-3.4688,-3.464,-3.4704,-3.4864,-3.4927,-3.5115,-3.547,-3.5532,-3.556,-3.5577,-3.5639,-3.5639,-3.5639,-3.5639,-3.5639,-3.5639,-3.5735,-3.5768,-3.5881,-3.6277,-3.6483,-3.6004,-3.6669,-3.6904,-3.6412,-3.6776,-3.6926,-3.6696,-3.6811,-3.6978,-3.7034,-3.7266,-3.7505,-3.7542,-3.7596,-3.7578,-3.7596,-3.765,-3.7756,-3.8054,-3.8192,-3.8192,-3.8192,-3.8192,-3.8192,-3.8192,-3.8192,-3.8192,-3.8192,-3.8192,-3.8192,-3.8192,-3.8192,-3.8192,-3.8192,-3.8101,-3.8065,-3.7938,-3.7649,-3.7138,-3.7015,-3.6598,-3.5838,-3.5095,-3.4679,-3.4516,-3.8807,-3.8748,-3.8047,-3.745,-3.7009,-3.697,-3.697,-3.6908,-3.6829,-3.665,-3.6402,-3.6241,-3.6216,-3.6284,-3.6284,-3.6284,-3.6284,-3.6284,-3.6284,-3.6284,-3.6284,-3.6284,-3.6284,-3.6284,-3.6284,-3.6284,-3.6284,-3.6284,-3.6284,-3.6284,-3.6284,-3.6284,-3.6284,-3.6284,-3.6284,-3.6284,-3.6199,-3.6045,-3.6028,-3.5968,-3.5837,-3.5571,-3.5345,-3.5144,-3.5098,-3.5207,-3.5253,-3.4911,-3.4816,-3.5005,-3.469,-3.4464,-3.4561,-3.4496,-3.4625,-3.5068,-3.5424,-3.5639,-3.5639,-3.5639,-3.5639,-3.5639,-3.5639,-3.5639,-3.5639,-3.5639,-3.5639,-3.5622,-3.58,-3.5783,-3.5667,-3.5958,-3.5985,-3.5756,-3.6139,-3.6492,-3.6326,-3.6451,-3.6597,-3.6821,-3.6821,-3.69,-3.7094,-3.7152,-3.7152,-3.7208,-3.7303,-3.7542,-3.7756,-3.8002,-3.8192,-3.8158,-3.7967,-3.7933,-3.8106,-3.8192,-3.8192,-3.8192,-3.8192,-3.8192,-3.8156,-3.8192,-3.8192,-3.8156,-3.7757,-3.7486,-3.7431,-3.6852,-3.629,-3.6127,-3.5675,-3.4969,-3.4661,-3.4226,-3.3973,-3.867,-3.8486,-3.7808,-3.7319,-3.7027,-3.697,-3.697,-3.6987,-3.6908,-3.669,-3.6426,-3.6326,-3.6343,-3.636,-3.6131,-3.5985,-3.5881,-3.5881,-3.5898,-3.5881,-3.5881,-3.5881,-3.5881,-3.5881,-3.5881,-3.5941,-3.6028,-3.6156,-3.6284,-3.6284,-3.6284,-3.6284,-3.6284,-3.6284,-3.6301,-3.6216,-3.6011,-3.5881,-3.5793,-3.5481,-3.4958,-3.4577,-3.4448,-3.4593,-3.4738,-3.4864,-3.4864,-3.4431,-3.4333,-3.4593,-3.4118,-3.3882,-3.3968,-3.3834,-3.402,-3.4529,-3.4927,-3.5161,-3.5161,-3.5178,-3.5178,-3.5178,-3.5178,-3.5178,-3.5161,-3.527,-3.5379,-3.5379,-3.5532,-3.5622,-3.5639,-3.5639,-3.5639,-3.5622,-3.5915,-3.6071,-3.6088,-3.6131,-3.6216,-3.6457,-3.6392,-3.6409,-3.6678,-3.6759,-3.6759,-3.6759,-3.6978,-3.7246,-3.7358,-3.7613,-3.7828,-3.7828,-3.7523,-3.7559,-3.7898,-3.7828,-3.7845,-3.7773,-3.7649,-3.7433,-3.7589,-3.7569,-3.7489,-3.6949,-3.6783,-3.6689,-3.658,-3.6073,-3.5349,-3.5113,-3.4715,-3.4317,-3.4172,-3.3737,-3.3502,-3.8894,-3.8486,-3.779,-3.7319,-3.697,-3.697,-3.697,-3.697,-3.6987,-3.6891,-3.6731,-3.6748,-3.6708,-3.6502,-3.5633,-3.5131,-3.4975,-3.5005,-3.5005,-3.5005,-3.4958,-3.4864,-3.488,-3.488,-3.4911,-3.5144,-3.5571,-3.5941,-3.6284,-3.6241,-3.6284,-3.6301,-3.6199,-3.6241,-3.6174,-3.5793,-3.5374,-3.5005,-3.461,-3.4034,-3.3575,-3.3435,-3.3745,-3.4151,-3.4545,-3.4301,-3.3487,-3.3256,-3.3134,-3.2796,-3.285,-3.2926,-3.3251,-3.3287,-3.3563,-3.3986,-3.4086,-3.4119,-3.4136,-3.4185,-3.4136,-3.4136,-3.4235,-3.4136,-3.4235,-3.4577,-3.4816,-3.4816,-3.5224,-3.5487,-3.547,-3.5532,-3.5622,-3.5639,-3.5622,-3.5667,-3.5667,-3.5711,-3.5667,-3.5783,-3.6028,-3.6216,-3.6284,-3.6343,-3.6343,-3.6343,-3.6367,-3.6533,-3.6843,-3.696,-3.6985,-3.6949,-3.6893,-3.7002,-3.7342,-3.7217,-3.7008,-3.6761,-3.6414,-3.6111,-3.6025,-3.5951,-3.5888,-3.5887,-3.5897,-3.5838,-3.5711,-3.5222,-3.448,-3.4081,-3.3882,-3.3628,-3.3755,-3.3538,-3.3393,-3.8099,-3.7542,-3.7281,-3.7108,-3.7027,-3.697,-3.697,-3.697,-3.697,-3.6851,-3.6626,-3.6527,-3.6054,-3.5328,-3.4944,-3.5161,-3.581,-3.5481,-3.5299,-3.5299,-3.4958,-3.4958,-3.5299,-3.5299,-3.5464,-3.5749,-3.5968,-3.6114,-3.6174,-3.5661,-3.5526,-3.5749,-3.5509,-3.5328,-3.5328,-3.5191,-3.4975,-3.4833,-3.4593,-3.4333,-3.3848,-3.4134,-3.4068,-3.3591,-3.3729,-3.3832,-3.3761,-3.3658,-3.3678,-3.3885,-3.3748,-3.3764,-3.3866,-3.3783,-3.3767,-3.3986,-3.3986,-3.3986,-3.3986,-3.3986,-3.3986,-3.3986,-3.3986,-3.3986,-3.4036,-3.4169,-3.4268,-3.4333,-3.4431,-3.4593,-3.4738,-3.5178,-3.5639,-3.5622,-3.5577,-3.5577,-3.5639,-3.5639,-3.5639,-3.5622,-3.5783,-3.5827,-3.5837,-3.5871,-3.5888,-3.5871,-3.6071,-3.6274,-3.637,-3.6317,-3.6141,-3.6054,-3.5549,-3.5101,-3.52,-3.5881,-3.6078,-3.5641,-3.5273,-3.5367,-3.5296,-3.5276,-3.5249,-3.5399,-3.5349,-3.501,-3.4852,-3.4406,-3.3695,-3.3521,-3.3286,-3.3316,-3.3393,-3.3345,-3.3345,-3.7632,-3.7185,-3.7048,-3.697,-3.697,-3.697,-3.697,-3.697,-3.697,-3.6869,-3.6667,-3.6444,-3.5924,-3.5237,-3.4944,-3.527,-3.5985,-3.5283,-3.4864,-3.4816,-3.4496,-3.4529,-3.4833,-3.4864,-3.5052,-3.5311,-3.5509,-3.5705,-3.5924,-3.5191,-3.5115,-3.5509,-3.5052,-3.4816,-3.4769,-3.4642,-3.4545,-3.4545,-3.4415,-3.4134,-3.3882,-3.4168,-3.4018,-3.3398,-3.3293,-3.3466,-3.3745,-3.3658,-3.3694,-3.3885,-3.3799,-3.3662,-3.3662,-3.3578,-3.3475,-3.3475,-3.3475,-3.3459,-3.3459,-3.3459,-3.3475,-3.3475,-3.3459,-3.3475,-3.3475,-3.3614,-3.3716,-3.3783,-3.3935,-3.3986,-3.4136,-3.4673,-3.5068,-3.5068,-3.5068,-3.5085,-3.5068,-3.5224,-3.5424,-3.5577,-3.5622,-3.5537,-3.5318,-3.5267,-3.5115,-3.4962,-3.5198,-3.5368,-3.5307,-3.5203,-3.5005,-3.497,-3.4421,-3.3865,-3.3716,-3.4116,-3.4679,-3.4372,-3.3998,-3.4193,-3.4429,-3.4446,-3.4526,-3.4794,-3.4702,-3.431,-3.3906,-3.3514,-3.3273,-3.3135,-3.3099,-3.3099,-3.3208,-3.3316,-3.3345,-3.7505,-3.7413,-3.7147,-3.697,-3.697,-3.697,-3.697,-3.6948,-3.6948,-3.6891,-3.6771,-3.6568,-3.6301,-3.6174,-3.5481,-3.5391,-3.5098,-3.4102,-3.3591,-3.3591,-3.345,-3.3435,-3.3591,-3.3642,-3.3694,-3.3781,-3.3984,-3.4706,-3.5481,-3.4958,-3.4911,-3.5345,-3.4911,-3.4577,-3.4721,-3.4267,-3.4101,-3.4,-3.3642,-3.3398,-3.3293,-3.3398,-3.3398,-3.324,-3.324,-3.324,-3.315,-3.3058,-3.2935,-3.2726,-3.2617,-3.2453,-3.2563,-3.2547,-3.2453,-3.2547,-3.2492,-3.2437,-3.2508,-3.2547,-3.2602,-3.2602,-3.2492,-3.2602,-3.2641,-3.2949,-3.3198,-3.3251,-3.3563,-3.3885,-3.3834,-3.3935,-3.407,-3.4036,-3.4185,-3.4185,-3.4235,-3.4512,-3.4988,-3.5402,-3.5487,-3.5267,-3.4726,-3.4428,-3.4199,-3.3846,-3.3677,-3.3736,-3.3795,-3.3751,-3.349,-3.3456,-3.325,-3.2883,-3.2581,-3.2381,-3.2805,-3.3066,-3.2747,-3.2676,-3.312,-3.3213,-3.3332,-3.3523,-3.3719,-3.3364,-3.3237,-3.292,-3.2787,-3.2684,-3.2749,-3.2876,-3.2988,-3.3129,-3.3316,-3.7376,-3.7147,-3.7048,-3.697,-3.697,-3.697,-3.6908,-3.6667,-3.665,-3.6509,-3.6266,-3.6071,-3.581,-3.5481,-3.5131,-3.4754,-3.4218,-3.3745,-3.3642,-3.3745,-3.3435,-3.3503,-3.3745,-3.3848,-3.4034,-3.4267,-3.4134,-3.4415,-3.4785,-3.4218,-3.4034,-3.4366,-3.4068,-3.3764,-3.3832,-3.3642,-3.3555,-3.3555,-3.3398,-3.3187,-3.2888,-3.3134,-3.3134,-3.2834,-3.2834,-3.2958,-3.3187,-3.3096,-3.2935,-3.2788,-3.2648,-3.2523,-3.2398,-3.2398,-3.2398,-3.2398,-3.2398,-3.2398,-3.2398,-3.2398,-3.2398,-3.2398,-3.2398,-3.2398,-3.2398,-3.2547,-3.2695,-3.2641,-3.2803,-3.2911,-3.2911,-3.2911,-3.3214,-3.3919,-3.3986,-3.3935,-3.3969,-3.4399,-3.4755,-3.4796,-3.4844,-3.4523,-3.3862,-3.3496,-3.3232,-3.3229,-3.3017,-3.2931,-3.3204,-3.2823,-3.2662,-3.2628,-3.2273,-3.2036,-3.1867,-3.1749,-3.1968,-3.2222,-3.1992,-3.1907,-3.2162,-3.2334,-3.2388,-3.2519,-3.2651,-3.2651,-3.2502,-3.2401,-3.2334,-3.2401,-3.2568,-3.2716,-3.2813,-3.2988,-3.3208,-3.6902,-3.7009,-3.697,-3.697,-3.697,-3.697,-3.6908,-3.6667,-3.6544,-3.6343,-3.6114,-3.5766,-3.5453,-3.5131,-3.4883,-3.4497,-3.4,-3.3797,-3.3813,-3.3848,-3.3503,-3.3503,-3.3797,-3.3797,-3.3933,-3.4118,-3.3933,-3.4084,-3.4464,-3.3745,-3.3555,-3.3949,-3.3555,-3.3293,-3.3293,-3.3293,-3.3293,-3.3293,-3.3293,-3.3065,-3.2819,-3.3065,-3.3065,-3.2711,-3.2765,-3.2958,-3.3203,-3.315,-3.3043,-3.2881,-3.2648,-3.2468,-3.2398,-3.2398,-3.2398,-3.2398,-3.2398,-3.2398,-3.2398,-3.2398,-3.2398,-3.2398,-3.2398,-3.2398,-3.2398,-3.2398,-3.2398,-3.2398,-3.2453,-3.2398,-3.2398,-3.2398,-3.2765,-3.3335,-3.3371,-3.3511,-3.3649,-3.3793,-3.3891,-3.3822,-3.3723,-3.3234,-3.2613,-3.2276,-3.2012,-3.2054,-3.1981,-3.1808,-3.2042,-3.1792,-3.1724,-3.1631,-3.1348,-3.1227,-3.1235,-3.1241,-3.1224,-3.1343,-3.136,-3.156,-3.1815,-3.1908,-3.195,-3.2265,-3.2468,-3.2299,-3.2162,-3.2092,-3.2021,-3.2196,-3.2299,-3.2368,-3.2468,-3.2862,-3.3068,-3.6324,-3.6952,-3.697,-3.697,-3.697,-3.697,-3.693,-3.6908,-3.6609,-3.6444,-3.6276,-3.5739,-3.5424,-3.5287,-3.4818,-3.4546,-3.4415,-3.405,-3.3813,-3.3745,-3.3487,-3.345,-3.3398,-3.3398,-3.345,-3.345,-3.3398,-3.3607,-3.4,-3.3555,-3.3555,-3.3899,-3.3503,-3.3293,-3.3293,-3.3293,-3.3293,-3.3293,-3.324,-3.2996,-3.2516,-3.2848,-3.2848,-3.2353,-3.2547,-3.2676,-3.2645,-3.2538,-3.2694,-3.2796,-3.2578,-3.2453,-3.2398,-3.2398,-3.2398,-3.2398,-3.2398,-3.2398,-3.2398,-3.2398,-3.2398,-3.2398,-3.2398,-3.2398,-3.2398,-3.2398,-3.2398,-3.2398,-3.2398,-3.2398,-3.2398,-3.2398,-3.2453,-3.2453,-3.2602,-3.2788,-3.3019,-3.2633,-3.2624,-3.2676,-3.2317,-3.1667,-3.1075,-3.0871,-3.0551,-3.0342,-3.0396,-3.0391,-3.0418,-3.053,-3.0518,-3.0576,-3.0708,-3.0929,-3.1112,-3.119,-3.119,-3.119,-3.119,-3.1312,-3.147,-3.1545,-3.162,-3.1896,-3.2092,-3.1967,-3.186,-3.1768,-3.1694,-3.1714,-3.1823,-3.1932,-3.2196,-3.2586,-3.2925,-3.6553,-3.6992,-3.697,-3.697,-3.697,-3.697,-3.6869,-3.6626,-3.6527,-3.6301,-3.6011,-3.5588,-3.5379,-3.5333,-3.4977,-3.4691,-3.4497,-3.4349,-3.4151,-3.4,-3.3933,-3.3642,-3.3346,-3.3293,-3.3293,-3.3293,-3.3245,-3.3346,-3.3503,-3.3303,-3.3319,-3.3487,-3.3287,-3.3245,-3.3293,-3.3214,-3.3293,-3.324,-3.2926,-3.2501,-3.2078,-3.1735,-3.1372,-3.0925,-3.0658,-3.0662,-3.0784,-3.0517,-3.1228,-3.2571,-3.2594,-3.2523,-3.2351,-3.2351,-3.2351,-3.2398,-3.2398,-3.2398,-3.2398,-3.2398,-3.2398,-3.2398,-3.2398,-3.2398,-3.2398,-3.2398,-3.2398,-3.2398,-3.2398,-3.2398,-3.2398,-3.2342,-3.2342,-3.2398,-3.2266,-3.2331,-3.239,-3.2313,-3.204,-3.1577,-3.1283,-3.0797,-3.0271,-2.9849,-2.9678,-2.9681,-2.9661,-2.9601,-2.9617,-2.9793,-2.9995,-3.0377,-3.0576,-3.0855,-3.1015,-3.1151,-3.119,-3.119,-3.119,-3.119,-3.1291,-3.1312,-3.1329,-3.1428,-3.16,-3.1562,-3.1466,-3.1351,-3.1312,-3.1411,-3.1545,-3.175,-3.2003,-3.2299,-3.2666,-3.6131,-3.6513,-3.6847,-3.697,-3.697,-3.697,-3.6811,-3.6502,-3.6301,-3.6028,-3.5661,-3.5316,-3.5211,-3.5165,-3.4994,-3.4804,-3.4643,-3.4546,-3.4399,-3.43,-3.4151,-3.3848,-3.3555,-3.3346,-3.3293,-3.3245,-3.2993,-3.2866,-3.2839,-3.2598,-3.244,-3.2361,-3.244,-3.2424,-3.2293,-3.2237,-3.2201,-3.2066,-3.1734,-3.1304,-3.085,-3.0682,-3.0392,-3.0028,-2.9699,-2.9773,-2.9811,-2.9597,-3.0181,-3.1167,-3.1389,-3.1496,-3.1936,-3.1967,-3.209,-3.2336,-3.2398,-3.2398,-3.2398,-3.2398,-3.2398,-3.2398,-3.2398,-3.2398,-3.2398,-3.2398,-3.2398,-3.2398,-3.2398,-3.2287,-3.2007,-3.1807,-3.16,-3.1541,-3.1566,-3.1673,-3.1789,-3.131,-3.0851,-3.0354,-2.999,-2.9704,-2.9259,-2.8967,-2.8951,-2.909,-2.9166,-2.912,-2.9182,-2.9393,-2.9645,-2.9995,-3.0293,-3.0477,-3.0838,-3.1015,-3.1095,-3.1095,-3.119,-3.119,-3.119,-3.119,-3.123,-3.123,-3.119,-3.119,-3.119,-3.123,-3.1351,-3.1411,-3.1487,-3.1582,-3.1787,-3.2074,-3.2417,-3.5332,-3.5761,-3.6499,-3.6742,-3.6671,-3.6667,-3.6457,-3.6288,-3.5925,-3.5691,-3.5481,-3.5102,-3.5071,-3.4947,-3.4947,-3.4899,-3.4899,-3.4643,-3.4594,-3.4448,-3.4284,-3.4002,-3.3607,-3.3264,-3.3124,-3.2993,-3.2471,-3.2218,-3.206,-3.1571,-3.1318,-3.1428,-3.1381,-3.1286,-3.141,-3.1033,-3.0756,-3.0829,-3.0529,-3.0228,-2.9946,-2.9803,-2.9576,-2.9346,-2.9175,-2.9154,-2.9131,-2.9068,-2.925,-2.963,-2.9591,-3.0342,-3.1175,-3.1289,-3.1613,-3.2074,-3.2198,-3.2244,-3.2382,-3.2398,-3.2398,-3.2398,-3.2398,-3.2398,-3.2398,-3.2398,-3.2342,-3.2231,-3.2342,-3.2104,-3.1622,-3.094,-3.0543,-3.0473,-3.0406,-3.0488,-3.0701,-3.0017,-2.9396,-2.9239,-2.8735,-2.836,-2.8299,-2.8235,-2.8235,-2.8415,-2.8511,-2.8606,-2.8669,-2.892,-2.9227,-2.9617,-2.9865,-3.0081,-3.0493,-3.0935,-3.0935,-3.0958,-3.1134,-3.119,-3.119,-3.119,-3.119,-3.119,-3.119,-3.119,-3.119,-3.1252,-3.1351,-3.1351,-3.1389,-3.1466,-3.16,-3.186,-3.2196,-3.472,-3.5331,-3.5222,-3.5179,-3.5142,-3.4917,-3.5109,-3.5509,-3.5238,-3.5241,-3.5569,-3.5391,-3.5253,-3.5207,-3.5008,-3.4899,-3.4883,-3.4754,-3.4804,-3.4804,-3.4546,-3.4039,-3.347,-3.2996,-3.2727,-3.2415,-3.1776,-3.146,-3.1349,-3.1223,-3.1191,-3.1144,-3.1002,-3.1191,-3.1063,-3.0869,-3.1042,-3.0927,-3.0237,-2.9901,-2.9742,-2.9042,-2.8636,-2.8462,-2.7956,-2.7548,-2.7331,-2.6928,-2.6913,-2.7612,-2.8823,-2.9743,-3.0326,-3.0508,-3.083,-3.1305,-3.1559,-3.1758,-3.2244,-3.2226,-3.2398,-3.2272,-3.2216,-3.2398,-3.2398,-3.2327,-3.2104,-3.1936,-3.2104,-3.1977,-3.1302,-3.0367,-2.9784,-2.9477,-2.889,-2.8458,-2.8557,-2.9009,-2.9,-2.8602,-2.8096,-2.773,-2.768,-2.7414,-2.7429,-2.763,-2.7894,-2.8042,-2.8253,-2.8477,-2.8873,-2.9241,-2.9483,-2.9689,-3.0097,-3.0452,-3.0535,-3.0617,-3.0797,-3.0918,-3.0935,-3.1015,-3.0935,-3.1015,-3.119,-3.1151,-3.1055,-3.119,-3.1252,-3.1252,-3.1252,-3.1329,-3.1428,-3.1731,-3.1932,-3.4437,-3.4549,-3.4604,-3.4559,-3.4411,-3.4142,-3.4112,-3.4257,-3.4159,-3.4193,-3.4408,-3.4538,-3.4631,-3.4681,-3.4811,-3.4899,-3.48,-3.4518,-3.4369,-3.4223,-3.382,-3.3221,-3.2689,-3.2112,-3.1741,-3.177,-3.1245,-3.0846,-3.0718,-3.0433,-3.0164,-3.0243,-3.0211,-3.0133,-3.0179,-3.0082,-2.9777,-2.95,-2.9057,-2.8748,-2.8569,-2.8084,-2.7577,-2.7563,-2.7059,-2.6727,-2.6422,-2.6125,-2.6125,-2.6537,-2.7374,-2.837,-2.8996,-2.9177,-2.9477,-2.9988,-3.0123,-3.0423,-3.0904,-3.1114,-3.1162,-3.1534,-3.1507,-3.1507,-3.1522,-3.1507,-3.1392,-3.1175,-3.1203,-3.1187,-3.0265,-2.904,-2.8392,-2.814,-2.7682,-2.7262,-2.7312,-2.778,-2.8015,-2.7619,-2.7342,-2.7363,-2.7246,-2.6938,-2.7327,-2.781,-2.758,-2.773,-2.8107,-2.8317,-2.8527,-2.8873,-2.9074,-2.9348,-2.9705,-2.9924,-3.0054,-3.014,-3.0241,-3.0326,-3.0326,-3.0452,-3.0551,-3.0716,-3.0878,-3.0821,-3.0781,-3.0958,-3.119,-3.119,-3.1213,-3.119,-3.1291,-3.1562,-3.1731,-3.415,-3.377,-3.4057,-3.4062,-3.3856,-3.3488,-3.3216,-3.3102,-3.2975,-3.2981,-3.2885,-3.3375,-3.3752,-3.3922,-3.4308,-3.4541,-3.4231,-3.3705,-3.3219,-3.3154,-3.2606,-3.2077,-3.1628,-3.1149,-3.0846,-3.1166,-3.0529,-3.0164,-2.9895,-2.9485,-2.9422,-2.917,-2.9092,-2.9202,-2.8983,-2.8653,-2.8488,-2.824,-2.7885,-2.7616,-2.7395,-2.7166,-2.7062,-2.7047,-2.6756,-2.6486,-2.6165,-2.5893,-2.5853,-2.5853,-2.5784,-2.6325,-2.7006,-2.7574,-2.7835,-2.8557,-2.8712,-2.9034,-2.9574,-2.9693,-2.9971,-3.0279,-3.0367,-3.0294,-3.0309,-3.0221,-3.0148,-2.9956,-2.9838,-2.9516,-2.8595,-2.7603,-2.6886,-2.6676,-2.6581,-2.6427,-2.6426,-2.6481,-2.651,-2.6811,-2.6745,-2.6759,-2.6849,-2.6745,-2.7393,-2.7825,-2.7545,-2.7479,-2.7795,-2.8057,-2.8222,-2.8527,-2.8732,-2.8826,-2.9136,-2.9528,-2.9617,-2.9661,-2.9766,-2.9853,-2.9837,-2.9837,-3.0011,-3.0309,-3.0435,-3.0477,-3.0642,-3.0958,-3.1095,-3.1134,-3.1134,-3.1134,-3.1235,-3.1411,-3.1524,-3.3579,-3.343,-3.2839,-3.2564,-3.2421,-3.1803,-3.1854,-3.2185,-3.2,-3.2193,-3.2658,-3.2812,-3.316,-3.3482,-3.3353,-3.3113,-3.2659,-3.2144,-3.1791,-3.1775,-3.1422,-3.1118,-3.0686,-3.0541,-3.0224,-2.964,-2.9451,-2.9452,-2.9358,-2.9122,-2.9091,-2.9045,-2.8826,-2.8669,-2.8559,-2.824,-2.811,-2.7978,-2.771,-2.756,-2.7509,-2.7321,-2.7196,-2.713,-2.6698,-2.6351,-2.6136,-2.5798,-2.555,-2.555,-2.5286,-2.5341,-2.5716,-2.6429,-2.7108,-2.7567,-2.7686,-2.7905,-2.8552,-2.916,-2.926,-2.9251,-2.9342,-2.9369,-2.9114,-2.8985,-2.8813,-2.8392,-2.7963,-2.7598,-2.7888,-2.6803,-2.6194,-2.5939,-2.5695,-2.5437,-2.5411,-2.5481,-2.5742,-2.6322,-2.6229,-2.615,-2.6297,-2.639,-2.6654,-2.6878,-2.6774,-2.6953,-2.7429,-2.7645,-2.7745,-2.8057,-2.8444,-2.8493,-2.8589,-2.8967,-2.9212,-2.9273,-2.9409,-2.9589,-2.9528,-2.9348,-2.9467,-2.9689,-3.0038,-3.0251,-3.0518,-3.0797,-3.0878,-3.0781,-3.0918,-3.1055,-3.1157,-3.1235,-3.1291,-3.3437,-3.3202,-3.2669,-3.2266,-3.1877,-3.1411,-3.1183,-3.1216,-3.1099,-3.1239,-3.1487,-3.1586,-3.1735,-3.1946,-3.1879,-3.1602,-3.1358,-3.0958,-3.0863,-3.0911,-3.0512,-3.0302,-3.009,-3.0148,-2.991,-2.9534,-2.9396,-2.9213,-2.9121,-2.9091,-2.9091,-2.9075,-2.8873,-2.8826,-2.8779,-2.8669,-2.8367,-2.8222,-2.8042,-2.781,-2.761,-2.7284,-2.7144,-2.6922,-2.663,-2.6297,-2.6042,-2.5743,-2.5439,-2.5257,-2.5075,-2.5005,-2.516,-2.5453,-2.5964,-2.63,-2.6384,-2.6624,-2.7131,-2.7556,-2.7598,-2.775,-2.8025,-2.7996,-2.7822,-2.7689,-2.7591,-2.7225,-2.6772,-2.6453,-2.6765,-2.5952,-2.5551,-2.5385,-2.5154,-2.5032,-2.5005,-2.5005,-2.537,-2.5851,-2.5646,-2.5605,-2.5948,-2.5988,-2.592,-2.592,-2.5988,-2.6404,-2.7004,-2.7071,-2.7137,-2.7545,-2.786,-2.8024,-2.8073,-2.8398,-2.8591,-2.8701,-2.8811,-2.8982,-2.9074,-2.8842,-2.8826,-2.8982,-2.9348,-2.9821,-2.9908,-3.0011,-3.0225,-3.0518,-3.0699,-3.0821,-3.0958,-3.1055,-3.1151,-3.3444,-3.3117,-3.2848,-3.2351,-3.175,-3.1432,-3.0881,-3.0393,-3.0311,-3.0212,-3.0038,-2.9972,-2.9996,-3.007,-3.0031,-2.9972,-3.016,-2.9658,-2.9627,-2.9848,-2.9391,-2.9273,-2.9499,-2.9589,-2.938,-2.938,-2.9243,-2.9243,-2.9213,-2.9137,-2.9091,-2.9029,-2.9029,-2.8967,-2.8873,-2.8685,-2.8622,-2.8463,-2.8286,-2.791,-2.7335,-2.6989,-2.6779,-2.6659,-2.6418,-2.6096,-2.5853,-2.5522,-2.5244,-2.5131,-2.5005,-2.5005,-2.5005,-2.5005,-2.5005,-2.5005,-2.5005,-2.529,-2.5592,-2.6057,-2.6394,-2.648,-2.6567,-2.6608,-2.6448,-2.6476,-2.6408,-2.6362,-2.6063,-2.5724,-2.5772,-2.5233,-2.4973,-2.4975,-2.4975,-2.4878,-2.4948,-2.5005,-2.5005,-2.516,-2.5005,-2.5174,-2.5508,-2.5564,-2.5495,-2.555,-2.555,-2.5879,-2.6336,-2.6297,-2.6404,-2.6864,-2.721,-2.7429,-2.763,-2.7845,-2.7913,-2.7864,-2.7913,-2.8061,-2.8174,-2.8204,-2.8317,-2.8525,-2.8763,-2.9136,-2.9182,-2.9483,-2.9995,-3.0393,-3.0518,-3.0642,-3.074,-3.0975,-3.1151,-3.3411,-3.3334,-3.2862,-3.2419,-3.1862,-3.1422,-3.06,-2.9606,-2.9509,-2.9168,-2.8725,-2.8281,-2.8428,-2.8611,-2.8063,-2.7906,-2.7817,-2.7689,-2.7753,-2.8238,-2.8204,-2.8271,-2.8125,-2.8122,-2.8858,-2.912,-2.8889,-2.8936,-2.9198,-2.9167,-2.9029,-2.8982,-2.8716,-2.8559,-2.8559,-2.8367,-2.7997,-2.7963,-2.771,-2.7335,-2.6989,-2.6899,-2.6659,-2.6418,-2.6082,-2.5839,-2.5592,-2.53,-2.5061,-2.5005,-2.5005,-2.5005,-2.5005,-2.5005,-2.5005,-2.5005,-2.5018,-2.5046,-2.5211,-2.5548,-2.5632,-2.5611,-2.5727,-2.5645,-2.5584,-2.5439,-2.5426,-2.5222,-2.5168,-2.5208,-2.5165,-2.4717,-2.4708,-2.4708,-2.4765,-2.4821,-2.4892,-2.4821,-2.4821,-2.4835,-2.4821,-2.4892,-2.5118,-2.5118,-2.5118,-2.5174,-2.523,-2.555,-2.5715,-2.5729,-2.5784,-2.6176,-2.6654,-2.6849,-2.7159,-2.7429,-2.753,-2.7261,-2.7429,-2.7494,-2.781,-2.8122,-2.8073,-2.8268,-2.8477,-2.8668,-2.892,-2.9348,-2.9908,-3.0293,-3.0518,-3.0559,-3.0559,-3.0821,-3.1095,-3.2288,-3.2694,-3.2294,-3.1582,-3.0732,-3.0278,-2.9664,-2.8932,-2.8549,-2.8305,-2.7882,-2.7082,-2.6718,-2.6618,-2.6255,-2.6273,-2.632,-2.6507,-2.6886,-2.7555,-2.8008,-2.8496,-2.8966,-2.9212,-2.9528,-2.9319,-2.9319,-2.9273,-2.9335,-2.8873,-2.8558,-2.8463,-2.8319,-2.8158,-2.8304,-2.7997,-2.7898,-2.783,-2.761,-2.735,-2.7144,-2.6937,-2.6659,-2.6351,-2.6042,-2.5798,-2.5481,-2.5201,-2.5005,-2.5005,-2.5005,-2.5005,-2.5005,-2.5005,-2.5005,-2.5005,-2.5005,-2.5018,-2.5018,-2.5286,-2.523,-2.5104,-2.523,-2.5271,-2.5005,-2.5005,-2.5005,-2.5018,-2.5018,-2.4948,-2.4948,-2.4821,-2.4821,-2.4821,-2.4593,-2.4708,-2.4708,-2.458,-2.458,-2.458,-2.4593,-2.465,-2.4708,-2.4948,-2.5005,-2.5061,-2.5061,-2.523,-2.5342,-2.5286,-2.5397,-2.555,-2.5974,-2.6404,-2.6654,-2.6967,-2.7363,-2.7363,-2.776,-2.786,-2.8024,-2.8186,-2.7974,-2.8073,-2.8396,-2.8573,-2.8779,-2.912,-2.9617,-3.0081,-3.0518,-3.0518,-3.0518,-3.0559,-3.0699,-3.122,-3.147,-3.1416,-3.0778,-2.9804,-2.9403,-2.8825,-2.8189,-2.7692,-2.7364,-2.6889,-2.6021,-2.519,-2.4745,-2.4829,-2.5011,-2.5224,-2.5965,-2.6587,-2.7332,-2.8155,-2.8732,-2.8873,-2.9422,-2.9617,-2.9913,-2.9182,-2.9182,-2.8997,-2.859,-2.8107,-2.8158,-2.8415,-2.8304,-2.8255,-2.8255,-2.8271,-2.8061,-2.7894,-2.7625,-2.735,-2.7093,-2.675,-2.6365,-2.6042,-2.5798,-2.5481,-2.5188,-2.5005,-2.5005,-2.5005,-2.5005,-2.5005,-2.5005,-2.5005,-2.5005,-2.5005,-2.5005,-2.5005,-2.5061,-2.5005,-2.5005,-2.5005,-2.5061,-2.5005,-2.5005,-2.4892,-2.4778,-2.4948,-2.4878,-2.4694,-2.458,-2.4523,-2.4421,-2.4363,-2.4536,-2.458,-2.4292,-2.4163,-2.4163,-2.4221,-2.4221,-2.4408,-2.4765,-2.4948,-2.5005,-2.5005,-2.4948,-2.4948,-2.4948,-2.5061,-2.5216,-2.566,-2.5934,-2.5974,-2.6322,-2.6782,-2.721,-2.7595,-2.771,-2.756,-2.756,-2.7444,-2.771,-2.8186,-2.851,-2.8748,-2.9028,-2.9303,-2.9645,-2.9995,-3.0351,-3.0493,-3.0435,-3.0393,-3.0577,-2.9551,-3.0255,-3.0198,-2.9667,-2.942,-2.8574,-2.742,-2.7011,-2.6367,-2.5621,-2.4829,-2.4227,-2.3855,-2.3902,-2.4146,-2.4657,-2.536,-2.6023,-2.6654,-2.7334,-2.7871,-2.8176,-2.8415,-2.8559,-2.9028,-2.8842,-2.8764,-2.8574,-2.8189,-2.8301,-2.8842,-2.8527,-2.8826,-2.8732,-2.8431,-2.8334,-2.8174,-2.8042,-2.776,-2.7488,-2.7181,-2.6907,-2.6351,-2.6042,-2.5798,-2.5494,-2.5188,-2.5005,-2.5005,-2.5005,-2.5005,-2.5005,-2.5005,-2.5005,-2.4892,-2.4948,-2.4948,-2.4892,-2.4892,-2.4948,-2.4948,-2.4892,-2.4765,-2.4765,-2.4878,-2.4765,-2.4421,-2.458,-2.4465,-2.4047,-2.3754,-2.3943,-2.3943,-2.3943,-2.3884,-2.393,-2.3813,-2.3695,-2.3754,-2.3754,-2.3767,-2.393,-2.4234,-2.4465,-2.4523,-2.4765,-2.4765,-2.4778,-2.4778,-2.4892,-2.5048,-2.5439,-2.555,-2.5216,-2.5577,-2.6094,-2.6308,-2.6549,-2.6549,-2.6457,-2.6563,-2.7019,-2.7429,-2.7845,-2.8255,-2.8591,-2.8638,-2.8779,-2.9104,-2.9512,-2.9968,-3.0054,-2.9924,-3.0011,-2.9222,-2.8584,-2.8734,-2.8561,-2.8155,-2.7793,-2.7227,-2.6528,-2.594,-2.5171,-2.4364,-2.3979,-2.3767,-2.3638,-2.361,-2.3714,-2.4073,-2.4702,-2.5375,-2.6146,-2.6862,-2.7537,-2.7959,-2.8432,-2.9012,-2.8889,-2.8701,-2.8622,-2.8637,-2.8091,-2.8174,-2.8479,-2.8446,-2.8073,-2.8024,-2.8008,-2.7745,-2.761,-2.7509,-2.7269,-2.7181,-2.6989,-2.6712,-2.6096,-2.5988,-2.5619,-2.5244,-2.5061,-2.5005,-2.5005,-2.5005,-2.5005,-2.5005,-2.5005,-2.4892,-2.4765,-2.4892,-2.4835,-2.4637,-2.4593,-2.4478,-2.4176,-2.4118,-2.4176,-2.4292,-2.4176,-2.4105,-2.3989,-2.406,-2.3943,-2.3767,-2.3636,-2.3636,-2.3577,-2.3458,-2.3399,-2.3292,-2.3173,-2.3173,-2.3173,-2.3245,-2.3258,-2.3484,-2.3721,-2.3943,-2.4105,-2.435,-2.4536,-2.4536,-2.4536,-2.4536,-2.4536,-2.4865,-2.5034,-2.4751,-2.5021,-2.5412,-2.5522,-2.5646,-2.5865,-2.6082,-2.6428,-2.6901,-2.7195,-2.7414,-2.765,-2.7849,-2.7947,-2.8288,-2.8748,-2.9196,-2.9661,-2.9572,-2.9393,-2.9483,-2.8378,-2.7964,-2.7683,-2.7413,-2.7149,-2.6792,-2.6452,-2.6118,-2.561,-2.4752,-2.3837,-2.3724,-2.3595,-2.3595,-2.3595,-2.361,-2.3834,-2.4343,-2.4852,-2.5588,-2.6438,-2.7267,-2.7966,-2.8419,-2.8638,-2.8654,-2.8701,-2.8669,-2.8779,-2.8222,-2.8319,-2.8383,-2.8057,-2.786,-2.756,-2.7321,-2.7115,-2.7115,-2.7115,-2.7041,-2.7041,-2.6989,-2.6712,-2.615,-2.6002,-2.5688,-2.53,-2.5075,-2.5005,-2.5005,-2.5005,-2.5005,-2.5005,-2.4948,-2.4835,-2.4708,-2.4708,-2.4765,-2.4465,-2.4408,-2.435,-2.4292,-2.3989,-2.393,-2.3754,-2.3708,-2.3636,-2.3424,-2.3531,-2.3531,-2.3352,-2.3185,-2.3113,-2.3005,-2.2932,-2.2823,-2.2689,-2.258,-2.258,-2.2653,-2.2519,-2.2249,-2.2249,-2.2482,-2.3088,-2.3374,-2.393,-2.406,-2.4002,-2.406,-2.4118,-2.406,-2.406,-2.4221,-2.4279,-2.4567,-2.4908,-2.5258,-2.5425,-2.5797,-2.6068,-2.6308,-2.6428,-2.6602,-2.6759,-2.6901,-2.7261,-2.76,-2.803,-2.8481,-2.8795,-2.8966,-2.9059,-2.8889,-2.8967,-2.8324,-2.7701,-2.7369,-2.7213,-2.7117,-2.6825,-2.6607,-2.6295,-2.5888,-2.5198,-2.4225,-2.3794,-2.3595,-2.3595,-2.3595,-2.3595,-2.3714,-2.4238,-2.4612,-2.5047,-2.5813,-2.6489,-2.7022,-2.7504,-2.8132,-2.8255,-2.8286,-2.8479,-2.8779,-2.8155,-2.8301,-2.8479,-2.8189,-2.7978,-2.7864,-2.7864,-2.7864,-2.7799,-2.7715,-2.7509,-2.7284,-2.7181,-2.6803,-2.6365,-2.5988,-2.5743,-2.5425,-2.5131,-2.5005,-2.5005,-2.5005,-2.5005,-2.5005,-2.4948,-2.4821,-2.4765,-2.4821,-2.465,-2.4337,-2.4708,-2.465,-2.4363,-2.3767,-2.3754,-2.3943,-2.3767,-2.3305,-2.2957,-2.3185,-2.3005,-2.2775,-2.2543,-2.2469,-2.2273,-2.2137,-2.2013,-2.1827,-2.1702,-2.1702,-2.1702,-2.1302,-2.0899,-2.0858,-2.1049,-2.1916,-2.2579,-2.3327,-2.3518,-2.3399,-2.3649,-2.3754,-2.3471,-2.3424,-2.3649,-2.3826,-2.406,-2.4408,-2.4808,-2.5147,-2.5412,-2.5522,-2.5522,-2.5701,-2.5934,-2.6204,-2.639,-2.6901,-2.7414,-2.7434,-2.7405,-2.7849,-2.8076,-2.8268,-2.8493,-2.8621,-2.8386,-2.7701,-2.7565,-2.7258,-2.6858,-2.647,-2.598,-2.546,-2.4918,-2.4436,-2.4021,-2.3681,-2.3595,-2.3595,-2.3595,-2.3595,-2.367,-2.3714,-2.4059,-2.4687,-2.5211,-2.5854,-2.6426,-2.704,-2.7534,-2.7803,-2.7959,-2.8073,-2.8284,-2.784,-2.7725,-2.786,-2.7944,-2.7645,-2.773,-2.7695,-2.7473,-2.7203,-2.7167,-2.7078,-2.7026,-2.6974,-2.675,-2.6283,-2.5988,-2.5743,-2.5494,-2.5131,-2.5005,-2.5005,-2.5005,-2.4948,-2.4892,-2.4765,-2.4408,-2.4176,-2.406,-2.3989,-2.3859,-2.393,-2.3708,-2.3352,-2.3113,-2.2992,-2.2896,-2.2775,-2.2543,-2.2432,-2.2469,-2.2149,-2.1776,-2.1639,-2.1451,-2.0933,-2.0741,-2.0741,-2.0688,-2.0613,-2.0549,-2.0613,-2.0344,-2.0526,-2.0537,-2.0161,-2.0707,-2.1342,-2.2089,-2.2286,-2.2175,-2.304,-2.3471,-2.3017,-2.2848,-2.3065,-2.3365,-2.3649,-2.3943,-2.4279,-2.4567,-2.4794,-2.4851,-2.4991,-2.5328,-2.5784,-2.5825,-2.5934,-2.6283,-2.6534,-2.6229,-2.6229,-2.7159,-2.773,-2.8008,-2.8235,-2.8444,-2.8412,-2.784,-2.7612,-2.7289,-2.6824,-2.6454,-2.598,-2.5427,-2.4823,-2.4395,-2.4256,-2.3879,-2.3638,-2.3595,-2.3595,-2.3595,-2.3595,-2.361,-2.3684,-2.4313,-2.4582,-2.53,-2.6116,-2.6819,-2.7252,-2.753,-2.781,-2.8024,-2.8317,-2.764,-2.7575,-2.771,-2.761,-2.783,-2.783,-2.7458,-2.7093,-2.6922,-2.6884,-2.6884,-2.6779,-2.6712,-2.6472,-2.615,-2.5893,-2.5578,-2.5355,-2.5131,-2.4948,-2.4948,-2.4892,-2.4765,-2.458,-2.4279,-2.393,-2.3695,-2.3148,-2.3075,-2.2942,-2.2323,-2.1978,-2.1577,-2.1788,-2.1901,-2.1714,-2.1577,-2.1463,-2.14,-2.1537,-2.1273,-2.088,-2.0741,-2.0549,-2.0042,-2.0042,-2.0042,-2.0042,-1.9977,-1.9901,-1.9911,-1.9584,-1.9901,-2.0085,-1.9704,-1.9497,-2.0139,-2.0719,-2.0921,-2.1187,-2.2125,-2.2859,-2.2519,-2.2359,-2.2653,-2.2944,-2.3305,-2.359,-2.3813,-2.4105,-2.4452,-2.4808,-2.4991,-2.5286,-2.5453,-2.5439,-2.5439,-2.555,-2.5605,-2.5851,-2.6467,-2.7399,-2.778,-2.786,-2.8008,-2.8268,-2.835,-2.8002,-2.7457,-2.7147,-2.7031,-2.6757,-2.6607,-2.647,-2.5652,-2.5198,-2.5012,-2.4063,-2.3739,-2.3638,-2.3638,-2.3638,-2.3638,-2.3638,-2.3741,-2.3906,-2.4356,-2.5078,-2.5741,-2.6438,-2.7126,-2.7478,-2.778,-2.8125,-2.8559,-2.786,-2.766,-2.7929,-2.814,-2.8042,-2.7645,-2.7306,-2.6989,-2.6937,-2.6832,-2.6832,-2.6779,-2.6539,-2.6365,-2.6042,-2.5729,-2.5342,-2.5061,-2.4835,-2.4778,-2.4708,-2.4536,-2.435,-2.4105,-2.38,-2.3623,-2.3135,-2.2212,-2.1904,-2.1655,-2.0974,-2.0526,-2.042,-2.0974,-2.1089,-2.0962,-2.0677,-2.0624,-2.056,-2.056,-2.0366,-2.0096,-2.0031,-1.9966,-1.9835,-1.977,-1.9704,-1.9715,-1.9584,-1.9441,-1.9187,-1.8664,-1.8664,-1.8854,-1.8596,-1.8643,-1.9145,-1.9651,-1.9901,-2.03,-2.1262,-2.1827,-2.1889,-2.1851,-2.2161,-2.2531,-2.2689,-2.3005,-2.316,-2.3884,-2.4292,-2.465,-2.4751,-2.4751,-2.4751,-2.4878,-2.4991,-2.5034,-2.5508,-2.6065,-2.6739,-2.6983,-2.747,-2.7485,-2.7849,-2.8061,-2.8237,-2.7783,-2.7382,-2.7036,-2.6824,-2.6758,-2.621,-2.5427,-2.5075,-2.4815,-2.4467,-2.4009,-2.3824,-2.3782,-2.3952,-2.3867,-2.3824,-2.3909,-2.4078,-2.4189,-2.4255,-2.4983,-2.5697,-2.6437,-2.7177,-2.7659,-2.7996,-2.8064,-2.8207,-2.7745,-2.7473,-2.761,-2.7959,-2.766,-2.7423,-2.7181,-2.7196,-2.7093,-2.6937,-2.6779,-2.6727,-2.6539,-2.6312,-2.5974,-2.5425,-2.509,-2.4751,-2.4279,-2.4163,-2.3989,-2.3872,-2.3682,-2.305,-2.2567,-2.2151,-2.1152,-2.0719,-2.0602,-2.0537,-2.0279,-1.9835,-1.9441,-1.9748,-2.002,-2.0085,-2.0096,-1.9966,-1.9835,-1.977,-1.9639,-1.9375,-1.9243,-1.9044,-1.8844,-1.8767,-1.87,-1.8643,-1.8576,-1.8442,-1.824,-1.7716,-1.7774,-1.791,-1.792,-1.7969,-1.8335,-1.8572,-1.8752,-1.9291,-2.0246,-2.0794,-2.0858,-2.0996,-2.1239,-2.1502,-2.1678,-2.2137,-2.258,-2.3292,-2.3695,-2.3564,-2.3623,-2.3872,-2.4047,-2.4163,-2.4408,-2.458,-2.505,-2.5467,-2.5576,-2.5859,-2.6576,-2.7172,-2.754,-2.8201,-2.8496,-2.8065,-2.7695,-2.7303,-2.6956,-2.6908,-2.6315,-2.5503,-2.5313,-2.5059,-2.4655,-2.4369,-2.4036,-2.3839,-2.3952,-2.3909,-2.3638,-2.3782,-2.3952,-2.3952,-2.412,-2.4752,-2.5517,-2.6053,-2.6607,-2.7272,-2.7735,-2.7674,-2.7936,-2.786,-2.764,-2.7233,-2.7437,-2.7335,-2.7233,-2.7299,-2.735,-2.7248,-2.7041,-2.6712,-2.65,-2.6326,-2.5974,-2.5618,-2.5007,-2.461,-2.4323,-2.3741,-2.3623,-2.3446,-2.3327,-2.2701,-2.2127,-2.1592,-2.1037,-2.0215,-1.989,-1.977,-1.9628,-1.9375,-1.8977,-1.871,-1.8586,-1.8854,-1.9054,-1.9054,-1.9054,-1.9054,-1.9121,-1.9054,-1.871,-1.8307,-1.7969,-1.7638,-1.7569,-1.7423,-1.7432,-1.7432,-1.7295,-1.7079,-1.7079,-1.7139,-1.7207,-1.7157,-1.7088,-1.712,-1.7092,-1.7083,-1.7813,-1.8895,-1.9575,-1.9846,-1.9922,-2.0117,-2.0386,-2.0771,-2.1279,-2.1842,-2.2665,-2.2895,-2.2592,-2.2506,-2.2784,-2.317,-2.3505,-2.3813,-2.4105,-2.4176,-2.4483,-2.4757,-2.537,-2.6246,-2.6938,-2.7193,-2.8,-2.886,-2.8576,-2.8201,-2.7619,-2.7195,-2.7181,-2.6807,-2.6193,-2.6193,-2.5908,-2.5368,-2.4981,-2.4517,-2.423,-2.423,-2.4105,-2.4006,-2.409,-2.4214,-2.3794,-2.4116,-2.4746,-2.5201,-2.5146,-2.6228,-2.678,-2.7111,-2.7476,-2.7868,-2.7855,-2.7539,-2.7093,-2.7545,-2.7545,-2.7233,-2.7335,-2.735,-2.7196,-2.6922,-2.6606,-2.6096,-2.5646,-2.5133,-2.4624,-2.415,-2.38,-2.3682,-2.3577,-2.3458,-2.3088,-2.2518,-2.1842,-2.1152,-2.0462,-1.9966,-1.9715,-1.9187,-1.9044,-1.8777,-1.8452,-1.8124,-1.793,-1.7862,-1.7716,-1.7765,-1.8046,-1.8104,-1.8037,-1.8037,-1.7823,-1.7413,-1.7198,-1.6932,-1.6793,-1.6724,-1.6585,-1.6515,-1.6515,-1.6446,-1.6306,-1.6237,-1.6298,-1.607,-1.5939,-1.579,-1.572,-1.535,-1.5271,-1.5677,-1.6821,-1.7726,-1.8265,-1.8362,-1.8506,-1.9302,-1.9738,-2.0384,-2.1083,-2.1596,-2.1942,-2.1506,-2.1545,-2.1696,-2.2237,-2.2834,-2.3327,-2.3623,-2.3813,-2.415,-2.4813,-2.5493,-2.6246,-2.668,-2.6975,-2.7569,-2.8355,-2.8192,-2.7631,-2.7195,-2.6923,-2.7352,-2.7178,-2.6641,-2.7115,-2.6573,-2.5615,-2.5329,-2.5137,-2.4847,-2.4965,-2.4847,-2.4608,-2.4592,-2.495,-2.491,-2.4871,-2.5005,-2.5809,-2.5742,-2.6275,-2.6656,-2.7032,-2.7309,-2.7713,-2.768,-2.7625,-2.7473,-2.7645,-2.7423,-2.7078,-2.7181,-2.713,-2.6922,-2.6659,-2.6379,-2.5974,-2.5687,-2.5287,-2.4553,-2.3975,-2.3339,-2.3113,-2.2714,-2.2592,-2.2347,-2.169,-2.0782,-1.9759,-1.8921,-1.8596,-1.8462,-1.8327,-1.8114,-1.7978,-1.7569,-1.7217,-1.6941,-1.6733,-1.6376,-1.6446,-1.6872,-1.7079,-1.6941,-1.6802,-1.6524,-1.6306,-1.6167,-1.5948,-1.5948,-1.5877,-1.5737,-1.5525,-1.5446,-1.5446,-1.5376,-1.5313,-1.5092,-1.4791,-1.4641,-1.4498,-1.3988,-1.3324,-1.2961,-1.2903,-1.3655,-1.5089,-1.5721,-1.6323,-1.6738,-1.7658,-1.8024,-1.8374,-1.8934,-1.9392,-1.9836,-2.0138,-2.0384,-2.0467,-2.1483,-2.2151,-2.2725,-2.322,-2.3577,-2.4008,-2.4587,-2.5037,-2.559,-2.6509,-2.6909,-2.744,-2.8638,-2.8376,-2.7833,-2.7426,-2.7227,-2.7382,-2.7164,-2.6825,-2.71,-2.6905,-2.6282,-2.6035,-2.5766,-2.5433,-2.5503,-2.5406,-2.5059,-2.5121,-2.5044,-2.516,-2.5427,-2.5443,-2.5745,-2.5972,-2.603,-2.6306,-2.6762,-2.7089,-2.7399,-2.7515,-2.7488,-2.7473,-2.7437,-2.7181,-2.6884,-2.687,-2.6712,-2.6379,-2.6272,-2.592,-2.5687,-2.5287,-2.4724,-2.4034,-2.3352,-2.2763,-2.2261,-2.1851,-2.1588,-2.1198,-2.0473,-1.9694,-1.8777,-1.7978,-1.7569,-1.7432,-1.7217,-1.6941,-1.6872,-1.6664,-1.6367,-1.6088,-1.6018,-1.5807,-1.5217,-1.557,-1.579,-1.5728,-1.6167,-1.6026,-1.5816,-1.5596,-1.4942,-1.472,-1.4498,-1.4347,-1.3772,-1.3339,-1.3201,-1.307,-1.2997,-1.2997,-1.2771,-1.2698,-1.2631,-1.2551,-1.1816,-1.1662,-1.1378,-1.0858,-1.2171,-1.3034,-1.3447,-1.4585,-1.5731,-1.5843,-1.5696,-1.6327,-1.7107,-1.6893,-1.702,-1.8348,-1.9304,-1.9868,-2.0871,-2.2261,-2.2763,-2.3088,-2.3339,-2.3715,-2.4239,-2.4754,-2.5725,-2.6651,-2.6985,-2.9113,-2.8543,-2.7976,-2.7607,-2.742,-2.7313,-2.7023,-2.677,-2.6888,-2.71,-2.7132,-2.6822,-2.6438,-2.5986,-2.5582,-2.5373,-2.5389,-2.5635,-2.5411,-2.5373,-2.5373,-2.5799,-2.5726,-2.541,-2.5528,-2.5679,-2.6032,-2.6434,-2.6786,-2.6996,-2.7179,-2.7291,-2.7144,-2.6989,-2.6765,-2.6447,-2.6179,-2.6111,-2.5825,-2.5133,-2.4851,-2.461,-2.3917,-2.3173,-2.2482,-2.2037,-2.1463,-2.0996,-2.0613,-2.0074,-1.9486,-1.8633,-1.7901,-1.7157,-1.6872,-1.6655,-1.6306,-1.6088,-1.5877,-1.5745,-1.5525,-1.5376,-1.5384,-1.4942,-1.4212,-1.3988,-1.414,-1.4355,-1.4791,-1.4942,-1.4728,-1.4514,-1.3787,-1.3273,-1.3048,-1.2896,-1.2178,-1.1601,-1.1391,-1.1105,-1.1105,-1.1099,-1.1031,-1.0956,-1.0962,-1.0887,-1.0732,-1.0657,-1.0426,-0.9739,-0.9938,-1.0209,-1.0336,-1.1694,-1.343,-1.3573,-1.3287,-1.4103,-1.4733,-1.4047,-1.4055,-1.5722,-1.6952,-1.7744,-1.8882,-2.0647,-2.1942,-2.2567,-2.2761,-2.3002,-2.3682,-2.431,-2.4811,-2.5685,-2.6246,-2.8708,-2.7296,-2.6562,-2.61,-2.5983,-2.6881,-2.7041,-2.6784,-2.7733,-2.8027,-2.7607,-2.7439,-2.7126,-2.6856,-2.6624,-2.635,-2.6068,-2.621,-2.6488,-2.6641,-2.621,-2.647,-2.6315,-2.5519,-2.5127,-2.5124,-2.5274,-2.5631,-2.6288,-2.656,-2.6876,-2.7203,-2.7107,-2.6951,-2.6779,-2.65,-2.6272,-2.6002,-2.5605,-2.5021,-2.4284,-2.3865,-2.305,-2.2286,-2.1428,-2.0933,-2.056,-2.042,-2.0226,-1.9748,-1.8793,-1.7804,-1.6982,-1.6228,-1.5869,-1.5438,-1.5226,-1.5084,-1.4879,-1.4593,-1.4299,-1.3852,-1.3571,-1.2851,-1.2265,-1.1822,-1.189,-1.1662,-1.2031,-1.2258,-1.2191,-1.2345,-1.1909,-1.1681,-1.1459,-1.1378,-1.1013,-1.072,-1.0501,-1.0432,-1.0351,-1.0201,-0.9906,-0.9906,-0.9911,-0.9685,-0.8993,-0.8917,-0.8841,-0.838,-0.7999,-0.7986,-0.7893,-0.9105,-1.0971,-1.0997,-1.0991,-1.1885,-1.2158,-1.1303,-1.1522,-1.3353,-1.4529,-1.5436,-1.712,-1.895,-2.0217,-2.0831,-2.236,-2.2662,-2.3301,-2.3859,-2.4323,-2.5078,-2.5955]},{"header":{"parameterUnit":"m.s-1","parameterCategory":1,"la1":31.0,"la2":29.5877,"lo1":-88.7671,"lo2":-86.6584,"dy":0.0162,"dx":0.0185,"nx":115,"ny":88,"refTime":"2023-07-30T18:00:00:Z","depth":0,"parameterNumber":3,"parameterNumberName":"V-component_of_WINDS"},"data":[0.0,0.0,0.0,0.0,0.0,0.0,0.0,0.0,0.0,0.0,0.0,0.0,0.0,0.0,0.0,0.0,0.0,0.0,0.0,0.0,0.0,0.0,0.0,0.0,0.0,0.0,0.0,0.0,0.0,0.0,0.0,0.0,0.0,0.0,0.0,0.0,0.0,0.0,0.0,0.0,0.0,0.0,0.0,0.0,0.0,0.0,0.0,0.0,0.0,0.0,0.0,0.0,0.0,0.0,0.0,0.0,0.0,0.0,0.0,0.0,0.0,0.0,0.0,0.0,0.0,0.0,0.0,0.0,0.0,0.0,0.0,0.0,0.0,0.0,0.0,0.0,0.0,0.0,0.0,0.0,0.0,0.0,0.0,0.0,0.0,0.0,0.0,0.0,0.0,0.0,0.0,0.0,0.0,0.0,0.0,0.0,0.0,0.0,0.0,0.0,0.0,0.0,0.0,0.0,0.0,0.0,0.0,0.0,0.0,0.0,0.0,0.0,0.0,0.0,0.0,0.0,0.0,0.0,0.0,0.0,0.0,0.0,0.0,0.0,0.0,0.0,0.0,0.0,0.0,0.0,0.0,0.0,0.0,0.0,0.0,0.0,0.0,0.0,0.0,0.0,0.0,0.0,0.0,0.0,0.0,0.0,0.0,0.0,0.0,0.0,0.0,0.0,0.0,0.0,0.0,0.0,0.0,0.0,0.0,0.0,0.0,0.0,0.0,0.0,0.0,0.0,0.0,0.0,0.0,0.0,0.0,0.0,0.0,0.0,0.0,0.0,0.0,0.0,0.0,0.0,0.0,0.0,0.0,0.0,0.0,0.0,0.0,0.0,0.0,0.0,0.0,0.0,0.0,0.0,0.0,0.0,0.0,0.0,0.0,0.0,0.0,0.0,0.0,0.0,0.0,0.0,0.0,0.0,0.0,0.0,0.0,0.0,0.0,0.0,0.0,0.0,0.0,0.0,0.0,0.0,0.0,0.0,0.0,0.0,0.0,0.0,0.0,0.0,0.0,0.0,0.0,0.0,0.0,0.0,0.0,0.0,0.0,0.0,0.0,0.0,0.0,0.0,0.0,0.0,0.0,0.0,0.0,0.0,0.0,0.0,0.0,0.0,0.0,0.0,0.0,0.0,0.0,0.0,0.0,0.0,0.0,0.0,0.0,0.0,0.0,0.0,0.0,0.0,0.0,0.0,0.0,0.0,0.0,0.0,0.0,0.0,0.0,0.0,0.0,0.0,0.0,0.0,0.0,0.0,0.0,0.0,0.0,0.0,0.0,0.0,0.0,0.0,0.0,0.0,0.0,0.0,0.0,0.0,0.0,0.0,0.0,0.0,0.0,0.0,0.0,0.0,0.0,0.0,0.0,0.0,0.0,0.0,0.0,0.0,0.0,0.0,0.0,0.0,0.0,0.0,0.0,0.0,0.0,0.0,0.0,0.0,0.0,0.0,0.0,0.0,0.0,0.0,0.0,0.0,0.0,0.0,0.0,0.0,0.0,0.0,0.0,0.0,0.0,0.0,0.0,0.0,0.0,0.0,0.0,0.0,0.0,0.0,0.0,0.0,0.0,0.0,0.0,0.0,0.0,0.0,0.0,0.0,0.0,0.0,0.0,0.0,0.0,0.0,0.0,0.0,0.0,0.0,0.0,0.0,0.0,0.0,0.0,0.0,0.0,0.0,0.0,0.0,0.0,0.0,0.0,0.0,0.0,0.0,0.0,0.0,0.0,0.0,0.0,0.0,0.0,0.0,0.0,0.0,0.0,0.0,0.0,0.0,0.0,0.0,0.0,0.0,0.0,0.0,0.0,0.0,0.0,0.0,0.0,0.0,0.0,0.0,0.0,0.0,0.0,0.0,0.0,0.0,0.0,0.0,0.0,0.0,0.0,0.0,0.0,0.0,0.0,0.0,0.0,0.0,0.0,0.0,0.0,0.0,0.0,0.0,0.0,0.0,0.0,0.0,0.0,0.0,0.0,0.0,0.0,0.0,0.0,0.0,0.0,0.0,0.0,0.0,0.0,0.0,0.0,0.0,0.0,0.0,0.0,0.0,0.0,0.0,0.0,0.0,0.0,0.0,0.0,0.0,0.0,0.0,0.0,0.0,0.0,0.0,0.0,0.0,0.0,0.0,0.0,0.0,0.0,0.0,0.0,0.0,0.0,0.0,0.0,0.0,0.0,0.0,0.0,0.0,0.0,0.0,0.0,0.0,0.0,0.0,0.0,0.0,0.0,0.0,0.0,0.0,0.0,0.0,0.0,0.0,0.0,0.0,0.0,0.0,0.0,0.0,0.0,0.0,0.0,0.0,0.0,0.0,0.0,0.0,0.0,0.0,0.0,0.0,0.0,0.0,0.0,0.0,0.0,0.0,0.0,0.0,0.0,0.0,0.0,0.0,0.0,0.0,0.0,0.0,0.0,0.0,0.0,0.0,0.0,0.0,0.0,0.0,0.0,0.0,0.0,0.0,0.0,0.0,0.0,0.0,0.0,0.0,0.0,0.0,0.0,0.0,0.0,0.0,0.0,0.0,0.0,0.0,0.0,0.0,0.0,0.0,0.0,0.0,0.0,0.0,0.0,0.0,0.0,0.0,0.0,0.0,0.0,0.0,0.0,0.0,0.0,0.0,0.0,0.0,0.0,0.0,0.0,0.0,0.0,0.0,0.0,0.0,0.0,0.0,0.0,0.0,0.0,0.0,0.0,0.0,0.0,0.0,0.0,0.0,0.0,0.0,0.0,0.0,0.0,0.0,0.0,0.0,0.0,0.0,0.0,0.0,0.0,0.0,0.0,0.0,0.0,0.0,0.0,0.0,0.0,0.0,0.0,0.0,0.0,0.0,0.0,0.0,0.0,0.0,0.0,0.0,0.0,0.0,0.0,0.0,0.0,0.0,0.0,0.0,0.0,0.0,0.0,0.0,0.0,0.0,0.0,0.0,0.0,0.0,0.0,0.0,0.0,0.0,0.0,0.0,0.0,0.0,0.0,0.0,0.0,0.0,0.0,0.0,0.0,0.0,0.0,0.0,0.0,0.0,0.0,0.0,0.0,0.0,0.0,0.0,0.0,0.0,0.0,0.0,0.0,0.0,0.0,0.0,0.0,0.0,0.0,0.0,0.0,0.0,0.0,0.0,0.0,0.0,0.0,0.0,0.0,0.0,0.0,0.0,0.0,0.0,0.0,0.0,0.0,0.0,0.0,0.0,0.0,0.0,0.0,0.0,0.0,0.0,0.0,0.0,0.0,0.0,0.0,0.0,0.0,0.0,0.0,0.0,0.0,0.0,0.0,0.0,0.0,0.0,0.0,0.0,0.0,0.0,0.0,0.0,0.0,0.0,0.0,0.0,0.0,0.0,0.0,0.0,0.0,0.0,0.0,0.0,0.0,0.0,0.0,0.0,0.0,0.0,0.0,0.0,0.0,0.0,0.0,0.0,0.0,0.0,0.0,0.0,0.0,0.0,0.0,0.0,0.0,0.0,0.0,0.0,0.0,0.0,0.0,0.0,0.0,0.0,0.0,0.0,0.0,0.0,0.0,0.0,0.0,0.0,0.0,0.0,0.0,0.0,0.0,0.0,0.0,0.0,0.0,0.0,0.0,0.0,0.0,0.0,0.0,0.0,0.0,0.0,0.0,0.0,0.0,0.0,0.0,0.0,0.0,0.0,0.0,0.0,0.0,0.0,0.0,0.0,0.0,0.0,0.0,0.0,0.0,0.0,0.0,0.0,0.0,0.0,0.0,0.0,0.0,0.0,0.0,0.0,0.0,0.0,0.0,0.0,0.0,0.0,0.0,0.0,0.0,0.0,0.0,0.0,0.0,0.0,0.0,0.0,0.0,0.0,0.0,0.0,0.0,0.0,0.0,0.0,0.0,0.0,0.0,0.0,0.0,0.0,0.0,0.0,0.0,0.0,0.0,0.0,0.0,0.0,0.0,0.0,0.0,0.0,0.0,0.0,0.0,0.0,0.0,0.0,0.0,0.0,0.0,0.0,0.0,0.0,0.0,0.0,0.0,0.0,0.0,0.0,0.0,0.0,0.0,0.0,0.0,0.0,0.0,0.0,0.0,0.0,0.0,0.0,0.0,0.0,0.0,0.0,0.0,0.0,0.0,0.0,0.0,0.0,0.0,0.0,0.0,0.0,0.0,0.0,0.0,0.0,0.0,0.0,0.0,0.0,0.0,0.0,0.0,0.0,0.0,0.0,0.0,0.0,0.0,0.0,0.0,0.0,0.0,0.0,0.0,0.0,0.0,0.0,0.0,0.0,0.0,0.0,-0.8546,0.0,0.0,0.0,0.0,0.0,0.0,0.0,0.0,0.0,0.0,0.0,0.0,0.0,0.0,0.0,0.0,0.0,0.0,0.0,0.0,0.0,0.0,0.0,0.0,0.0,0.0,0.0,0.0,0.0,0.0,0.0,0.0,0.0,0.0,0.0,0.0,0.0,0.0,0.0,0.0,0.0,0.0,0.0,0.0,0.0,0.0,0.0,0.0,0.0,0.0,0.0,0.0,0.0,0.0,0.0,0.0,0.0,0.0,0.0,0.0,0.0,0.0,0.0,0.0,0.0,0.0,0.0,0.0,0.0,0.0,0.0,0.0,0.0,0.0,0.0,0.0,0.0,0.0,0.0,0.0,0.0,0.0,0.0,0.0,0.0,0.0,0.0,0.0,0.0,0.0,0.0,0.0,0.0,0.0,0.0,0.0,0.0,0.0,0.0,0.0,0.0,0.0,0.0,0.0,0.0,0.0,0.0,0.0,0.0,0.0,-0.7733,-0.8097,-0.8089,-0.8399,-0.916,0.0,0.0,0.0,0.0,0.0,0.0,0.0,0.0,0.0,0.0,0.0,0.0,0.0,0.0,0.0,0.0,0.0,0.0,0.0,0.0,0.0,0.0,0.0,0.0,0.0,0.0,0.0,0.0,0.0,0.0,0.0,0.0,0.0,0.0,0.0,0.0,0.0,0.0,0.0,0.0,0.0,0.0,0.0,0.0,0.0,0.0,0.0,0.0,0.0,0.0,0.0,0.0,0.0,0.0,0.0,0.0,0.0,0.0,0.0,0.0,0.0,0.0,0.0,0.0,0.0,0.0,0.0,0.0,0.0,0.0,0.0,0.0,0.0,0.0,0.0,0.0,0.0,0.0,0.0,0.0,0.0,0.0,0.0,0.0,0.0,0.0,0.0,0.0,0.0,0.0,0.0,0.0,0.0,0.0,0.0,0.0,0.0,0.0,0.0,0.0,0.0,0.0,0.0,0.0,0.0,0.0,0.0,0.0,0.0,0.0,0.0,0.0,-0.7702,-0.8103,-0.9386,0.0,0.0,0.0,0.0,0.0,0.0,0.0,0.0,0.0,0.0,0.0,0.0,0.0,0.0,0.0,0.0,0.0,0.0,0.0,0.0,0.0,0.0,0.0,0.0,0.0,0.0,0.0,0.0,0.0,0.0,0.0,0.0,0.0,0.0,0.0,0.0,0.0,0.0,0.0,0.0,0.0,0.0,0.0,0.0,0.0,0.0,0.0,0.0,0.0,0.0,0.0,0.0,0.0,0.0,0.0,0.0,0.0,0.0,0.0,0.0,0.0,0.0,0.0,0.0,0.0,0.0,0.0,0.0,0.0,0.0,0.0,0.0,0.0,0.0,0.0,0.0,0.0,0.0,0.0,0.0,0.0,0.0,0.0,0.0,0.0,0.0,0.0,0.0,0.0,0.0,0.0,0.0,0.0,0.0,0.0,0.0,0.0,0.0,0.0,0.0,0.0,0.0,0.0,0.0,0.0,0.0,0.0,0.0,0.0,0.0,-0.7789,-0.6216,-0.6931,0.0,-0.8788,0.0,0.0,0.0,0.0,0.0,0.0,0.0,0.0,0.0,0.0,0.0,0.0,0.0,0.0,0.0,0.0,0.0,0.0,0.0,0.0,0.0,0.0,0.0,0.0,0.0,0.0,0.0,0.0,0.0,0.0,0.0,0.0,0.0,0.0,0.0,0.0,0.0,0.0,0.0,0.0,0.0,0.0,0.0,0.0,0.0,0.0,0.0,0.0,0.0,0.0,0.0,0.0,0.0,0.0,0.0,0.0,0.0,0.0,0.0,0.0,0.0,0.0,0.0,0.0,0.0,0.0,0.0,0.0,0.0,0.0,0.0,0.0,0.0,0.0,0.0,0.0,0.0,0.0,0.0,0.0,0.0,0.0,0.0,0.0,0.0,0.0,0.0,0.0,0.0,0.0,0.0,0.0,0.0,0.0,0.0,0.0,0.0,0.0,0.0,0.0,0.0,0.0,0.0,0.0,0.0,0.0,0.0,0.0,0.0,0.0,-0.6574,-0.6883,-0.7789,-0.8489,0.0,0.0,0.0,0.0,0.0,0.0,0.0,0.0,0.0,0.0,0.0,0.0,0.0,0.0,0.0,0.0,0.0,0.0,0.0,0.0,0.0,0.0,0.0,0.0,0.0,0.0,0.0,0.0,0.0,0.0,0.0,0.0,0.0,0.0,0.0,0.0,0.0,0.0,0.0,0.0,0.0,0.0,0.0,0.0,0.0,0.0,0.0,0.0,0.0,0.0,0.0,0.0,0.0,0.0,0.0,0.0,0.0,0.0,0.0,0.0,0.0,0.0,0.0,0.0,0.0,0.0,0.0,0.0,0.0,0.0,0.0,0.0,0.0,0.0,0.0,0.0,0.0,0.0,0.0,0.0,0.0,0.0,0.0,0.0,0.0,0.0,0.0,0.0,0.0,0.0,0.0,0.0,0.0,0.0,0.0,0.0,0.0,0.0,0.0,0.0,0.0,0.0,0.0,0.0,0.0,0.0,0.0,0.0,0.0,0.0,-0.5405,-0.5795,-0.6836,-0.7733,-0.8354,-0.8618,0.0,0.0,0.0,0.0,0.0,0.0,0.0,0.0,0.0,0.0,0.0,0.0,0.0,0.0,0.0,0.0,0.0,0.0,0.0,0.0,0.0,0.0,0.0,0.0,0.0,0.0,0.0,0.0,0.0,0.0,0.0,0.0,0.0,0.0,0.0,0.0,0.0,0.0,0.0,0.0,0.0,0.0,0.0,0.0,0.0,0.0,0.0,0.0,0.0,0.0,0.0,0.0,0.0,0.0,0.0,0.0,0.0,0.0,0.0,0.0,0.0,0.0,0.0,0.0,0.0,0.0,0.0,0.0,0.0,0.0,0.0,0.0,0.0,0.0,0.0,0.0,0.0,0.0,0.0,0.0,0.0,0.0,0.0,0.0,0.0,0.0,0.0,0.0,0.0,0.0,0.0,0.0,0.0,0.0,0.0,0.0,0.0,0.0,0.0,0.0,0.0,0.0,0.0,0.0,0.0,0.0,0.0,0.0,-0.4868,-0.5742,-0.5958,-0.5196,-0.5858,-0.6706,0.0,0.0,0.0,0.0,0.0,0.0,0.0,0.0,0.0,0.0,0.0,0.0,0.0,0.0,0.0,0.0,0.0,0.0,0.0,0.0,0.0,0.0,0.0,0.0,0.0,0.0,0.0,0.0,0.0,0.0,0.0,0.0,0.0,0.0,0.0,0.0,0.0,0.0,0.0,0.0,0.0,0.0,0.0,0.0,0.0,0.0,0.0,0.0,0.0,0.0,0.0,0.0,0.0,0.0,0.0,0.0,0.0,0.0,0.0,0.0,0.0,0.0,0.0,0.0,0.0,0.0,0.0,0.0,0.0,0.0,0.0,0.0,0.0,0.0,0.0,0.0,0.0,0.0,0.0,0.0,0.0,0.0,0.0,0.0,0.0,0.0,0.0,0.0,0.0,0.0,0.0,0.0,0.0,0.0,0.0,0.0,0.0,0.0,0.0,0.0,0.0,0.0,0.0,0.0,0.0,0.0,0.0,0.0,0.0,-0.5086,-0.547,-0.5517,-0.5106,-0.5844,-0.6626,0.0,0.0,0.0,0.0,0.0,0.0,0.0,0.0,0.0,0.0,0.0,0.0,0.0,0.0,0.0,0.0,0.0,0.0,0.0,0.0,0.0,0.0,0.0,0.0,0.0,0.0,0.0,0.0,0.0,0.0,0.0,0.0,0.0,0.0,0.0,0.0,0.0,0.0,0.0,0.0,0.0,0.0,0.0,0.0,0.0,0.0,0.0,0.0,0.0,0.0,0.0,0.0,0.0,0.0,0.0,0.0,0.0,0.0,0.0,0.0,0.0,0.0,0.0,0.0,0.0,0.0,0.0,0.0,0.0,0.0,0.0,0.0,0.0,0.0,0.0,0.0,0.0,0.0,0.0,0.0,0.0,0.0,0.0,0.0,0.0,0.0,0.0,0.0,0.0,0.0,0.0,0.0,0.0,0.0,0.0,0.0,0.0,0.0,0.0,0.0,0.0,0.0,0.0,0.0,0.0,0.0,0.0,0.0,0.0,-0.5237,0.0,-0.5325,-0.5229,-0.6009,-0.6728,0.0,0.0,0.0,0.0,0.0,0.0,0.0,0.0,0.0,0.0,0.0,0.0,0.0,0.0,0.0,0.0,0.0,0.0,0.0,0.0,0.0,0.0,0.0,0.0,0.0,0.0,0.0,0.0,0.0,0.0,0.0,0.0,0.0,0.0,0.0,0.0,0.0,0.0,0.0,0.0,0.0,0.0,0.0,0.0,0.0,0.0,0.0,0.0,0.0,0.0,0.0,0.0,0.0,0.0,0.0,0.0,0.0,0.0,0.0,0.0,0.0,0.0,0.0,0.0,0.0,0.0,0.0,0.0,0.0,0.0,0.0,0.0,0.0,0.0,0.0,0.0,0.0,0.0,0.0,0.0,0.0,0.0,0.0,0.0,0.0,0.0,0.0,0.0,0.0,0.0,0.0,0.0,0.0,0.0,0.0,0.0,0.0,0.0,0.0,0.0,0.0,0.0,0.0,0.0,0.0,0.0,0.0,0.0,-0.5307,-0.5372,-0.5435,-0.5365,-0.5428,-0.6013,-0.6789,0.0,0.0,0.0,0.0,0.0,0.0,0.0,0.0,0.0,0.0,0.0,0.0,0.0,0.0,0.0,0.0,0.0,0.0,0.0,0.0,0.0,0.0,0.0,0.0,0.0,0.0,0.0,0.0,0.0,0.0,0.0,0.0,0.0,0.0,0.0,0.0,0.0,0.0,0.0,0.0,0.0,0.0,0.0,0.0,0.0,0.0,0.0,0.0,0.0,0.0,0.0,0.0,0.0,0.0,0.0,0.0,0.0,0.0,0.0,0.0,0.0,0.0,0.0,0.0,0.0,0.0,0.0,0.0,0.0,0.0,0.0,0.0,0.0,0.0,0.0,0.0,0.0,0.0,0.0,0.0,0.0,0.0,0.0,0.0,0.0,0.0,0.0,0.0,0.0,0.0,0.0,0.0,0.0,0.0,0.0,0.0,0.0,0.0,0.0,0.0,0.0,0.0,0.0,0.0,0.0,0.0,0.0,0.0,0.0,-0.5432,-0.5428,-0.5428,-0.5428,-0.562,-0.6276,0.0,0.0,0.0,0.0,0.0,0.0,0.0,0.0,0.0,0.0,0.0,0.0,0.0,0.0,0.0,0.0,0.0,0.0,0.0,0.0,0.0,0.0,0.0,0.0,0.0,0.0,0.0,0.0,0.0,0.0,0.0,0.0,0.0,0.0,0.0,0.0,0.0,0.0,0.0,0.0,0.0,0.0,0.0,0.0,0.0,0.0,0.0,0.0,0.0,0.0,0.0,0.0,0.0,0.0,0.0,0.0,0.0,0.0,0.0,0.0,0.0,0.0,0.0,0.0,0.0,0.0,0.0,0.0,0.0,0.0,0.0,0.0,0.0,0.0,0.0,0.0,0.0,0.0,0.0,0.0,0.0,0.0,0.0,0.0,0.0,0.0,0.0,0.0,0.0,0.0,0.0,0.0,0.0,0.0,0.0,0.0,0.0,0.0,0.0,0.0,0.0,0.0,0.0,0.0,0.0,0.0,0.0,0.0,0.0,-0.5525,-0.5525,-0.5525,-0.5525,-0.5597,-0.6277,-0.7587,0.0,0.0,0.0,0.0,0.0,0.0,0.0,0.0,0.0,0.0,0.0,0.0,0.0,0.0,0.0,0.0,0.0,0.0,0.0,0.0,0.0,0.0,0.0,0.0,0.0,0.0,0.0,0.0,0.0,0.0,0.0,0.0,0.0,0.0,0.0,0.0,0.0,0.0,0.0,0.0,0.0,0.0,0.0,0.0,0.0,0.0,0.0,0.0,0.0,0.0,0.0,0.0,0.0,0.0,0.0,0.0,0.0,0.0,0.0,0.0,0.0,0.0,0.0,0.0,0.0,0.0,0.0,0.0,0.0,0.0,0.0,0.0,0.0,0.0,0.0,0.0,0.0,0.0,0.0,0.0,0.0,0.0,0.0,0.0,0.0,0.0,0.0,0.0,0.0,0.0,0.0,0.0,0.0,0.0,0.0,0.0,0.0,0.0,0.0,0.0,0.0,0.0,0.0,0.0,0.0,0.0,0.0,0.0,-0.5827,-0.5844,-0.5844,-0.5827,-0.6029,-0.6716,0.0,0.0,0.0,0.0,0.0,0.0,0.0,0.0,0.0,0.0,0.0,0.0,0.0,0.0,0.0,0.0,0.0,0.0,0.0,0.0,0.0,0.0,0.0,0.0,0.0,0.0,0.0,0.0,0.0,0.0,0.0,0.0,0.0,0.0,0.0,0.0,0.0,0.0,0.0,0.0,0.0,0.0,0.0,0.0,0.0,0.0,0.0,0.0,0.0,0.0,0.0,0.0,0.0,0.0,0.0,0.0,0.0,0.0,0.0,0.0,0.0,0.0,0.0,0.0,0.0,0.0,0.0,0.0,0.0,0.0,0.0,0.0,0.0,0.0,0.0,0.0,0.0,0.0,0.0,0.0,0.0,0.0,0.0,0.0,0.0,0.0,0.0,0.0,0.0,0.0,0.0,0.0,0.0,0.0,0.0,0.0,0.0,0.0,0.0,0.0,0.0,0.0,0.0,0.0,0.0,0.0,0.0,0.0,0.0,-0.6139,-0.6352,-0.6438,-0.637,-0.6065,-0.6687,0.0,0.0,0.0,0.0,0.0,0.0,0.0,0.0,0.0,0.0,0.0,0.0,0.0,0.0,0.0,0.0,0.0,0.0,0.0,0.0,0.0,0.0,0.0,0.0,0.0,0.0,0.0,0.0,0.0,0.0,0.0,0.0,0.0,0.0,0.0,0.0,0.0,0.0,0.0,0.0,0.0,0.0,0.0,0.0,0.0,0.0,0.0,0.0,0.0,0.0,0.0,0.0,0.0,0.0,0.0,0.0,0.0,0.0,0.0,0.0,0.0,0.0,0.0,0.0,0.0,0.0,0.0,0.0,0.0,0.0,0.0,0.0,0.0,0.0,0.0,0.0,0.0,0.0,0.0,0.0,0.0,0.0,0.0,0.0,0.0,0.0,0.0,0.0,0.0,0.0,0.0,0.0,0.0,0.0,0.0,0.0,0.0,0.0,0.0,0.0,0.0,0.0,0.0,0.0,0.0,0.0,0.0,0.0,-0.6112,-0.6349,-0.6785,-0.7059,-0.7126,-0.6827,-0.7236,0.0,0.0,0.0,0.0,0.0,0.0,0.0,0.0,0.0,0.0,0.0,0.0,0.0,0.0,0.0,0.0,0.0,0.0,0.0,0.0,0.0,0.0,0.0,0.0,0.0,0.0,0.0,0.0,0.0,0.0,0.0,0.0,0.0,0.0,0.0,0.0,0.0,0.0,0.0,0.0,0.0,0.0,0.0,0.0,0.0,0.0,0.0,0.0,0.0,0.0,0.0,0.0,0.0,0.0,0.0,0.0,0.0,0.0,0.0,0.0,0.0,0.0,0.0,0.0,0.0,0.0,0.0,0.0,0.0,0.0,0.0,0.0,0.0,0.0,0.0,0.0,0.0,0.0,0.0,0.0,0.0,0.0,0.0,0.0,0.0,0.0,0.0,0.0,0.0,0.0,0.0,0.0,0.0,0.0,0.0,0.0,0.0,0.0,0.0,0.0,0.0,0.0,0.0,0.0,0.0,0.0,0.0,0.0,-0.6431,-0.6575,-0.7182,-0.7683,-0.7925,-0.7854,-0.8146,0.0,0.0,0.0,0.0,0.0,0.0,0.0,0.0,0.0,0.0,0.0,0.0,0.0,0.0,0.0,0.0,0.0,0.0,0.0,0.0,0.0,0.0,0.0,0.0,0.0,0.0,0.0,0.0,0.0,0.0,0.0,0.0,0.0,0.0,0.0,0.0,0.0,0.0,0.0,0.0,0.0,0.0,0.0,0.0,0.0,0.0,0.0,0.0,0.0,0.0,0.0,0.0,0.0,0.0,0.0,0.0,0.0,0.0,0.0,0.0,0.0,0.0,0.0,0.0,0.0,0.0,0.0,0.0,0.0,0.0,0.0,0.0,0.0,0.0,0.0,0.0,0.0,0.0,0.0,0.0,0.0,0.0,0.0,0.0,0.0,0.0,0.0,0.0,0.0,0.0,0.0,0.0,0.0,0.0,0.0,0.0,0.0,0.0,0.0,0.0,0.0,0.0,0.0,0.0,0.0,0.0,0.0,0.0,-0.6903,-0.6976,-0.7494,-0.7944,-0.8109,-0.8006,-0.8339,0.0,0.0,0.0,0.0,0.0,0.0,0.0,0.0,0.0,0.0,0.0,0.0,0.0,0.0,0.0,0.0,0.0,0.0,0.0,0.0,0.0,0.0,0.0,0.0,0.0,0.0,0.0,0.0,0.0,0.0,0.0,0.0,0.0,0.0,0.0,0.0,0.0,0.0,0.0,0.0,0.0,0.0,0.0,0.0,0.0,0.0,0.0,0.0,-0.2085,0.0,0.0,0.0,0.0,0.0,0.0,0.0,0.0,0.0,0.0,0.0,0.0,0.0,0.0,0.0,0.0,0.0,0.0,0.0,0.0,0.0,0.0,0.0,0.0,0.0,0.0,0.0,0.0,0.0,0.0,0.0,0.0,0.0,0.0,0.0,0.0,0.0,0.0,0.0,0.0,0.0,0.0,0.0,0.0,0.0,0.0,0.0,0.0,0.0,0.0,0.0,0.0,0.0,0.0,0.0,0.0,0.0,0.0,0.0,-0.7108,-0.7495,-0.8273,-0.8761,-0.8996,-0.9447,-0.9663,0.0,0.0,0.0,0.0,0.0,0.0,0.0,0.0,0.0,0.0,0.0,0.0,0.0,0.0,0.0,0.0,0.0,0.0,0.0,0.0,0.0,0.0,0.0,0.0,0.0,0.0,0.0,0.0,0.0,0.0,0.0,0.0,0.0,0.0,0.0,0.0,0.0,0.0,0.0,0.0,0.0,0.0,0.0,0.0,0.0,0.0,0.0,0.0,0.0,0.0,0.0,0.0,0.0,0.0,0.0,0.0,0.0,0.0,0.0,0.0,0.0,0.0,0.0,0.0,0.0,0.0,0.0,0.0,0.0,0.0,0.0,0.0,0.0,0.0,0.0,0.0,0.0,0.0,0.0,0.0,0.0,0.0,0.0,0.0,0.0,0.0,0.0,0.0,0.0,0.0,0.0,0.0,0.0,0.0,0.0,0.0,0.0,0.0,0.0,0.0,0.0,0.0,0.0,0.0,0.0,0.0,0.0,-0.6727,-0.7289,-0.7952,-0.8907,-0.9596,-0.9966,-1.0988,-1.1021,-0.9911,0.0,0.0,0.0,0.0,0.0,0.0,0.0,0.0,0.0,0.0,0.0,0.0,0.0,0.0,0.0,0.0,0.0,0.0,0.0,0.0,0.0,0.0,0.0,0.0,0.0,0.0,0.0,0.0,0.0,0.0,0.0,0.0,0.0,0.0,0.0,0.0,0.0,0.0,0.1361,0.1188,0.0,0.0,0.0,0.0,0.0,0.0,0.0,0.0,-0.2609,0.0,0.0,0.0,0.0,0.0,0.0,0.0,0.0,0.0,0.0,0.0,0.0,0.0,0.0,0.0,0.0,0.0,0.0,0.0,0.0,0.0,0.0,0.0,0.0,0.0,0.0,0.0,0.0,0.0,0.0,0.0,0.0,0.0,0.0,0.0,0.0,0.0,0.0,0.0,0.0,0.0,0.0,0.0,0.0,0.0,0.0,0.0,0.0,0.0,0.0,0.0,0.0,0.0,0.0,0.0,0.0,-0.6594,-0.7096,-0.7666,-0.8399,-0.8637,-0.9168,-1.0131,-1.0475,-1.0611,-1.0732,0.0,0.0,0.0,0.0,0.0,0.0,0.0,0.0,0.0,0.0,0.0,0.0,0.0,0.0,0.0,0.0,0.0,0.0,0.0,0.0,0.0,0.0,0.0,0.0,0.0,0.0,0.0,0.0,0.0,0.0,0.0,0.0,0.0,0.0,0.0,0.0,0.0,0.0,0.0,0.0068,-0.02,0.0,0.0,0.0,0.0,0.0,0.0,0.0,0.0,-0.4117,0.0,0.0,0.0,0.0,0.0,0.0,0.0,0.0,0.0,0.0,0.0,0.0,0.0,0.0,0.0,0.0,0.0,0.0,0.0,0.0,0.0,0.0,0.0,0.0,0.0,0.0,0.0,0.0,0.0,0.0,0.0,0.0,0.0,0.0,0.0,0.0,0.0,0.0,0.0,0.0,0.0,0.0,0.0,0.0,0.0,0.0,0.0,0.0,0.0,0.0,0.0,0.0,0.0,0.0,0.0,-0.6865,-0.7918,-0.8585,-0.8842,-0.914,-0.9837,-1.101,-1.1131,-1.1251,0.0,0.0,0.0,0.0,0.0,0.0,0.0,0.0,0.0,0.0,0.0,0.0,0.0,0.0,0.0,0.0,0.0,0.0,0.0,0.0,0.0,0.0,0.0,0.0,0.0,0.0,0.0,0.0,0.0,0.0,0.0,0.0,0.0,0.0,0.0,0.0,0.0,0.0,0.0,0.0,0.0488,0.0208,-0.045,0.0,0.0,0.0,0.0,0.0,0.0,-0.3648,-0.4183,0.0,0.0,0.0,0.0,0.0,0.0,0.0,0.0,0.0,0.0,0.0,0.0,0.0,0.0,0.0,0.0,0.0,0.0,0.0,0.0,0.0,0.0,0.0,0.0,0.0,0.0,0.0,0.0,0.0,0.0,0.0,0.0,0.0,0.0,0.0,0.0,0.0,0.0,0.0,0.0,0.0,0.0,0.0,0.0,0.0,0.0,0.0,0.0,0.0,0.0,0.0,0.0,0.0,0.0,0.0,-0.7411,-0.8869,-0.9611,-0.9635,-0.9962,-1.0828,-1.201,-1.1833,-1.1856,0.0,0.0,0.0,0.0,0.0,0.0,0.0,0.0,0.0,0.0,0.0,0.0,0.0,0.0,0.0,0.0,0.0,0.0,0.0,0.0,0.0,0.0,0.0,0.0,0.0,0.0,0.0,0.0,0.0,0.0,0.0,0.0,0.0,0.0,0.0,0.0,0.0,0.0,0.0,0.0,0.0,0.0577,-0.0544,-0.0663,0.0,0.0,0.0,0.0,-0.2881,-0.3649,0.0,0.0,0.0,0.0,0.0,0.0,0.0,0.0,0.0,0.0,0.0,0.0,0.0,0.0,0.0,0.0,0.0,0.0,0.0,0.0,0.0,0.0,0.0,0.0,0.0,0.0,0.0,0.0,0.0,0.0,0.0,0.0,0.0,0.0,0.0,0.0,0.0,0.0,0.0,0.0,0.0,0.0,0.0,0.0,0.0,0.0,0.0,0.0,0.0,0.0,0.0,0.0,0.0,0.0,0.0,0.0,-0.8466,-0.9677,-1.0653,-1.13,-1.12,-1.1712,-1.2839,-1.1632,-1.139,0.0,0.0,0.0,0.0,0.0,0.0,0.0,0.0,0.0,0.0,0.0,0.0,0.0,0.0,0.0,0.0,0.0,0.0,0.0,0.0,0.0,0.0,0.0,0.0,0.0,0.0,0.0,0.0,0.0,0.0,0.0,0.0,0.0,0.0,0.0,0.0,0.0,0.0,0.0,0.0,0.0,-0.036,-0.0855,-0.0884,-0.0778,0.0,0.0,-0.3333,-0.3411,-0.4738,0.0,0.0,0.0,0.0,0.0,0.0,0.0,0.0,0.0,0.0,0.0,0.0,0.0,0.0,0.0,0.0,0.0,0.0,0.0,0.0,0.0,0.0,0.0,0.0,0.0,0.0,0.0,0.0,0.0,0.0,0.0,0.0,0.0,0.0,0.0,0.0,0.0,0.0,0.0,0.0,0.0,0.0,0.0,0.0,0.0,0.0,0.0,0.0,0.0,0.0,0.0,0.0,0.0,0.0,0.0,-0.9247,-0.8708,-1.0719,-1.1736,-1.1639,-1.1353,-1.1869,-1.2985,-1.1635,-1.1316,0.0,0.0,0.0,0.0,0.0,0.0,0.0,0.0,0.0,0.0,0.0,0.0,0.0,0.0,0.0,0.0,0.0,0.0,0.0,0.0,0.0,0.0,0.0,0.0,0.0,0.0,0.0,0.0,0.0,0.0,0.0,0.0,0.0,0.0,0.0,0.0,0.0,0.0,0.0,0.0,0.0,0.0,-0.1484,-0.1527,0.0,0.0,0.0,-0.3736,-0.3455,0.0,0.0,0.0,0.0,0.0,0.0,0.0,0.0,0.0,0.0,0.0,0.0,0.0,0.0,0.0,0.0,0.0,0.0,0.0,0.0,0.0,0.0,0.0,0.0,0.0,0.0,0.0,0.0,0.0,0.0,0.0,0.0,0.0,0.0,0.0,0.0,0.0,0.0,0.0,0.0,0.0,0.0,0.0,0.0,0.0,0.0,0.0,0.0,0.0,0.0,0.0,0.0,0.0,0.0,0.0,0.0,0.0,-0.9387,-1.1747,-1.2795,-1.2272,-1.2106,-1.2445,-1.3225,-1.2135,0.0,0.0,0.0,0.0,0.0,0.0,0.0,0.0,0.0,0.0,0.0,0.0,0.0,0.0,0.0,0.0,0.0,0.0,0.0,0.0,0.0,0.0,0.0,0.0,0.0,0.0,0.0,-0.6913,0.0,0.0,0.0,0.0,0.0,0.0,0.0,0.0,0.0,0.0,0.0,0.0,0.0,0.0,-0.1096,-0.2037,-0.2128,-0.2238,0.0,0.0,-0.4291,-0.4108,-0.557,-0.6456,0.0,0.0,0.0,0.0,0.0,0.0,0.0,0.0,0.0,0.0,0.0,0.0,0.0,0.0,0.0,0.0,0.0,0.0,0.0,0.0,0.0,0.0,0.0,0.0,0.0,0.0,0.0,0.0,0.0,0.0,0.0,0.0,0.0,0.0,0.0,0.0,0.0,0.0,0.0,0.0,0.0,0.0,0.0,0.0,0.0,0.0,0.0,0.0,0.0,0.0,0.0,0.0,0.0,0.0,-1.0565,-1.1135,-1.2988,-1.3926,-1.3946,-1.3926,-1.3926,-1.4017,-1.3406,-1.2802,0.0,0.0,0.0,0.0,0.0,0.0,0.0,0.0,0.0,0.0,0.0,0.0,0.0,0.0,0.0,0.0,0.0,0.0,0.0,0.0,0.0,0.0,0.0,0.0,0.0,0.0,0.0,0.0,0.0,0.0,0.0,0.0,0.0,0.0,0.0,0.0,0.0,0.0,0.0,0.0,0.0,-0.1803,-0.2353,-0.2479,-0.2799,0.0,-0.4318,-0.5157,-0.5793,-0.6775,-0.7285,-0.6546,0.0,0.0,0.0,0.0,0.0,0.0,0.0,0.0,0.0,0.0,0.0,0.0,0.0,0.0,0.0,0.0,0.0,0.0,0.0,0.0,0.0,0.0,0.0,0.0,0.0,0.0,0.0,0.0,0.0,0.0,0.0,0.0,0.0,0.0,0.0,0.0,0.0,0.0,0.0,0.0,0.0,0.0,0.0,0.0,0.0,0.0,0.0,0.0,0.0,0.0,0.0,0.0,0.0,-1.1397,-1.1335,-1.315,-1.4088,-1.4088,-1.4088,-1.4088,-1.4088,-1.352,-1.3158,0.0,0.0,0.0,0.0,0.0,0.0,0.0,0.0,0.0,0.0,0.0,0.0,0.0,0.0,0.0,0.0,0.0,0.0,0.0,0.0,0.0,0.0,0.0,0.0,0.0,0.0,0.0,0.0,-0.6979,-0.6384,-0.545,0.0,0.0,0.0,0.0,0.0,0.0,0.0,0.0,0.0,0.0,-0.2508,-0.3082,-0.3619,0.0,0.0,-0.5393,-0.6192,-0.63,-0.6926,-0.7218,-0.6457,-0.6118,0.0,0.0,0.0,0.0,0.0,0.0,0.0,0.0,0.0,0.0,0.0,0.0,0.0,0.0,0.0,0.0,0.0,0.0,0.0,0.0,0.0,0.0,0.0,0.0,0.0,0.0,0.0,0.0,0.0,0.0,0.0,0.0,0.0,0.0,0.0,0.0,0.0,0.0,0.0,0.0,0.0,0.0,0.0,0.0,0.0,0.0,0.0,0.0,0.0,0.0,0.0,0.0,-1.1855,-1.1632,-1.3231,-1.4088,-1.4088,-1.4088,-1.4088,-1.4075,-1.3687,-1.3495,0.0,0.0,0.0,0.0,0.0,0.0,0.0,0.0,0.0,0.0,0.0,0.0,0.0,0.0,0.0,0.0,0.0,0.0,0.0,0.0,0.0,0.0,0.0,0.0,0.0,0.0,0.0,0.0,-0.7252,-0.6647,-0.6102,0.0,0.0,0.0,0.0,0.0,0.0,0.0,0.0,0.0,0.0,-0.3258,-0.3685,-0.421,-0.4695,-0.4956,-0.5804,-0.6439,-0.6427,-0.6977,-0.7181,-0.6695,0.0,0.0,0.0,0.0,0.0,0.0,0.0,0.0,0.0,0.0,0.0,0.0,0.0,0.0,0.0,0.0,0.0,0.0,0.0,0.0,0.0,0.0,0.0,0.0,0.0,0.0,0.0,-0.8929,0.0,0.0,-1.0541,0.0,0.0,0.0,0.0,0.0,0.0,0.0,0.0,0.0,0.0,0.0,0.0,0.0,0.0,0.0,0.0,0.0,0.0,0.0,0.0,0.0,0.0,-1.162,-1.2311,-1.348,-1.4088,-1.4088,-1.4088,-1.4088,-1.4088,-1.4068,-1.4186,-1.4491,0.0,0.0,0.0,0.0,0.0,0.0,0.0,0.0,0.0,0.0,0.0,0.0,0.0,0.0,0.0,0.0,0.0,0.0,0.0,0.0,0.0,0.0,0.0,0.0,0.0,0.0,-0.7598,-0.7021,-0.6655,0.0,0.0,0.0,0.0,0.0,0.0,0.0,0.0,0.0,-0.3559,-0.3938,-0.4134,-0.4057,-0.4042,-0.4342,-0.4949,-0.5355,-0.5674,-0.6341,-0.6996,-0.7469,0.0,0.0,0.0,0.0,0.0,0.0,0.0,0.0,0.0,0.0,0.0,0.0,0.0,0.0,0.0,0.0,0.0,0.0,0.0,0.0,0.0,0.0,0.0,0.0,0.0,0.0,0.0,-1.0236,-0.9863,0.0,0.0,0.0,0.0,0.0,0.0,0.0,0.0,0.0,0.0,0.0,-1.2689,-1.255,0.0,0.0,0.0,0.0,0.0,0.0,0.0,0.0,0.0,0.0,0.0,0.0,-1.2077,-1.2358,-1.348,-1.4088,-1.4088,-1.4088,-1.4088,-1.4088,-1.4657,-1.5094,-1.5374,0.0,0.0,0.0,0.0,0.0,0.0,0.0,0.0,0.0,0.0,0.0,0.0,0.0,0.0,0.0,0.0,0.0,0.0,0.0,0.0,0.0,0.0,0.0,0.0,0.0,-0.8608,0.0,0.0,0.0,0.0,0.0,0.0,0.0,0.0,0.0,0.0,0.0,-0.3716,-0.3959,-0.4401,-0.4821,-0.4975,-0.5899,-0.6687,0.0,0.0,0.0,0.0,0.0,0.0,0.0,0.0,0.0,0.0,0.0,0.0,0.0,0.0,-0.915,-0.8495,-0.7961,-0.7536,-0.731,0.0,0.0,0.0,0.0,0.0,0.0,0.0,0.0,0.0,0.0,0.0,0.0,0.0,0.0,-1.1254,0.0,-1.1507,0.0,0.0,0.0,0.0,0.0,0.0,0.0,0.0,-1.3209,-1.3308,-1.336,-1.336,-1.336,0.0,-1.2946,-1.2273,0.0,0.0,0.0,0.0,0.0,0.0,0.0,0.0,-1.2305,-1.2351,-1.348,-1.4088,-1.4088,-1.4088,-1.425,-1.458,-1.5718,-1.6403,-1.6579,-1.7075,-1.6872,0.0,0.0,0.0,0.0,0.0,0.0,0.0,0.0,0.0,0.0,0.0,0.0,0.0,0.0,0.0,0.0,0.0,0.0,0.0,0.0,0.0,0.0,0.0,-0.8686,0.0,0.0,0.0,0.0,0.0,0.0,0.0,0.0,0.0,-0.4668,-0.4833,-0.5103,-0.5416,-0.5852,-0.6177,-0.6332,0.0,0.0,0.0,0.0,0.0,0.0,0.0,-0.7521,-0.7525,-0.7269,-0.7096,-0.7477,-0.833,-0.9165,-0.9843,0.0,0.0,-1.0428,-0.9587,-0.8891,-0.8733,-0.7931,-0.7231,-0.721,-0.7022,-0.6898,0.0,0.0,0.0,0.0,0.0,0.0,0.0,0.0,-1.1576,-1.2104,0.0,-1.3386,0.0,0.0,0.0,0.0,-1.4234,-1.4159,0.0,0.0,-1.5139,-1.4814,-1.3763,-1.3743,-1.3736,-1.3716,-1.3165,-1.3024,-1.318,-1.2639,0.0,0.0,0.0,0.0,0.0,0.0,-1.2325,-1.2378,-1.3494,-1.4088,-1.4173,-1.4088,-1.4496,-1.5477,-1.7107,-1.7997,-1.8043,-1.8091,-1.8146,-1.8082,-1.6624,0.0,0.0,0.0,0.0,0.0,0.0,0.0,0.0,0.0,0.0,0.0,0.0,0.0,0.0,0.0,0.0,0.0,0.0,0.0,0.0,-0.9969,0.0,0.0,0.0,0.0,0.0,0.0,0.0,0.0,0.0,0.0,-0.5987,-0.6867,-0.7661,-0.7591,0.0,0.0,0.0,0.0,-0.7302,-0.7108,-0.6875,-0.6847,-0.6835,-0.7476,-0.8126,-0.8479,0.0,0.0,-0.8667,-0.8918,-0.9229,-0.9306,-1.0639,-1.1581,-1.1968,-1.0648,-0.9499,-0.9335,-0.8546,-0.7666,-0.7658,-0.7727,-0.7473,-1.1548,0.0,0.0,0.0,0.0,-1.1615,-1.2441,-1.3244,-1.3579,-1.3964,-1.4374,-1.4797,0.0,0.0,0.0,0.0,0.0,0.0,-1.5315,-1.5795,-1.6006,-1.6133,-1.624,-1.5928,-1.5944,-1.6232,-1.5174,-1.4703,-1.4707,-1.3981,-1.2953,-1.1757,0.0,0.0,0.0,0.0,-1.2726,-1.2979,-1.3701,-1.4419,-1.4992,-1.4419,-1.4817,-1.6288,-1.7423,-1.8318,-1.8895,-1.8925,-1.8705,-1.8146,-1.7678,0.0,0.0,0.0,0.0,0.0,0.0,0.0,0.0,0.0,0.0,0.0,0.0,0.0,0.0,0.0,0.0,0.0,0.0,0.0,-1.0767,-1.0423,-0.9937,0.0,0.0,0.0,0.0,0.0,0.0,0.0,0.0,0.0,-0.8412,-0.7726,-0.712,0.0,0.0,-0.8185,-0.7453,-0.8549,-0.9407,-0.9306,-0.8828,0.0,-0.8581,-0.8197,-0.8089,-0.8333,-0.8775,-0.9035,-0.8762,-0.9732,-1.0841,-1.1548,-1.262,-1.3677,-1.4409,-1.3037,-1.201,-1.2498,-1.1384,-1.0175,-1.0068,-0.9234,-0.8395,-1.2699,-1.1934,-1.1995,-1.2066,-1.2169,-1.2695,-1.3521,-1.464,-1.4812,-1.5304,-1.6063,-1.6531,-1.6352,-1.5762,-1.5618,0.0,0.0,0.0,-1.6635,-1.7171,-1.7251,-1.7302,-1.7544,-1.7147,-1.7092,-1.7267,-1.636,-1.5884,-1.5884,-1.527,-1.4497,-1.3433,0.0,0.0,-1.2291,-1.3414,-1.4084,-1.4223,-1.4828,-1.5394,-1.5884,-1.5718,-1.6124,-1.7188,-1.8078,-1.8727,-1.9292,-1.9292,-1.9081,-1.8614,-1.8293,-1.7678,0.0,0.0,0.0,0.0,0.0,0.0,0.0,0.0,0.0,0.0,0.0,-1.5939,-1.4194,0.0,0.0,0.0,-1.3293,-1.256,-1.163,-1.139,0.0,0.0,0.0,0.0,0.0,0.0,0.0,-0.9101,-0.9933,-1.0454,-1.0154,-0.9364,-0.8729,-0.85,-0.9411,-0.9818,-0.9165,0.0,-1.0714,-1.0546,-1.0004,-0.9607,-0.9607,-0.9035,-0.8734,-0.9099,-0.9768,-1.0186,-1.0255,-1.1005,-1.1809,-1.2395,-1.3076,-1.3815,-1.4652,-1.3772,-1.3282,-1.4046,-1.2849,-1.1631,-1.1149,-1.022,-0.9343,-1.3414,-1.4214,-1.3242,-1.2982,-1.3212,-1.3306,-1.404,-1.5232,-1.5761,-1.6541,-1.7539,-1.8385,-1.832,-1.7633,-1.694,0.0,-1.8154,-1.7914,-1.8072,-1.8671,-1.8671,-1.8524,-1.807,-1.7689,-1.7519,-1.7535,-1.703,-1.6772,-1.6764,-1.6469,-1.6126,-1.5782,-1.5087,-1.4394,-1.391,-1.5145,-1.5867,-1.5899,-1.6381,-1.6698,-1.6698,-1.7594,-1.8078,-1.7997,-1.8807,-1.9301,-1.9292,-1.9292,-1.9292,-1.9274,-1.8605,-1.8192,-1.8082,0.0,0.0,0.0,0.0,0.0,0.0,0.0,0.0,0.0,0.0,0.0,0.0,0.0,0.0,0.0,-1.4365,0.0,-1.3536,-1.2586,0.0,0.0,0.0,-1.0816,-1.1367,-1.1346,-1.1345,-1.1443,0.0,0.0,-1.1348,-1.1262,-1.1526,-1.1984,-1.2215,-1.2248,-1.193,-1.1522,-1.1303,-1.1064,-1.0534,-1.0149,-1.0222,-0.9907,-0.9989,-1.0557,-1.139,-1.1913,-1.2082,-1.2328,-1.235,-1.2444,-1.2444,-1.2763,-1.3435,-1.3604,-1.3726,-1.4313,-1.3354,-1.2068,-1.1213,-1.0762,-1.0104,-1.41,-1.4274,-1.402,-1.3954,-1.4108,-1.4846,-1.5674,-1.6704,-1.7675,-1.8684,-1.9486,-1.991,-1.9825,-1.9347,-1.9188,-1.907,-1.9036,-1.9288,-1.9408,-1.9588,-1.9597,-1.9722,-1.9876,-1.9199,-1.894,-1.9206,-1.8186,-1.7674,-1.7666,-1.6944,-1.6397,-1.6079,-1.6455,-1.6228,-1.5368,-1.584,-1.6277,-1.6525,-1.6611,-1.6698,-1.6698,-1.8158,-1.8647,-1.7997,-1.8816,-1.9292,-1.9292,-1.9292,-1.9292,-1.9292,-1.9127,-1.8742,-1.8146,-1.7165,0.0,0.0,0.0,0.0,0.0,0.0,0.0,0.0,0.0,-1.6019,-1.3839,0.0,-1.4064,0.0,-1.4452,-1.4254,-1.327,-1.3336,0.0,0.0,-1.24,-1.2423,-1.3563,-1.3153,-1.2589,-1.1999,-1.212,-1.2032,-1.1348,-1.1267,-1.1521,-1.1973,-1.179,-1.1222,-1.0357,-1.1033,-1.152,-1.1324,-1.1433,-1.1438,-1.1289,-1.1521,-1.1652,-1.1807,-1.2021,-1.2054,-1.201,-1.2659,-1.3117,-1.3209,-1.3859,-1.4385,-1.4495,-1.4591,-1.4624,-1.4767,-1.3902,-1.2843,-1.1913,-1.1278,-1.0481,-1.4298,-1.4298,-1.4298,-1.4298,-1.4394,-1.5382,-1.6317,-1.7301,-1.8608,-1.9601,-2.0264,-2.0243,-2.0136,-1.9843,-1.9732,-1.9522,-1.932,-1.954,-1.9751,-1.9925,-1.9934,-2.0145,-2.0484,-1.987,-1.9705,-1.9825,-1.9012,-1.8567,-1.8567,-1.8078,-1.7734,-1.7531,-1.8013,-1.7978,-1.7381,-1.7184,-1.6825,-1.6376,-1.7019,-1.7505,-1.79,-1.8816,-1.8891,-1.8082,-1.8538,-1.8605,-1.8247,-1.8238,-1.8229,-1.8238,-1.8238,-1.8036,-1.7596,-1.7051,-1.6575,0.0,0.0,0.0,0.0,0.0,0.0,0.0,0.0,0.0,0.0,0.0,-1.4922,-1.4059,-1.483,-1.4975,-1.4083,-1.4386,-1.4538,-1.4511,-1.4148,-1.4295,-1.5219,-1.4677,-1.4031,-1.3544,-1.3306,-1.3012,-1.247,-1.236,-1.2423,-1.2686,-1.247,-1.1933,-1.1414,-1.2032,-1.2516,-1.2394,-1.2557,-1.2522,-1.2192,-1.2635,-1.3039,-1.2827,-1.3039,-1.334,-1.3373,-1.376,-1.4034,-1.4123,-1.4491,-1.4716,-1.4603,-1.4657,-1.473,-1.4643,-1.4375,-1.3699,-1.2814,-1.2198,-1.1505,-1.4195,-1.4195,-1.4201,-1.4201,-1.4297,-1.5369,-1.64,-1.7331,-1.8832,-1.983,-2.0392,-2.0143,-1.998,-1.9907,-1.9549,-1.9356,-1.9311,-1.9366,-1.9577,-1.9925,-1.9934,-2.0108,-2.0429,-2.0035,-1.9852,-1.9833,-1.9476,-1.9292,-1.9292,-1.9292,-1.9274,-1.9228,-1.9219,-1.9094,-1.8888,-1.8364,-1.7514,-1.6412,-1.7505,-1.8467,-1.9127,-1.9045,-1.8669,-1.8009,-1.7963,-1.7633,-1.6954,-1.6908,-1.6908,-1.6908,-1.6908,-1.6945,-1.7046,-1.6838,-1.6768,0.0,-1.6553,0.0,0.0,0.0,0.0,0.0,0.0,0.0,0.0,-1.7134,-1.6036,-1.477,-1.5408,-1.5733,-1.5317,-1.55,-1.5723,-1.6001,-1.6074,-1.6199,-1.6455,-1.5817,-1.5328,-1.5198,-1.4628,-1.4046,-1.3679,-1.366,-1.3559,-1.3389,-1.3411,-1.3366,-1.3248,-1.3428,-1.3542,-1.3654,-1.355,-1.3404,-1.3281,-1.3802,-1.4075,-1.3808,-1.4179,-1.4832,-1.4926,-1.4888,-1.4822,-1.4815,-1.4636,-1.4468,-1.4213,-1.4341,-1.4412,-1.4446,-1.4537,-1.4338,-1.3646,-1.3293,-1.251,-1.3664,-1.3664,-1.3664,-1.3664,-1.3768,-1.5436,-1.6458,-1.6992,-1.8883,-2.0039,-2.0452,-2.0382,-2.0228,-1.9934,-1.9852,-1.9622,-1.932,-1.9659,-1.9861,-1.9934,-1.9934,-1.9971,-2.0008,-1.9613,-1.9412,-1.9421,-1.9338,-1.9292,-1.9292,-1.9292,-1.9136,-1.8834,-1.8825,-1.819,-1.7134,0.0,0.0,0.0,-1.83,-1.8192,-1.8311,-1.7697,-1.7293,-1.7147,-1.7138,0.0,-1.6917,-1.6908,-1.6908,-1.6908,-1.6908,0.0,0.0,0.0,0.0,0.0,0.0,0.0,0.0,0.0,0.0,0.0,-1.8807,-1.8209,-1.6855,-1.6463,-1.6413,-1.6794,-1.6252,-1.5994,-1.6177,-1.6433,-1.6608,-1.6674,-1.6901,-1.7091,-1.7135,-1.6817,-1.6299,-1.5418,-1.4994,-1.4382,-1.3703,-1.3468,-1.3455,-1.3489,-1.3899,-1.4186,-1.413,-1.3782,-1.3481,-1.3468,-1.3932,-1.4398,-1.4824,-1.4999,-1.4999,-1.4915,-1.4915,-1.4943,-1.4825,-1.4839,-1.4747,-1.4754,-1.474,-1.4649,-1.458,-1.4657,-1.465,-1.465,-1.465,-1.4496,-1.36,-1.3665,-1.3451,-1.3513,-1.3513,-1.3513,-1.3773,0.0,-1.5534,-1.6338,-1.7056,-1.8948,-2.0066,-2.0503,-2.031,-2.0118,-1.9925,-1.9714,-1.9503,-1.9311,-1.9531,-1.9613,-1.9613,-1.9613,-1.9622,-1.9613,-1.9402,-1.9292,-1.9292,-1.9292,-1.9292,-1.9292,-1.9292,-1.9191,-1.8999,-1.8999,-1.8643,-1.7948,-1.8443,-1.8806,-1.9008,-1.843,-1.832,-1.8669,-1.8302,-1.7899,-1.7532,-1.7504,0.0,0.0,0.0,0.0,0.0,0.0,0.0,0.0,-1.7727,0.0,-1.8485,-1.8456,-1.8605,-1.8937,-1.8976,-1.9232,-1.9732,-1.9771,-1.9127,-1.7569,-1.7477,-1.7763,-1.8126,-1.7278,-1.6854,-1.7537,-1.7256,-1.7084,-1.7091,-1.7091,-1.7091,-1.7047,-1.6674,-1.625,-1.5718,-1.5347,-1.4916,-1.4432,-1.4419,-1.4412,-1.4412,-1.4657,-1.4915,-1.4908,-1.4664,-1.4412,-1.4412,-1.4664,-1.4999,-1.5347,-1.5431,-1.5347,-1.5264,-1.5257,-1.5173,-1.5082,-1.4992,-1.4908,-1.4915,-1.4824,-1.4734,-1.4734,-1.4824,-1.4915,-1.4908,-1.4999,-1.4908,-1.4482,-1.4482,-1.4223,-1.3375,-1.3369,-1.3548,-1.3983,-1.4736,-1.5627,-1.6553,-1.7495,0.0,0.0,0.0,-1.9962,-1.9824,-1.9797,-1.9457,-1.9292,-1.9292,-1.9292,-1.9292,-1.9292,-1.9292,-1.9292,-1.9292,-1.9292,-1.9292,-1.9292,-1.9292,-1.9292,-1.9292,-1.9292,-1.9292,-1.9292,-1.9292,-1.9292,-1.9292,-1.9292,-1.9136,-1.8806,-1.8357,-1.843,-1.9063,-1.8953,-1.8568,-1.7926,-1.7908,-1.7587,-1.6936,-1.6908,-1.6908,-1.6908,-1.6908,-1.7102,-1.7451,-1.792,-1.84,-1.8759,-1.9243,-1.9658,-2.001,-2.0029,-2.0185,-2.0547,-2.0576,-2.0207,-1.9149,-1.9079,-1.9238,-1.9281,-1.8084,-1.7781,-1.8696,-1.7789,-1.725,-1.7512,-1.7106,-1.686,-1.7004,-1.6352,-1.5943,-1.5884,-1.5558,-1.5438,-1.5354,-1.5347,-1.5431,-1.5431,-1.5347,-1.5431,-1.5431,-1.5347,-1.5264,-1.5264,-1.5264,-1.5347,-1.5431,-1.5431,-1.5431,-1.5431,-1.5431,-1.5431,-1.5347,-1.5257,-1.518,-1.5173,-1.4999,-1.4908,-1.4824,-1.4999,-1.5173,-1.518,-1.5257,-1.5431,-1.5431,-1.5213,-1.4733,-1.2819,-1.2899,-1.3664,-1.3998,-1.4247,-1.5876,-1.7278,-1.8449,-1.8717,-1.9057,-1.9467,-1.9412,-1.9384,-1.9384,-1.9329,-1.9292,-1.9292,-1.9292,-1.9292,-1.9292,-1.9292,-1.9292,-1.9292,-1.9292,-1.9292,-1.9292,-1.9292,-1.9292,-1.9292,-1.9292,-1.9292,-1.9292,-1.9292,-1.9292,-1.9292,-1.9292,-1.9274,-1.921,-1.8495,-1.8174,-1.8275,-1.7596,-1.7193,-1.7082,-1.711,-1.7037,-1.6917,-1.6927,-1.6908,-1.6908,-1.6908,-1.7352,-1.8392,-1.8642,-1.9142,-2.0148,-2.0352,-2.041,-2.0546,-2.0469,-2.0498,-2.0557,-2.0576,-2.0615,-2.0787,-2.0133,-1.9796,-2.0111,-1.8642,-1.7986,-1.8771,-1.7578,-1.7247,-1.836,-1.7339,-1.6787,-1.7389,-1.6545,-1.5891,-1.5884,-1.5628,-1.5431,-1.5431,-1.5431,-1.5431,-1.5431,-1.5431,-1.5431,-1.5431,-1.5431,-1.5431,-1.5431,-1.5431,-1.5431,-1.5431,-1.5431,-1.5431,-1.5431,-1.5431,-1.5431,-1.5431,-1.5347,-1.5347,-1.5347,-1.5257,-1.5257,-1.5257,-1.534,-1.5347,-1.5347,-1.5431,-1.5431,-1.5401,-1.51,-1.4667,-1.2705,-1.279,-1.3626,-1.4294,-1.488,-1.6624,-1.7861,-1.8531,-1.87,-1.8922,-1.9292,-1.9292,-1.9292,-1.9292,-1.9292,-1.9292,-1.9292,-1.9292,-1.9292,-1.9292,-1.9292,-1.9292,-1.9292,-1.9292,-1.9292,-1.9292,-1.9292,-1.9292,-1.9292,-1.9292,-1.9292,-1.9292,-1.9292,-1.9292,-1.9292,-1.9292,-1.9292,-1.9292,-1.8944,-1.876,-1.876,-1.8403,-1.821,-1.821,-1.8201,-1.8201,-1.821,-1.8648,-1.886,-1.886,-1.9355,-1.9972,-2.065,-2.0744,-2.0937,-2.1201,-2.1242,-2.1088,-2.0644,-2.0576,-2.0576,-2.0576,-2.0576,-2.0644,-2.0859,-2.0192,-2.0062,-2.0677,-1.9347,-1.8784,-1.9648,-1.8612,-1.8102,-1.887,-1.7682,-1.7048,-1.7266,-1.683,-1.6141,-1.5804,-1.5929,-1.5906,-1.5423,-1.5431,-1.5431,-1.5431,-1.5431,-1.5431,-1.5431,-1.5431,-1.5431,-1.5431,-1.5431,-1.5431,-1.5431,-1.5431,-1.5431,-1.5431,-1.5431,-1.5431,-1.5431,-1.5431,-1.5431,-1.5431,-1.5431,-1.5431,-1.5431,-1.5431,-1.5431,-1.5431,-1.5431,-1.5387,-1.5189,-1.4779,-1.4365,-1.2705,-1.279,-1.3873,-1.497,-1.6057,-1.7375,-1.8112,-1.8442,-1.8612,-1.8843,-1.9222,-1.9301,-1.9292,-1.9292,-1.9292,-1.9292,-1.9292,-1.9292,-1.9292,-1.9292,-1.9292,-1.9292,-1.9292,-1.9292,-1.9292,-1.9292,-1.9292,-1.9292,-1.9292,-1.9292,-1.9292,-1.9292,-1.9292,-1.9292,-1.9292,-1.9292,-1.9371,-1.9539,-1.9608,-1.946,-1.9292,-1.9292,-1.9381,-1.9529,-1.952,-1.9678,-1.9923,-2.0459,-2.0769,-2.0837,-2.1583,-2.2038,-2.2209,-2.2264,-2.2113,-2.1614,-2.1538,-2.1242,-2.0644,-2.0576,-2.0576,-2.0576,-2.0576,-2.0576,-2.0596,-2.0235,-2.0254,-2.0793,-1.9861,-1.945,-2.0099,-1.9358,-1.8963,-1.9199,-1.8196,-1.753,-1.758,-1.7261,-1.6788,-1.6147,-1.646,-1.6378,-1.5906,-1.5665,-1.5748,-1.5748,-1.5665,-1.5665,-1.5514,-1.5431,-1.5431,-1.5431,-1.5431,-1.5431,-1.5431,-1.5431,-1.5431,-1.5431,-1.5431,-1.5431,-1.5431,-1.5431,-1.5431,-1.5431,-1.5431,-1.5431,-1.5423,-1.5343,-1.5313,-1.5284,-1.5211,-1.5072,-1.4743,-1.437,-1.4018,-1.2705,-1.2954,-1.4545,-1.6214,-1.7627,-1.7951,-1.8121,-1.8353,-1.8434,-1.8674,-1.9073,-1.9222,-1.9292,-1.9292,-1.9292,-1.9292,-1.9292,-1.9292,-1.9292,-1.9292,-1.9292,-1.9292,-1.9292,-1.9292,-1.9292,-1.9292,-1.9292,-1.9292,-1.9292,-1.9292,-1.9292,-1.9292,-1.9292,-1.9292,-1.9292,-1.9292,-1.9608,-2.0391,-2.0382,-2.0079,-1.9371,-1.9292,-1.9608,-2.0391,-2.0391,-2.0769,-2.1375,-2.1603,-2.1756,-2.1886,-2.1962,-2.1897,-2.168,-2.1614,-2.1308,-2.0789,-2.0722,-2.0634,-2.0644,-2.0576,-2.0576,-2.0576,-2.0576,-2.0576,-2.0576,-2.0528,-2.0547,-2.0508,-1.9799,-1.9706,-2.037,-1.919,-1.8905,-2.008,-1.8941,-1.821,-1.8798,-1.8353,-1.7836,-1.7764,-1.718,-1.6698,-1.6617,-1.6542,-1.6535,-1.6542,-1.6468,-1.6221,-1.5665,-1.5431,-1.5431,-1.5431,-1.5431,-1.5431,-1.5431,-1.5431,-1.5431,-1.5431,-1.5431,-1.5431,-1.5431,-1.5431,-1.5431,-1.5431,-1.5394,-1.5379,-1.5328,-1.5211,-1.4911,-1.4955,-1.4787,-1.4479,-1.4179,-1.4011,-1.3945,-1.3457,-1.3626,-1.5372,-1.687,-1.7951,-1.8031,-1.8031,-1.8201,-1.8362,-1.8674,-1.9152,-1.9371,-1.946,-1.9292,-1.9292,-1.9292,-1.9292,-1.9292,-1.9292,-1.9292,-1.9292,-1.9292,-1.9292,-1.9292,-1.9292,-1.9292,-1.9292,-1.9292,-1.9292,-1.9292,-1.9292,-1.9292,-1.9292,-1.9292,-1.9292,-1.9292,-1.945,-1.9775,-1.9766,-1.9835,-2.007,-2.0537,-2.0924,-2.1221,-2.1298,-2.1155,-2.1078,-2.1603,-2.1756,-2.1451,-2.1993,-2.2381,-2.2231,-2.2295,-2.2059,-2.1385,-2.0867,-2.0576,-2.0576,-2.0576,-2.0576,-2.0576,-2.0576,-2.0576,-2.0576,-2.0576,-2.0576,-2.0566,-2.0255,-2.0245,-2.0489,-1.9932,-1.9844,-2.0333,-1.952,-1.8895,-1.9213,-1.8975,-1.8647,-1.8158,-1.8158,-1.7997,-1.7594,-1.7423,-1.7423,-1.735,-1.7098,-1.6617,-1.6221,-1.5741,-1.5431,-1.5514,-1.5824,-1.5906,-1.559,-1.5431,-1.5431,-1.5431,-1.5431,-1.5431,-1.5416,-1.5431,-1.5431,-1.5416,-1.5255,-1.5145,-1.5123,-1.4889,-1.4662,-1.4596,-1.4414,-1.4128,-1.4004,-1.3828,-1.3726,-1.3789,-1.4294,-1.5951,-1.7204,-1.7959,-1.8031,-1.8031,-1.804,-1.8201,-1.8594,-1.9063,-1.9213,-1.9222,-1.9231,-1.9618,-1.9844,-1.9991,-1.9991,-2.0001,-1.9991,-1.9991,-1.9991,-1.9991,-1.9991,-1.9991,-1.9923,-1.9766,-1.9529,-1.9292,-1.9292,-1.9292,-1.9292,-1.9292,-1.9292,-1.9301,-1.946,-1.9756,-1.9991,-2.0148,-2.0692,-2.1527,-2.2134,-2.2371,-2.2145,-2.1918,-2.168,-2.168,-2.236,-2.251,-2.2145,-2.2905,-2.3287,-2.3128,-2.3254,-2.2947,-2.2209,-2.1614,-2.1231,-2.1231,-2.1242,-2.1242,-2.1242,-2.1242,-2.1242,-2.1231,-2.1088,-2.0944,-2.0944,-2.0722,-2.0566,-2.0576,-2.0576,-2.0576,-2.0566,-2.001,-1.9687,-1.9696,-1.9618,-1.946,-1.8877,-1.9045,-1.9054,-1.8487,-1.8327,-1.8327,-1.8327,-1.7836,-1.7269,-1.7025,-1.655,-1.6154,-1.6154,-1.6706,-1.6624,-1.5989,-1.6154,-1.6064,-1.6034,-1.6175,-1.5986,-1.5666,-1.5561,-1.5242,-1.5116,-1.4955,-1.4823,-1.4779,-1.4575,-1.4282,-1.4187,-1.4026,-1.3865,-1.3806,-1.3631,-1.3536,-1.3203,-1.4294,-1.5944,-1.7204,-1.8031,-1.8031,-1.8031,-1.8031,-1.804,-1.8193,-1.8514,-1.8523,-1.8603,-1.9002,-2.0469,-2.1318,-2.1538,-2.1451,-2.1451,-2.1451,-2.1527,-2.168,-2.169,-2.169,-2.1603,-2.1221,-2.0537,-1.9923,-1.9292,-1.9371,-1.9292,-1.9301,-1.945,-1.9371,-1.9539,-2.0148,-2.0837,-2.1451,-2.2155,-2.3065,-2.3728,-2.3959,-2.3519,-2.2927,-2.222,-2.2596,-2.3886,-2.4273,-2.4406,-2.4826,-2.4754,-2.4587,-2.4047,-2.3963,-2.361,-2.3032,-2.2883,-2.2798,-2.2809,-2.2734,-2.2809,-2.2809,-2.266,-2.2809,-2.266,-2.2134,-2.1756,-2.1756,-2.1165,-2.0799,-2.0789,-2.0722,-2.0566,-2.0576,-2.0566,-2.0489,-2.0489,-2.0411,-2.0489,-2.0245,-1.9766,-1.946,-1.9292,-1.9222,-1.9222,-1.9222,-1.9134,-1.8816,-1.8069,-1.7827,-1.7641,-1.7624,-1.7696,-1.7649,-1.6919,-1.6863,-1.7454,-1.7338,-1.6787,-1.6839,-1.6323,-1.5819,-1.5326,-1.4773,-1.4594,-1.4479,-1.4428,-1.4231,-1.3931,-1.377,-1.3689,-1.3587,-1.3638,-1.355,-1.3492,-1.5296,-1.6617,-1.7286,-1.77,-1.7959,-1.8031,-1.8031,-1.8031,-1.8031,-1.8273,-1.8763,-1.8913,-1.9678,-2.0914,-2.1624,-2.1231,-2.0157,-2.0692,-2.1001,-2.1001,-2.1527,-2.1527,-2.1001,-2.1001,-2.0682,-2.0226,-1.9835,-1.9608,-1.9539,-2.0382,-2.0615,-2.0226,-2.0605,-2.0914,-2.0914,-2.1145,-2.1538,-2.1766,-2.2145,-2.2617,-2.3372,-2.2916,-2.2979,-2.374,-2.3508,-2.3361,-2.353,-2.3677,-2.3582,-2.318,-2.3412,-2.3423,-2.3276,-2.3327,-2.3316,-2.3032,-2.3032,-2.3032,-2.3032,-2.3032,-2.3032,-2.3032,-2.3032,-2.3032,-2.2957,-2.2723,-2.2574,-2.251,-2.236,-2.2145,-2.1918,-2.1242,-2.0576,-2.0566,-2.0644,-2.0644,-2.0576,-2.0576,-2.0576,-2.0566,-2.0245,-2.0167,-2.007,-2.0089,-2.0098,-2.0089,-1.9687,-1.9186,-1.8833,-1.8206,-1.7725,-1.7682,-1.7821,-1.7885,-1.7646,-1.7501,-1.7499,-1.7191,-1.6919,-1.6492,-1.6086,-1.5798,-1.5327,-1.4572,-1.4282,-1.4234,-1.4258,-1.4163,-1.3785,-1.3799,-1.3702,-1.363,-1.3492,-1.3557,-1.3557,-1.646,-1.7538,-1.787,-1.8031,-1.8031,-1.8031,-1.8031,-1.8031,-1.8031,-1.8282,-1.8683,-1.9073,-1.9913,-2.1068,-2.1624,-2.1088,-1.9844,-2.0991,-2.168,-2.1756,-2.2295,-2.2209,-2.1766,-2.168,-2.1375,-2.0904,-2.0605,-2.0304,-1.9913,-2.1145,-2.1308,-2.0605,-2.1375,-2.1756,-2.1832,-2.2069,-2.222,-2.222,-2.2456,-2.2916,-2.3287,-2.283,-2.3054,-2.4043,-2.4189,-2.3982,-2.3519,-2.3677,-2.3593,-2.318,-2.3338,-2.357,-2.357,-2.3621,-2.3768,-2.3768,-2.3768,-2.3756,-2.3756,-2.3756,-2.3768,-2.3768,-2.3756,-2.3768,-2.3768,-2.3537,-2.339,-2.3327,-2.3106,-2.3032,-2.2809,-2.1983,-2.1385,-2.1385,-2.1385,-2.1395,-2.1385,-2.1165,-2.0867,-2.0644,-2.0566,-2.0518,-2.0391,-2.0361,-2.0273,-2.0185,-1.9611,-1.9303,-1.917,-1.862,-1.8029,-1.8011,-1.8302,-1.8387,-1.8211,-1.8044,-1.8149,-1.7893,-1.751,-1.6862,-1.6146,-1.588,-1.5372,-1.4501,-1.4109,-1.4037,-1.4044,-1.3968,-1.4038,-1.4065,-1.4049,-1.4049,-1.384,-1.363,-1.3557,-1.6698,-1.6952,-1.7619,-1.8031,-1.8031,-1.8031,-1.8031,-1.8121,-1.8121,-1.8193,-1.8434,-1.8834,-1.9301,-1.9539,-2.0692,-2.0847,-2.1298,-2.2894,-2.374,-2.374,-2.397,-2.3959,-2.374,-2.3666,-2.3593,-2.3434,-2.3139,-2.2004,-2.0692,-2.1527,-2.1603,-2.0924,-2.1603,-2.2134,-2.1907,-2.2681,-2.3001,-2.315,-2.3666,-2.4043,-2.4189,-2.4043,-2.4043,-2.4261,-2.4261,-2.4261,-2.4418,-2.4574,-2.4706,-2.4886,-2.5028,-2.5241,-2.5099,-2.5087,-2.5241,-2.5087,-2.5158,-2.5229,-2.517,-2.5087,-2.5016,-2.5016,-2.5158,-2.5016,-2.4933,-2.4492,-2.412,-2.4047,-2.361,-2.318,-2.3254,-2.3106,-2.2872,-2.2957,-2.2734,-2.2734,-2.266,-2.2199,-2.1441,-2.075,-2.0488,-2.0361,-2.0049,-1.9977,-1.9944,-1.9541,-1.9443,-1.938,-1.9316,-1.8998,-1.9141,-1.9122,-1.8812,-1.851,-1.8527,-1.8601,-1.8844,-1.8899,-1.8433,-1.7834,-1.6694,-1.6199,-1.5543,-1.4838,-1.4487,-1.4421,-1.4711,-1.4657,-1.4856,-1.4895,-1.4752,-1.4466,-1.4258,-1.3977,-1.363,-1.7033,-1.7619,-1.787,-1.8031,-1.8031,-1.8031,-1.8201,-1.8683,-1.8674,-1.8904,-1.9283,-1.9687,-2.0157,-2.0692,-2.1318,-2.1928,-2.2756,-2.3519,-2.3666,-2.3519,-2.3959,-2.3897,-2.3519,-2.3372,-2.3065,-2.2681,-2.2916,-2.2456,-2.1842,-2.2756,-2.3065,-2.2531,-2.2979,-2.3423,-2.3361,-2.3666,-2.3824,-2.3824,-2.4043,-2.4334,-2.4671,-2.4406,-2.4406,-2.4743,-2.4743,-2.4611,-2.4334,-2.449,-2.4706,-2.4933,-2.5052,-2.5182,-2.5312,-2.5312,-2.5312,-2.5312,-2.5312,-2.5312,-2.5312,-2.5312,-2.5312,-2.5312,-2.5312,-2.5312,-2.5312,-2.5087,-2.4862,-2.4933,-2.4719,-2.4576,-2.4576,-2.4576,-2.4131,-2.3095,-2.3032,-2.3106,-2.3021,-2.2339,-2.1298,-2.0394,-2.0117,-1.9932,-1.9748,-1.9829,-1.9968,-1.9476,-1.9643,-1.9787,-1.9364,-1.9046,-1.8857,-1.8838,-1.8633,-1.8496,-1.8398,-1.833,-1.8457,-1.8603,-1.8377,-1.8052,-1.7101,-1.6475,-1.5797,-1.5251,-1.4966,-1.4966,-1.5242,-1.5455,-1.5596,-1.5455,-1.51,-1.4824,-1.4609,-1.4258,-1.384,-1.7404,-1.7951,-1.8031,-1.8031,-1.8031,-1.8031,-1.8201,-1.8683,-1.8922,-1.9222,-1.9608,-2.0235,-2.0779,-2.1318,-2.1797,-2.2402,-2.315,-2.3446,-2.3457,-2.3372,-2.3897,-2.3897,-2.3446,-2.3446,-2.3213,-2.2905,-2.3213,-2.299,-2.2381,-2.3519,-2.3824,-2.3224,-2.3824,-2.4189,-2.4189,-2.4189,-2.4189,-2.4189,-2.4189,-2.4467,-2.4731,-2.4467,-2.4467,-2.4874,-2.4802,-2.4611,-2.4345,-2.4418,-2.4562,-2.4778,-2.5052,-2.5253,-2.5312,-2.5312,-2.5312,-2.5312,-2.5312,-2.5312,-2.5312,-2.5312,-2.5312,-2.5312,-2.5312,-2.5312,-2.5312,-2.5312,-2.5312,-2.5312,-2.5241,-2.5312,-2.5312,-2.5312,-2.4802,-2.3998,-2.3913,-2.3683,-2.3452,-2.2794,-2.2009,-2.1135,-2.0665,-2.0266,-2.0083,-2.0071,-2.0198,-1.9836,-1.9694,-1.9972,-1.9444,-1.9103,-1.8874,-1.8725,-1.8743,-1.8486,-1.8125,-1.8037,-1.8027,-1.8096,-1.8105,-1.7674,-1.7005,-1.6788,-1.6367,-1.5737,-1.5313,-1.5666,-1.5948,-1.6088,-1.6228,-1.5877,-1.5666,-1.5525,-1.5313,-1.4545,-1.4122,-1.7618,-1.8023,-1.8031,-1.8031,-1.8031,-1.8031,-1.8112,-1.8201,-1.8754,-1.9073,-1.939,-2.0323,-2.0867,-2.1098,-2.1863,-2.2327,-2.2563,-2.3075,-2.3457,-2.3519,-2.3886,-2.397,-2.4043,-2.4043,-2.397,-2.397,-2.4043,-2.3751,-2.315,-2.3824,-2.3824,-2.3298,-2.3897,-2.4189,-2.4189,-2.4189,-2.4189,-2.4189,-2.4261,-2.4527,-2.5063,-2.4529,-2.4529,-2.5051,-2.4637,-2.44,-2.4377,-2.4519,-2.4637,-2.4826,-2.5111,-2.5241,-2.5312,-2.5312,-2.5312,-2.5312,-2.5312,-2.5312,-2.5312,-2.5312,-2.5312,-2.5312,-2.5312,-2.5312,-2.5312,-2.5312,-2.5312,-2.5312,-2.5312,-2.5312,-2.5312,-2.5312,-2.5241,-2.5241,-2.5016,-2.4707,-2.41,-2.3601,-2.2737,-2.204,-2.1593,-2.1159,-2.0568,-2.0628,-2.051,-2.0083,-1.9645,-1.9831,-1.9754,-1.9544,-1.9162,-1.8921,-1.8818,-1.8492,-1.8144,-1.8008,-1.8008,-1.8008,-1.8008,-1.7716,-1.7354,-1.7217,-1.7079,-1.6515,-1.6088,-1.6376,-1.6585,-1.6802,-1.6941,-1.6862,-1.6655,-1.6446,-1.5877,-1.5108,-1.4402,-1.7045,-1.7942,-1.8031,-1.8031,-1.8031,-1.8031,-1.8282,-1.8763,-1.8913,-1.9301,-1.9756,-2.0547,-2.0944,-2.1021,-2.1645,-2.2101,-2.2402,-2.2628,-2.2927,-2.315,-2.3213,-2.3666,-2.4116,-2.4189,-2.4189,-2.4189,-2.4154,-2.4116,-2.3897,-2.3975,-2.3986,-2.3886,-2.3963,-2.4154,-2.4189,-2.4131,-2.4189,-2.4261,-2.4587,-2.5052,-2.5402,-2.5018,-2.5066,-2.5493,-2.5049,-2.4609,-2.4268,-2.4602,-2.484,-2.4992,-2.5123,-2.5182,-2.5276,-2.5276,-2.5276,-2.5312,-2.5312,-2.5312,-2.5312,-2.5312,-2.5312,-2.5312,-2.5312,-2.5312,-2.5312,-2.5312,-2.5312,-2.5312,-2.5312,-2.5312,-2.5312,-2.5382,-2.5382,-2.5312,-2.5322,-2.492,-2.3967,-2.3477,-2.2854,-2.1399,-2.1101,-2.0773,-2.061,-2.0707,-2.0781,-2.0399,-2.0291,-2.0344,-2.0355,-2.0096,-1.9759,-1.9166,-1.8921,-1.8539,-1.8269,-1.8076,-1.8008,-1.8008,-1.8008,-1.8008,-1.7794,-1.7716,-1.7725,-1.751,-1.7157,-1.7226,-1.7442,-1.7647,-1.7716,-1.7501,-1.7217,-1.6793,-1.6306,-1.5666,-1.4887,-1.6561,-1.7809,-1.7971,-1.8031,-1.8031,-1.8031,-1.8353,-1.9002,-1.9301,-1.9766,-2.0382,-2.1011,-2.1262,-2.1339,-2.1655,-2.1959,-2.2176,-2.2327,-2.2553,-2.2703,-2.2927,-2.3372,-2.3824,-2.4116,-2.4189,-2.4154,-2.3971,-2.3879,-2.375,-2.3684,-2.3569,-2.3511,-2.3569,-2.3557,-2.357,-2.3746,-2.3828,-2.3945,-2.435,-2.4901,-2.5431,-2.4957,-2.4942,-2.5197,-2.4921,-2.4434,-2.4357,-2.4616,-2.4769,-2.4791,-2.4856,-2.4941,-2.4951,-2.4975,-2.5071,-2.5264,-2.5312,-2.5312,-2.5312,-2.5312,-2.5312,-2.5312,-2.5312,-2.5312,-2.5312,-2.5312,-2.5312,-2.5312,-2.5312,-2.5453,-2.5804,-2.5988,-2.5933,-2.5541,-2.5448,-2.4969,-2.3955,-2.3487,-2.2829,-2.1953,-2.149,-2.1285,-2.0967,-2.1336,-2.1325,-2.1135,-2.0996,-2.106,-2.1008,-2.0677,-2.0279,-1.9759,-1.9299,-1.9044,-1.8529,-1.8269,-1.8134,-1.8134,-1.8008,-1.8008,-1.8008,-1.8008,-1.794,-1.794,-1.8008,-1.8008,-1.8008,-1.794,-1.7647,-1.7501,-1.7364,-1.7148,-1.6724,-1.6167,-1.5376,-1.6102,-1.7346,-1.7704,-1.792,-1.7886,-1.7983,-1.8276,-1.8991,-1.9506,-2.009,-2.0692,-2.1405,-2.1492,-2.1731,-2.1731,-2.1807,-2.1807,-2.2176,-2.2252,-2.2478,-2.2692,-2.3043,-2.3205,-2.3727,-2.3956,-2.3971,-2.3592,-2.3408,-2.3293,-2.2937,-2.2754,-2.2834,-2.28,-2.2731,-2.2926,-2.3173,-2.3282,-2.3443,-2.396,-2.4369,-2.4685,-2.4459,-2.4489,-2.4734,-2.4481,-2.4355,-2.4443,-2.4608,-2.4544,-2.4208,-2.4501,-2.457,-2.4466,-2.4446,-2.4699,-2.5059,-2.5155,-2.5192,-2.53,-2.5312,-2.5312,-2.5312,-2.5312,-2.5312,-2.5312,-2.5312,-2.5382,-2.5523,-2.5382,-2.5652,-2.6183,-2.6896,-2.6668,-2.5911,-2.5627,-2.5132,-2.453,-2.3663,-2.2967,-2.2947,-2.245,-2.2357,-2.2309,-2.2359,-2.2359,-2.2002,-2.1877,-2.1753,-2.1702,-2.14,-2.0944,-2.0355,-1.9955,-1.9628,-1.9054,-1.8405,-1.8405,-1.8327,-1.8066,-1.8008,-1.8008,-1.8008,-1.8008,-1.8008,-1.8008,-1.8008,-1.8008,-1.7862,-1.7647,-1.7647,-1.7579,-1.7442,-1.7157,-1.6585,-1.5877,-1.5368,-1.5915,-1.68,-1.7158,-1.7235,-1.76,-1.8082,-1.8583,-1.9133,-1.9736,-2.0227,-2.0847,-2.1078,-2.1155,-2.1558,-2.1807,-2.1797,-2.1928,-2.1959,-2.1959,-2.2327,-2.2317,-2.2364,-2.2784,-2.3236,-2.3336,-2.3087,-2.2857,-2.2777,-2.2685,-2.2662,-2.2627,-2.2524,-2.2662,-2.2672,-2.2738,-2.2865,-2.2989,-2.373,-2.3998,-2.3977,-2.4154,-2.4242,-2.4416,-2.4195,-2.4159,-2.4287,-2.4675,-2.4662,-2.4322,-2.4293,-2.4409,-2.4122,-2.405,-2.4304,-2.4679,-2.4767,-2.4924,-2.5192,-2.5405,-2.5312,-2.5441,-2.5511,-2.5312,-2.5312,-2.537,-2.5652,-2.5861,-2.5652,-2.5779,-2.6382,-2.6631,-2.6583,-2.6194,-2.556,-2.4957,-2.4606,-2.3702,-2.2965,-2.265,-2.2751,-2.2859,-2.2919,-2.3207,-2.322,-2.298,-2.2689,-2.2506,-2.2273,-2.2049,-2.1463,-2.0858,-2.0549,-2.0215,-1.9639,-1.9121,-1.8988,-1.8854,-1.8596,-1.8395,-1.8405,-1.8269,-1.8405,-1.8269,-1.8008,-1.8076,-1.8202,-1.8008,-1.7862,-1.7862,-1.7862,-1.7725,-1.751,-1.6872,-1.6446,-1.4795,-1.5654,-1.6598,-1.7136,-1.7345,-1.7868,-1.8425,-1.8892,-1.9228,-1.9642,-2.0167,-2.0752,-2.1014,-2.1045,-2.1542,-2.1807,-2.1745,-2.1569,-2.1476,-2.1489,-2.165,-2.1677,-2.1739,-2.1967,-2.2329,-2.2661,-2.2287,-2.2206,-2.2216,-2.2111,-2.1916,-2.1973,-2.205,-2.1893,-2.2027,-2.2259,-2.2439,-2.2738,-2.3426,-2.3804,-2.3866,-2.3986,-2.4185,-2.4172,-2.4151,-2.4171,-2.4532,-2.4791,-2.4791,-2.4638,-2.4648,-2.4553,-2.433,-2.4266,-2.4516,-2.4941,-2.5053,-2.5303,-2.5702,-2.5877,-2.6033,-2.6227,-2.6321,-2.6321,-2.6333,-2.6321,-2.6458,-2.6744,-2.665,-2.6519,-2.6894,-2.708,-2.6943,-2.6241,-2.5701,-2.5091,-2.4484,-2.3831,-2.3403,-2.3175,-2.3352,-2.3267,-2.3374,-2.3728,-2.3339,-2.2823,-2.304,-2.2859,-2.2457,-2.2223,-2.1889,-2.1365,-2.1123,-2.0741,-2.0226,-1.9901,-1.9704,-1.9573,-1.9452,-1.932,-1.932,-1.9121,-1.8998,-1.8731,-1.8462,-1.8519,-1.8586,-1.8327,-1.8008,-1.8008,-1.793,-1.8008,-1.7794,-1.7226,-1.6872,-1.432,-1.5479,-1.6519,-1.7169,-1.753,-1.8182,-1.8793,-1.9305,-1.9521,-1.9817,-2.035,-2.0855,-2.0989,-2.1197,-2.1647,-2.1899,-2.1913,-2.1576,-2.1573,-2.153,-2.1582,-2.1636,-2.1636,-2.1609,-2.1599,-2.1924,-2.1676,-2.1615,-2.1621,-2.1422,-2.1376,-2.129,-2.1331,-2.151,-2.1544,-2.1788,-2.2258,-2.2665,-2.3192,-2.3482,-2.371,-2.3824,-2.3942,-2.3929,-2.4197,-2.4376,-2.4721,-2.5005,-2.5075,-2.5075,-2.5118,-2.5091,-2.4964,-2.4719,-2.4953,-2.5376,-2.529,-2.5574,-2.5936,-2.6155,-2.6284,-2.7144,-2.6985,-2.7038,-2.6933,-2.6855,-2.6908,-2.721,-2.7222,-2.7285,-2.7493,-2.7363,-2.7003,-2.6329,-2.6007,-2.5409,-2.4642,-2.4266,-2.4292,-2.393,-2.3975,-2.3989,-2.3859,-2.3975,-2.3292,-2.2836,-2.3113,-2.316,-2.2811,-2.2519,-2.2249,-2.1889,-2.1651,-2.1526,-2.1071,-2.0484,-2.0355,-2.0291,-2.0172,-2.0042,-2.0031,-2.0031,-1.977,-1.9309,-1.911,-1.9044,-1.8777,-1.8327,-1.8134,-1.8066,-1.8066,-1.8066,-1.7852,-1.7501,-1.7295,-1.3396,-1.3762,-1.5488,-1.6236,-1.6519,-1.7719,-1.8577,-1.9053,-1.9514,-2.0019,-2.0308,-2.0503,-2.0721,-2.1126,-2.1867,-2.244,-2.2446,-2.2195,-2.2054,-2.2043,-2.2002,-2.1891,-2.1487,-2.1286,-2.1261,-2.124,-2.1202,-2.13,-2.133,-2.1256,-2.1233,-2.1296,-2.1526,-2.1702,-2.1815,-2.2163,-2.2359,-2.2555,-2.2944,-2.3125,-2.3185,-2.3437,-2.3641,-2.3688,-2.4144,-2.4465,-2.4694,-2.5131,-2.5439,-2.5439,-2.5619,-2.5675,-2.5493,-2.4753,-2.4623,-2.493,-2.5148,-2.5458,-2.5821,-2.546,-2.5435,-2.5653,-2.5845,-2.5756,-2.5985,-2.6099,-2.6635,-2.6943,-2.7359,-2.7478,-2.6932,-2.692,-2.6889,-2.6511,-2.6148,-2.5772,-2.5522,-2.537,-2.5077,-2.4439,-2.4567,-2.4708,-2.4523,-2.4394,-2.4105,-2.3884,-2.4002,-2.3741,-2.322,-2.2992,-2.2871,-2.2519,-2.2123,-2.2061,-2.1937,-2.1336,-2.0933,-2.088,-2.0688,-2.0431,-2.0484,-2.0741,-2.0537,-2.0215,-1.9694,-1.9365,-1.8977,-1.8596,-1.8462,-1.8586,-1.8395,-1.8202,-1.7988,-1.7852,-1.7794,-1.3171,-1.3753,-1.4974,-1.5824,-1.6594,-1.7501,-1.8368,-1.9036,-1.9338,-1.952,-1.9675,-1.9737,-1.9831,-2.0156,-2.0407,-2.1116,-2.1855,-2.2184,-2.1913,-2.1745,-2.1564,-2.1218,-2.0874,-2.072,-2.0653,-2.068,-2.0775,-2.1031,-2.1158,-2.1233,-2.1233,-2.1221,-2.1463,-2.1526,-2.1588,-2.1702,-2.2063,-2.2249,-2.2506,-2.2823,-2.3065,-2.3509,-2.37,-2.3923,-2.4189,-2.4523,-2.4821,-2.5188,-2.555,-2.5702,-2.5853,-2.5893,-2.5715,-2.5453,-2.5073,-2.5287,-2.5368,-2.5598,-2.6085,-2.5922,-2.619,-2.6681,-2.6363,-2.6451,-2.6634,-2.6856,-2.6761,-2.7106,-2.7006,-2.7155,-2.6765,-2.6525,-2.6343,-2.6287,-2.6048,-2.5921,-2.5893,-2.5893,-2.5481,-2.4964,-2.5203,-2.5272,-2.4948,-2.4878,-2.4921,-2.4921,-2.4878,-2.4408,-2.3682,-2.3636,-2.359,-2.3113,-2.2763,-2.2592,-2.2531,-2.2087,-2.1741,-2.1628,-2.1514,-2.125,-2.1123,-2.1439,-2.1526,-2.1348,-2.0741,-2.002,-1.989,-1.977,-1.9441,-1.8977,-1.8721,-1.8519,-1.8327,-1.8202,-1.8076,-1.3258,-1.4057,-1.4625,-1.5604,-1.6793,-1.7423,-1.819,-1.8808,-1.894,-1.8878,-1.8861,-1.9002,-1.911,-1.9249,-1.9596,-2.0216,-2.1216,-2.1846,-2.1724,-2.1587,-2.1452,-2.088,-2.056,-2.0431,-2.0764,-2.0764,-2.0955,-2.0955,-2.1031,-2.1169,-2.1233,-2.1285,-2.1285,-2.1336,-2.1463,-2.1714,-2.1765,-2.1939,-2.2199,-2.2702,-2.345,-2.3878,-2.4112,-2.4216,-2.4421,-2.4765,-2.5075,-2.5411,-2.5688,-2.5798,-2.5893,-2.5893,-2.5893,-2.5893,-2.5893,-2.5893,-2.5893,-2.6188,-2.6386,-2.6285,-2.6279,-2.6828,-2.7153,-2.7195,-2.7269,-2.6942,-2.7227,-2.7298,-2.6989,-2.6638,-2.6456,-2.6244,-2.6087,-2.5976,-2.5976,-2.5988,-2.5948,-2.5893,-2.5893,-2.5715,-2.5893,-2.5729,-2.5397,-2.5342,-2.5384,-2.5328,-2.5328,-2.4991,-2.4452,-2.4523,-2.4408,-2.3872,-2.3446,-2.322,-2.298,-2.275,-2.2604,-2.2665,-2.2604,-2.2421,-2.231,-2.2334,-2.2223,-2.1987,-2.1675,-2.1071,-2.1008,-2.0549,-1.9759,-1.9177,-1.8977,-1.8777,-1.8654,-1.8337,-1.8076,-1.3499,-1.3637,-1.4545,-1.5463,-1.641,-1.7239,-1.7935,-1.841,-1.8529,-1.8226,-1.8124,-1.8454,-1.8905,-1.9299,-2.0389,-2.151,-2.2226,-2.2322,-2.2274,-2.2261,-2.2334,-2.2187,-2.2372,-2.2469,-2.1451,-2.106,-2.1474,-2.1411,-2.1019,-2.1094,-2.1285,-2.1348,-2.1639,-2.1815,-2.1815,-2.2063,-2.247,-2.2543,-2.2944,-2.345,-2.3878,-2.4008,-2.4216,-2.4421,-2.4751,-2.5061,-2.5369,-2.5633,-2.5839,-2.5893,-2.5893,-2.5893,-2.5893,-2.5893,-2.5893,-2.5893,-2.5907,-2.5936,-2.5993,-2.5772,-2.5744,-2.6176,-2.5952,-2.5758,-2.6148,-2.6343,-2.6329,-2.6118,-2.6062,-2.6104,-2.6173,-2.6275,-2.615,-2.615,-2.6096,-2.6042,-2.6002,-2.6042,-2.6042,-2.6056,-2.6042,-2.6002,-2.5784,-2.5784,-2.5784,-2.5729,-2.5674,-2.5328,-2.516,-2.5174,-2.5118,-2.4624,-2.4105,-2.3859,-2.3505,-2.322,-2.31,-2.3386,-2.322,-2.3173,-2.2823,-2.2469,-2.2531,-2.2285,-2.2049,-2.18,-2.14,-2.0741,-1.989,-1.9299,-1.8977,-1.8911,-1.8911,-1.8519,-1.8134,-1.3045,-1.3292,-1.4042,-1.4811,-1.5574,-1.644,-1.7213,-1.7904,-1.8364,-1.8382,-1.828,-1.8526,-1.8708,-1.8986,-1.9875,-2.0619,-2.1313,-2.1948,-2.2163,-2.2115,-2.2079,-2.1865,-2.1239,-2.0933,-2.0484,-2.0816,-2.0816,-2.088,-2.0828,-2.1463,-2.1913,-2.1939,-2.2125,-2.2298,-2.2113,-2.247,-2.2592,-2.2738,-2.3065,-2.3463,-2.37,-2.3936,-2.4216,-2.4465,-2.4821,-2.5131,-2.5481,-2.5757,-2.5893,-2.5893,-2.5893,-2.5893,-2.5893,-2.5893,-2.5893,-2.5893,-2.5893,-2.5907,-2.5907,-2.5619,-2.5674,-2.577,-2.5674,-2.5716,-2.5893,-2.5893,-2.5893,-2.5907,-2.5907,-2.5948,-2.5948,-2.6042,-2.6042,-2.6042,-2.6258,-2.615,-2.615,-2.6244,-2.6244,-2.6244,-2.6258,-2.6204,-2.615,-2.5948,-2.5893,-2.5839,-2.5839,-2.5674,-2.5564,-2.5619,-2.5508,-2.5328,-2.4865,-2.4408,-2.4105,-2.3754,-2.3267,-2.3267,-2.2884,-2.2763,-2.2592,-2.242,-2.2653,-2.2531,-2.2185,-2.1925,-2.1588,-2.106,-2.0355,-1.9628,-1.8977,-1.8977,-1.8977,-1.8911,-1.8721,-1.2614,-1.3035,-1.366,-1.4271,-1.4941,-1.5716,-1.6558,-1.7359,-1.807,-1.8284,-1.8394,-1.8646,-1.8724,-1.8731,-1.9486,-2.0074,-2.0245,-2.1499,-2.182,-2.1643,-2.1507,-2.1455,-2.1365,-2.0602,-2.0355,-1.9987,-2.1008,-2.1008,-2.1262,-2.1839,-2.2457,-2.2298,-2.2002,-2.2113,-2.2175,-2.2175,-2.2187,-2.2421,-2.2689,-2.3078,-2.3463,-2.376,-2.4086,-2.4478,-2.4821,-2.5131,-2.5481,-2.5743,-2.5893,-2.5893,-2.5893,-2.5893,-2.5893,-2.5893,-2.5893,-2.5893,-2.5893,-2.5893,-2.5893,-2.5839,-2.5893,-2.5893,-2.5893,-2.5839,-2.5893,-2.5893,-2.6002,-2.6111,-2.5948,-2.5988,-2.6136,-2.6244,-2.6297,-2.6418,-2.6472,-2.6312,-2.6244,-2.651,-2.6602,-2.6602,-2.6549,-2.6549,-2.6404,-2.6096,-2.5948,-2.5893,-2.5893,-2.5948,-2.5948,-2.5948,-2.5839,-2.566,-2.5216,-2.4935,-2.4865,-2.4439,-2.3904,-2.3446,-2.3053,-2.2944,-2.3125,-2.3125,-2.3233,-2.2944,-2.242,-2.1975,-2.1565,-2.1187,-2.0805,-2.0279,-1.9759,-1.9243,-1.9054,-1.911,-1.9177,-1.2276,-1.3003,-1.3391,-1.4082,-1.4953,-1.5643,-1.6249,-1.6968,-1.7541,-1.7701,-1.7857,-1.8457,-1.9271,-1.9577,-1.9703,-2.0082,-2.0598,-2.128,-2.1643,-2.2168,-2.2633,-2.2469,-2.2212,-2.2002,-2.1815,-2.1187,-2.1439,-2.1577,-2.1827,-2.2322,-2.2211,-2.1537,-2.1889,-2.1526,-2.1651,-2.2013,-2.2137,-2.231,-2.2506,-2.2884,-2.3271,-2.3628,-2.391,-2.4465,-2.4821,-2.5131,-2.5494,-2.5743,-2.5893,-2.5893,-2.5893,-2.5893,-2.5893,-2.5893,-2.5893,-2.6002,-2.5948,-2.5948,-2.6002,-2.6002,-2.5948,-2.5948,-2.6002,-2.6096,-2.6096,-2.5988,-2.6096,-2.6418,-2.6244,-2.6351,-2.6707,-2.6967,-2.6826,-2.6826,-2.6826,-2.6878,-2.6811,-2.6916,-2.7019,-2.6967,-2.6967,-2.6982,-2.6811,-2.6563,-2.6351,-2.6297,-2.6096,-2.6096,-2.6111,-2.6111,-2.6002,-2.5825,-2.5439,-2.5328,-2.566,-2.5245,-2.4654,-2.4425,-2.4221,-2.4221,-2.435,-2.4234,-2.3695,-2.322,-2.275,-2.2175,-2.1741,-2.1678,-2.1491,-2.1049,-2.0473,-1.9835,-1.9704,-1.9901,-1.977,-1.203,-1.2726,-1.3247,-1.393,-1.4735,-1.5486,-1.6118,-1.6738,-1.7497,-1.8288,-1.878,-1.9331,-1.9592,-1.9747,-1.9811,-1.9899,-2.02,-2.0727,-2.1292,-2.1649,-2.1947,-2.22,-2.214,-2.1916,-2.1175,-2.1376,-2.1628,-2.1765,-2.1776,-2.2445,-2.231,-2.1951,-2.2025,-2.2531,-2.2592,-2.258,-2.2871,-2.3065,-2.3185,-2.3497,-2.3628,-2.3878,-2.4157,-2.4765,-2.4878,-2.5286,-2.5688,-2.5839,-2.5893,-2.5893,-2.5893,-2.5893,-2.5893,-2.5893,-2.6002,-2.6096,-2.6002,-2.6056,-2.619,-2.6258,-2.6365,-2.6616,-2.6669,-2.6616,-2.651,-2.6616,-2.6654,-2.6759,-2.6721,-2.6826,-2.6982,-2.7071,-2.7071,-2.7122,-2.7225,-2.7276,-2.7393,-2.7494,-2.7494,-2.7494,-2.7458,-2.7473,-2.7255,-2.7049,-2.6826,-2.6654,-2.6457,-2.6312,-2.6312,-2.6312,-2.6312,-2.6312,-2.5974,-2.5811,-2.6082,-2.5797,-2.5412,-2.53,-2.5203,-2.4978,-2.4751,-2.4323,-2.38,-2.3433,-2.3207,-2.2895,-2.2652,-2.2531,-2.2101,-2.1467,-2.0921,-2.0291,-2.042,-2.0677,-2.0549,-1.1973,-1.2818,-1.3502,-1.4043,-1.4588,-1.5313,-1.5894,-1.64,-1.7112,-1.8232,-1.9475,-1.9643,-1.9798,-1.9798,-1.9798,-1.9811,-1.9999,-2.0426,-2.0853,-2.1281,-2.1601,-2.1787,-2.1752,-2.1708,-2.1678,-2.169,-2.1628,-2.1702,-2.1588,-2.2249,-2.2125,-2.2075,-2.2519,-2.2763,-2.3125,-2.3437,-2.3675,-2.3675,-2.3675,-2.3819,-2.3819,-2.3878,-2.4157,-2.4708,-2.4892,-2.5244,-2.5633,-2.5853,-2.5893,-2.5893,-2.5893,-2.5893,-2.5893,-2.5948,-2.6056,-2.615,-2.615,-2.6096,-2.6351,-2.6404,-2.6457,-2.651,-2.6759,-2.6811,-2.6967,-2.7034,-2.7071,-2.7306,-2.7188,-2.7188,-2.7342,-2.7509,-2.7545,-2.766,-2.7695,-2.781,-2.7894,-2.8008,-2.8008,-2.7974,-2.8057,-2.8222,-2.8222,-2.8012,-2.7515,-2.7246,-2.6811,-2.6721,-2.6774,-2.6721,-2.6669,-2.6721,-2.6721,-2.6549,-2.6496,-2.6229,-2.5906,-2.5591,-2.5425,-2.5021,-2.4738,-2.4425,-2.4323,-2.4163,-2.3989,-2.38,-2.3386,-2.2955,-2.2396,-2.1756,-2.1404,-2.1239,-2.121,-2.1474,-2.1336,-1.195,-1.3511,-1.4172,-1.4469,-1.4647,-1.5177,-1.5594,-1.6114,-1.6652,-1.7644,-1.8927,-1.9527,-1.9798,-1.9798,-1.9798,-1.9798,-1.9899,-2.0338,-2.0743,-2.0924,-2.1469,-2.2031,-2.2275,-2.2272,-2.2078,-2.2175,-2.2199,-2.1951,-2.1588,-2.2396,-2.2211,-2.1951,-2.2322,-2.2555,-2.2665,-2.2665,-2.2665,-2.2713,-2.2847,-2.3185,-2.3509,-2.3628,-2.4028,-2.4478,-2.4878,-2.5188,-2.5536,-2.5798,-2.5893,-2.5893,-2.5893,-2.5893,-2.5893,-2.5948,-2.6042,-2.6096,-2.6042,-2.6204,-2.6443,-2.615,-2.6204,-2.6472,-2.6982,-2.6967,-2.6826,-2.6982,-2.7408,-2.7725,-2.7509,-2.766,-2.7875,-2.8088,-2.8122,-2.8253,-2.8334,-2.8431,-2.8574,-2.8669,-2.8669,-2.8669,-2.8919,-2.9164,-2.9241,-2.9104,-2.8432,-2.7883,-2.7312,-2.7174,-2.7276,-2.7086,-2.6967,-2.724,-2.7306,-2.7086,-2.693,-2.6721,-2.6404,-2.6028,-2.5701,-2.5412,-2.53,-2.53,-2.5147,-2.4935,-2.465,-2.4394,-2.38,-2.3207,-2.3122,-2.3097,-2.2652,-2.2433,-2.2285,-2.2061,-2.1862,-1.1903,-1.3511,-1.3743,-1.4341,-1.5118,-1.5748,-1.6472,-1.7335,-1.8104,-1.875,-1.9279,-1.9695,-1.9798,-1.9798,-1.9798,-1.9798,-1.9861,-1.9899,-2.0188,-2.0715,-2.1154,-2.1694,-2.2076,-2.2191,-2.2297,-2.2615,-2.2641,-2.2531,-2.2297,-2.2848,-2.2957,-2.2763,-2.2628,-2.2992,-2.2859,-2.2932,-2.3258,-2.3543,-2.3616,-2.3747,-2.3806,-2.3865,-2.4086,-2.4509,-2.4878,-2.5188,-2.5494,-2.5798,-2.5893,-2.5893,-2.5893,-2.5948,-2.6002,-2.6096,-2.6404,-2.6616,-2.6721,-2.6759,-2.6849,-2.6811,-2.7034,-2.7342,-2.7545,-2.7645,-2.7775,-2.7875,-2.8088,-2.8201,-2.8122,-2.835,-2.8637,-2.8716,-2.8858,-2.9212,-2.9348,-2.9348,-2.9409,-2.9438,-2.9483,-2.9438,-2.9601,-2.9451,-2.9467,-2.975,-2.93,-2.8841,-2.8273,-2.8143,-2.8255,-2.758,-2.724,-2.7675,-2.784,-2.761,-2.7357,-2.7086,-2.6826,-2.6496,-2.6229,-2.6014,-2.596,-2.5879,-2.555,-2.5118,-2.5048,-2.4935,-2.4509,-2.4208,-2.4567,-2.4567,-2.3505,-2.2859,-2.258,-2.2359,-2.2123,-1.1841,-1.313,-1.3692,-1.4282,-1.5099,-1.5738,-1.6472,-1.7313,-1.8201,-1.8804,-1.8951,-1.9423,-1.9747,-1.9798,-1.9798,-1.9798,-1.9798,-1.9811,-1.9874,-2.0401,-2.0627,-2.123,-2.1624,-2.1814,-2.2365,-2.2795,-2.2823,-2.2592,-2.2223,-2.309,-2.3138,-2.2944,-2.3065,-2.2738,-2.2738,-2.3245,-2.376,-2.3923,-2.3995,-2.3995,-2.4112,-2.4157,-2.4363,-2.4708,-2.5005,-2.5355,-2.5578,-2.5798,-2.5948,-2.5948,-2.6002,-2.6096,-2.6244,-2.6496,-2.6811,-2.7019,-2.7464,-2.75,-2.7585,-2.8064,-2.8384,-2.8764,-2.8653,-2.8542,-2.8685,-2.8764,-2.8873,-2.892,-2.8842,-2.9013,-2.9273,-2.9348,-2.9483,-2.9853,-2.9853,-2.9853,-2.9853,-2.9897,-2.9924,-2.9941,-3.0156,-2.9924,-2.9777,-3.0054,-3.0166,-2.9717,-2.9316,-2.9196,-2.9028,-2.8319,-2.773,-2.8057,-2.8235,-2.7974,-2.771,-2.7408,-2.7137,-2.6916,-2.6654,-2.6336,-2.6028,-2.5879,-2.5619,-2.5453,-2.5439,-2.5439,-2.5328,-2.5272,-2.4964,-2.4253,-2.3195,-2.2798,-2.2763,-2.258,-2.2285,-1.1888,-1.2687,-1.3914,-1.451,-1.4601,-1.5216,-1.5517,-1.5748,-1.6978,-1.7644,-1.7841,-1.9226,-1.9656,-1.9747,-1.9747,-1.9747,-1.9747,-1.9747,-1.9745,-1.9883,-2.0167,-2.0765,-2.1219,-2.1601,-2.1869,-2.2551,-2.2798,-2.2372,-2.1815,-2.2763,-2.3005,-2.2616,-2.2384,-2.2506,-2.2992,-2.3424,-2.3878,-2.3936,-2.4054,-2.4054,-2.4112,-2.4319,-2.4478,-2.4821,-2.5174,-2.5564,-2.5839,-2.6056,-2.6111,-2.615,-2.6312,-2.6457,-2.6654,-2.6901,-2.7056,-2.7449,-2.8176,-2.8417,-2.8607,-2.9134,-2.9451,-2.9572,-2.9134,-2.9027,-2.9118,-2.9393,-2.9454,-2.9499,-2.9499,-2.9633,-2.9793,-2.9837,-2.9881,-2.9968,-3.0011,-3.0054,-3.007,-3.0156,-3.0225,-3.041,-3.0757,-3.0757,-3.0617,-3.0797,-3.0723,-3.0344,-2.9972,-2.9783,-2.9536,-2.8997,-2.8574,-2.8527,-2.8605,-2.8365,-2.8073,-2.7894,-2.766,-2.7479,-2.6878,-2.651,-2.6204,-2.6082,-2.6082,-2.6082,-2.5988,-2.5879,-2.5811,-2.5287,-2.4627,-2.3865,-2.3559,-2.305,-2.3062,-2.2652,-2.2421,-1.2205,-1.3252,-1.4103,-1.4756,-1.5099,-1.5294,-1.614,-1.7313,-1.7886,-1.8278,-1.8774,-1.9356,-1.9552,-1.9604,-1.9396,-1.95,-1.9552,-1.9448,-1.9239,-1.9413,-1.9642,-1.9607,-1.9897,-2.0377,-2.076,-2.1416,-2.1873,-2.2323,-2.2237,-2.2871,-2.3258,-2.3065,-2.2641,-2.3005,-2.3318,-2.3628,-2.3641,-2.376,-2.3936,-2.4112,-2.4171,-2.4319,-2.4536,-2.4865,-2.5425,-2.5756,-2.6082,-2.6496,-2.6602,-2.6759,-2.6864,-2.7004,-2.747,-2.7868,-2.8225,-2.898,-2.9316,-2.9422,-2.9467,-2.9645,-2.9968,-3.0225,-2.9978,-2.9821,-2.9777,-2.9793,-2.9881,-2.9968,-3.0011,-3.0097,-3.0267,-3.0351,-3.0477,-3.0601,-3.0625,-3.0666,-3.0723,-3.0764,-3.0845,-3.0965,-3.1312,-3.1257,-3.1179,-3.1196,-3.1123,-3.0818,-3.0606,-3.0451,-3.0136,-2.9597,-2.9287,-2.9241,-2.9166,-2.8966,-2.8795,-2.8638,-2.8334,-2.8008,-2.7393,-2.7019,-2.7108,-2.7056,-2.6864,-2.6707,-2.6602,-2.6404,-2.6244,-2.5714,-2.5245,-2.5024,-2.4646,-2.3929,-2.331,-2.2905,-2.2432,-1.1586,-1.2642,-1.3433,-1.4213,-1.4942,-1.5069,-1.5968,-1.7202,-1.7479,-1.7875,-1.8494,-1.8869,-1.9291,-1.9565,-1.9396,-1.9448,-1.9747,-1.9604,-1.9396,-1.9396,-1.9186,-1.9426,-1.9491,-1.9722,-2.0509,-2.1021,-2.1572,-2.231,-2.2421,-2.2763,-2.309,-2.3569,-2.333,-2.345,-2.3569,-2.3522,-2.3463,-2.3582,-2.3819,-2.4157,-2.439,-2.4549,-2.4865,-2.5175,-2.5783,-2.6162,-2.6428,-2.6953,-2.7056,-2.721,-2.7312,-2.7784,-2.8194,-2.8654,-2.9088,-2.9689,-2.9908,-3.0011,-3.0081,-3.0267,-3.0518,-3.0683,-3.0781,-3.0617,-3.0493,-3.0493,-3.0493,-3.0493,-3.0452,-3.0493,-3.0683,-3.0925,-3.1123,-3.1334,-3.1372,-3.1432,-3.1449,-3.1449,-3.1524,-3.162,-3.162,-3.1565,-3.1528,-3.16,-3.1637,-3.1531,-3.1479,-3.1462,-3.1009,-3.0385,-2.9999,-2.9843,-2.9816,-2.9685,-2.9524,-2.9255,-2.8888,-2.8465,-2.7864,-2.765,-2.7898,-2.7917,-2.764,-2.7369,-2.7159,-2.6916,-2.6654,-2.6616,-2.6254,-2.5861,-2.5149,-2.4262,-2.3521,-2.3225,-2.2776,-1.0647,-1.1545,-1.2336,-1.3545,-1.446,-1.4529,-1.5089,-1.613,-1.613,-1.6585,-1.7435,-1.7984,-1.8643,-1.9016,-1.9016,-1.9174,-1.9267,-1.9162,-1.9004,-1.9527,-1.9097,-1.8988,-1.9164,-2.0092,-1.9944,-2.0923,-2.1856,-2.2151,-2.2567,-2.286,-2.321,-2.376,-2.3113,-2.3113,-2.3569,-2.345,-2.3463,-2.3641,-2.3923,-2.4274,-2.4765,-2.5203,-2.5687,-2.6176,-2.6587,-2.6901,-2.7004,-2.7122,-2.7225,-2.7515,-2.7932,-2.8465,-2.898,-2.9496,-2.9881,-3.007,-3.041,-3.0477,-3.0642,-3.0861,-3.1078,-3.1213,-3.1252,-3.1312,-3.124,-3.11,-3.1044,-3.1083,-3.1083,-3.1184,-3.1414,-3.1511,-3.1677,-3.175,-3.1787,-3.186,-3.1896,-3.1896,-3.1932,-3.2003,-3.2039,-3.1986,-3.2057,-3.2144,-3.2196,-3.223,-3.2364,-3.238,-3.2142,-3.147,-3.1014,-3.07,-3.0711,-3.0647,-3.0152,-2.9821,-2.9383,-2.8886,-2.8529,-2.8338,-2.867,-2.8592,-2.8404,-2.8082,-2.77,-2.7312,-2.7056,-2.6916,-2.6587,-2.5807,-2.5052,-2.4262,-2.3813,-2.3449,-2.2625,-1.1673,-1.2112,-1.3476,-1.446,-1.5001,-1.4163,-1.4451,-1.5459,-1.4569,-1.5419,-1.7034,-1.749,-1.7765,-1.8135,-1.7972,-1.8135,-1.8459,-1.8447,-1.7961,-1.8015,-1.807,-1.8084,-1.7655,-1.8532,-1.8828,-1.9367,-2.037,-2.2016,-2.2541,-2.2919,-2.3078,-2.3258,-2.2992,-2.3318,-2.3747,-2.3628,-2.3688,-2.3923,-2.4216,-2.4492,-2.4865,-2.5133,-2.5508,-2.6215,-2.6745,-2.7327,-2.7545,-2.7925,-2.8024,-2.822,-2.8654,-2.9271,-2.9995,-3.0576,-3.0797,-3.0878,-3.0958,-3.1061,-3.114,-3.1372,-3.1545,-3.1694,-3.1804,-3.1967,-3.1932,-3.1731,-3.162,-3.1694,-3.1768,-3.1913,-3.2003,-3.2074,-3.2162,-3.2162,-3.2196,-3.2265,-3.2368,-3.2384,-3.2384,-3.2417,-3.2468,-3.255,-3.2645,-3.2692,-3.2755,-3.2955,-3.3187,-3.333,-3.3395,-3.2967,-3.2358,-3.2055,-3.1863,-3.1647,-3.1053,-3.0752,-3.043,-3.0154,-2.9861,-2.9686,-2.9576,-2.9383,-2.923,-2.8639,-2.8225,-2.7815,-2.7429,-2.7122,-2.6663,-2.6023,-2.559,-2.5037,-2.3974,-2.3495,-2.232,-1.085,-1.1826,-1.3053,-1.3974,-1.4401,-1.4103,-1.4519,-1.5177,-1.4638,-1.4914,-1.5948,-1.6348,-1.6733,-1.7235,-1.7202,-1.7379,-1.7875,-1.7754,-1.7863,-1.7699,-1.7313,-1.7324,-1.7366,-1.7518,-1.8227,-1.8851,-2.0628,-2.2132,-2.2586,-2.3088,-2.3271,-2.3258,-2.333,-2.3628,-2.3995,-2.3982,-2.4157,-2.4492,-2.4607,-2.4921,-2.5133,-2.5508,-2.6054,-2.6692,-2.7342,-2.786,-2.8238,-2.8605,-2.8779,-2.9044,-2.9512,-3.0038,-3.0642,-3.114,-3.1372,-3.1449,-3.1545,-3.1694,-3.1731,-3.1841,-3.195,-3.2092,-3.2127,-3.2231,-3.2449,-3.2281,-3.2196,-3.2248,-3.2074,-3.2144,-3.2248,-3.2334,-3.2598,-3.2677,-3.2755,-3.28,-3.3046,-3.3223,-3.3299,-3.3393,-3.3421,-3.3421,-3.3487,-3.3515,-3.3561,-3.357,-3.3836,-3.3869,-3.4006,-3.4176,-3.3668,-3.3302,-3.3074,-3.2567,-3.1898,-3.1777,-3.1828,-3.1531,-3.1182,-3.1276,-3.1185,-3.0537,-3.0011,-2.9594,-2.8992,-2.8238,-2.786,-2.7515,-2.7327,-2.6923,-2.6453,-2.5972,-2.4842,-2.3787,-2.3048,-0.9249,-1.11,-1.202,-1.28,-1.3374,-1.3767,-1.4368,-1.4915,-1.4904,-1.4638,-1.4579,-1.5021,-1.5573,-1.6317,-1.7013,-1.7357,-1.7368,-1.6968,-1.7302,-1.7357,-1.7357,-1.6754,-1.6866,-1.7545,-1.8293,-1.9439,-2.0986,-2.1791,-2.2376,-2.2854,-2.3213,-2.3412,-2.37,-2.3878,-2.4099,-2.4447,-2.4734,-2.4778,-2.5048,-2.5687,-2.596,-2.6162,-2.6797,-2.7494,-2.8137,-2.8462,-2.8873,-2.9166,-2.9438,-2.9761,-3.0149,-3.0707,-3.1162,-3.16,-3.1731,-3.1823,-3.2003,-3.2092,-3.2196,-3.2283,-3.2368,-3.2417,-3.2435,-3.2598,-3.288,-3.2955,-3.2911,-3.2818,-3.2645,-3.2598,-3.2695,-3.2791,-3.3082,-3.327,-3.3338,-3.3377,-3.3687,-3.3931,-3.4043,-3.4179,-3.4179,-3.416,-3.4203,-3.4227,-3.4245,-3.4269,-3.4298,-3.4321,-3.4371,-3.4532,-3.4373,-3.4192,-3.4072,-3.3486,-3.2828,-3.2769,-3.2886,-3.2629,-3.2328,-3.2696,-3.2714,-3.1881,-3.1222,-3.0734,-3.0071,-2.908,-2.8338,-2.7868,-2.7735,-2.7535,-2.7004,-2.6414,-2.5918,-2.4912,-2.4262,-0.8709,-1.0959,-1.155,-1.2102,-1.2533,-1.2038,-1.2394,-1.3208,-1.2712,-1.2773,-1.3614,-1.3906,-1.4423,-1.504,-1.5449,-1.5911,-1.6368,-1.614,-1.568,-1.5459,-1.614,-1.5748,-1.5968,-1.7213,-1.8678,-1.9806,-2.0742,-2.1412,-2.2058,-2.2584,-2.3056,-2.3543,-2.3772,-2.3949,-2.4112,-2.439,-2.4607,-2.4892,-2.5272,-2.5797,-2.6385,-2.6739,-2.747,-2.8143,-2.8826,-2.9212,-2.9499,-2.9572,-2.9705,-2.9978,-3.0517,-3.115,-3.1605,-3.2021,-3.2179,-3.2366,-3.2466,-3.2533,-3.2648,-3.2777,-3.2885,-3.3033,-3.3171,-3.3478,-3.3697,-3.3854,-3.381,-3.3869,-3.3739,-3.3678,-3.3723,-3.3688,-3.3865,-3.3924,-3.4,-3.4006,-3.4147,-3.426,-3.4348,-3.439,-3.4394,-3.4439,-3.4545,-3.4545,-3.4564,-3.4628,-3.4774,-3.4793,-3.4813,-3.4906,-3.4996,-3.4939,-3.488,-3.4583,-3.4017,-3.3844,-3.3826,-3.3563,-3.3403,-3.3537,-3.3462,-3.3049,-3.2442,-3.1825,-3.0885,-2.9889,-2.9143,-2.8803,-2.7859,-2.7614,-2.7282,-2.6849,-2.6428,-2.5631,-2.463]}]]